Wetterdaten: aktuell Dienstag, 09.03.2021 10:25
Datum Zeit Temp. 2m Temp. 5cm Temp. 0cm Temp. -10cm Feuchte A. Feucht 0cm Feucht -10cm Luftdruck Regen Wind Richtung Richtung Sonnenschein ET UV Solar Taupunkt Windchill Windben Empfang
09.03.2021 10:25 0,9 C 3,3 C 1,7 C 0,6 C 71 % 133 cb 4 cb 1018,9 hPa 0,0 l/m 9,7 km/h (2 Bft) W-SW 247 1 min 0,000 mm 1,4 UV-I 223 W/m -3,7 C -2,2 C 11,3 km/h (2 Bft) 95,65 %
09.03.2021 10:24 0,8 C 3,3 C 2,2 C 0,6 C 72 % 133 cb 4 cb 1018,9 hPa 0,0 l/m 9,7 km/h (2 Bft) SW 225 1 min 0,000 mm 1,4 UV-I 227 W/m -3,7 C -2,3 C 14,5 km/h (3 Bft) 91,30 %
09.03.2021 10:23 0,8 C 3,3 C 2,2 C 0,6 C 69 % 134 cb 4 cb 1018,9 hPa 0,0 l/m 9,7 km/h (2 Bft) W-SW 247 1 min 0,000 mm 1,4 UV-I 234 W/m -4,2 C -2,3 C 12,9 km/h (3 Bft) 86,96 %
09.03.2021 10:22 0,8 C 3,3 C 2,2 C 0,6 C 70 % 133 cb 4 cb 1018,9 hPa 0,0 l/m 6,4 km/h (2 Bft) W 270 1 min 0,000 mm 1,4 UV-I 241 W/m -4,0 C -1,3 C 12,9 km/h (3 Bft) 95,65 %
09.03.2021 10:21 0,9 C 3,3 C 2,2 C 0,6 C 71 % 133 cb 4 cb 1018,9 hPa 0,0 l/m 12,9 km/h (3 Bft) S-SW 202 1 min 0,000 mm 1,4 UV-I 246 W/m -3,7 C -2,9 C 16,1 km/h (3 Bft) 91,30 %
09.03.2021 10:20 0,9 C 3,3 C 2,2 C 0,6 C 71 % 133 cb 4 cb 1018,9 hPa 0,0 l/m 9,7 km/h (2 Bft) S-SW 202 1 min 0,000 mm 1,5 UV-I 250 W/m -3,7 C -2,2 C 16,1 km/h (3 Bft) 91,30 %
09.03.2021 10:19 0,9 C 3,3 C 2,2 C 0,6 C 71 % 133 cb 4 cb 1018,9 hPa 0,0 l/m 8,0 km/h (2 Bft) S-SW 202 1 min 0,000 mm 1,5 UV-I 253 W/m -3,7 C -1,7 C 11,3 km/h (2 Bft) 91,30 %
09.03.2021 10:18 0,8 C 3,3 C 2,2 C 0,6 C 73 % 133 cb 4 cb 1018,9 hPa 0,0 l/m 6,4 km/h (2 Bft) S-SW 202 1 min 0,000 mm 1,5 UV-I 255 W/m -3,5 C -1,3 C 11,3 km/h (2 Bft) 91,30 %
09.03.2021 10:17 0,7 C 3,3 C 2,2 C 0,6 C 71 % 133 cb 4 cb 1018,9 hPa 0,0 l/m 6,4 km/h (2 Bft) S-SW 202 1 min 0,000 mm 1,5 UV-I 253 W/m -3,9 C -1,4 C 9,7 km/h (2 Bft) 91,30 %
09.03.2021 10:16 0,6 C 3,3 C 1,7 C 0,6 C 71 % 133 cb 4 cb 1018,9 hPa 0,0 l/m 4,8 km/h (1 Bft) S-SW 202 1 min 0,000 mm 1,5 UV-I 246 W/m -4,0 C -0,8 C 8,0 km/h (2 Bft) 95,65 %
09.03.2021 10:15 0,6 C 3,3 C 2,2 C 0,6 C 71 % 133 cb 4 cb 1018,9 hPa 0,0 l/m 9,7 km/h (2 Bft) SW 225 1 min 0,000 mm 1,5 UV-I 244 W/m -4,0 C -2,5 C 17,7 km/h (3 Bft) 91,30 %
09.03.2021 10:14 0,6 C 3,3 C 2,2 C 0,6 C 71 % 134 cb 4 cb 1018,9 hPa 0,0 l/m 9,7 km/h (2 Bft) SW 225 1 min 0,000 mm 1,7 UV-I 258 W/m -4,0 C -2,5 C 17,7 km/h (3 Bft) 95,65 %
09.03.2021 10:13 0,6 C 3,3 C 1,7 C 0,6 C 71 % 133 cb 4 cb 1018,9 hPa 0,0 l/m 11,3 km/h (2 Bft) SW 225 1 min 0,000 mm 1,6 UV-I 274 W/m -4,0 C -2,9 C 16,1 km/h (3 Bft) 91,30 %
09.03.2021 10:12 0,6 C 3,3 C 1,7 C 0,6 C 72 % 133 cb 4 cb 1018,9 hPa 0,0 l/m 8,0 km/h (2 Bft) SW 225 1 min 0,000 mm 1,5 UV-I 258 W/m -3,9 C -2,0 C 14,5 km/h (3 Bft) 91,30 %
09.03.2021 10:11 0,6 C 3,3 C 1,7 C 0,6 C 72 % 134 cb 4 cb 1018,9 hPa 0,0 l/m 6,4 km/h (2 Bft) S-SW 202 1 min 0,000 mm 1,5 UV-I 243 W/m -3,9 C -1,5 C 11,3 km/h (2 Bft) 91,30 %
09.03.2021 10:10 0,6 C 2,8 C 1,7 C 0,6 C 72 % 135 cb 4 cb 1018,9 hPa 0,0 l/m 3,2 km/h (1 Bft) S-SW 202 1 min 0,000 mm 1,5 UV-I 236 W/m -3,9 C 0,6 C 4,8 km/h (1 Bft) 95,65 %
09.03.2021 10:09 0,4 C 2,8 C 1,7 C 0,6 C 72 % 135 cb 4 cb 1018,9 hPa 0,0 l/m 4,8 km/h (1 Bft) SW 225 1 min 0,000 mm 1,5 UV-I 230 W/m -4,0 C -1,0 C 6,4 km/h (2 Bft) 86,96 %
09.03.2021 10:08 0,4 C 2,8 C 1,7 C 0,6 C 72 % 135 cb 4 cb 1018,9 hPa 0,0 l/m 8,0 km/h (2 Bft) S 180 1 min 0,000 mm 1,4 UV-I 227 W/m -4,0 C -2,3 C 9,7 km/h (2 Bft) 95,65 %
09.03.2021 10:07 0,4 C 2,8 C 1,7 C 0,6 C 72 % 135 cb 4 cb 1018,9 hPa 0,0 l/m 3,2 km/h (1 Bft) O-SO 112 1 min 0,000 mm 1,4 UV-I 227 W/m -4,0 C 0,4 C 6,4 km/h (2 Bft) 82,61 %
09.03.2021 10:06 0,4 C 2,8 C 1,7 C 0,6 C 71 % 135 cb 4 cb 1019,0 hPa 0,0 l/m 3,2 km/h (1 Bft) SO 135 1 min 0,000 mm 1,4 UV-I 221 W/m -4,2 C 0,4 C 4,8 km/h (1 Bft) 91,30 %
09.03.2021 10:05 0,4 C 2,8 C 1,7 C 0,6 C 72 % 135 cb 4 cb 1019,0 hPa 0,0 l/m 3,2 km/h (1 Bft) N-NW 337 1 min 0,000 mm 1,4 UV-I 220 W/m -4,0 C 0,4 C 3,2 km/h (1 Bft) 91,30 %
09.03.2021 10:04 0,4 C 2,8 C 1,7 C 0,6 C 73 % 135 cb 4 cb 1019,0 hPa 0,0 l/m 4,8 km/h (1 Bft) S-SW 202 1 min 0,000 mm 1,4 UV-I 216 W/m -3,9 C -1,0 C 6,4 km/h (2 Bft) 91,30 %
09.03.2021 10:03 0,3 C 2,8 C 1,7 C 0,6 C 72 % 135 cb 4 cb 1019,0 hPa 0,0 l/m 3,2 km/h (1 Bft) S-SW 202 1 min 0,000 mm 1,4 UV-I 216 W/m -4,1 C 0,3 C 6,4 km/h (2 Bft) 91,30 %
09.03.2021 10:02 0,3 C 2,8 C 1,7 C 0,6 C 72 % 135 cb 4 cb 1019,0 hPa 0,0 l/m 4,8 km/h (1 Bft) SO 135 1 min 0,000 mm 1,4 UV-I 216 W/m -4,1 C -1,2 C 6,4 km/h (2 Bft) 95,65 %
09.03.2021 10:01 0,3 C 2,8 C 1,7 C 0,6 C 73 % 135 cb 4 cb 1019,0 hPa 0,0 l/m 4,8 km/h (1 Bft) SO 135 1 min 0,000 mm 1,4 UV-I 211 W/m -4,0 C -1,2 C 8,0 km/h (2 Bft) 86,96 %
09.03.2021 10:00 0,3 C 2,8 C 1,7 C 0,6 C 74 % 135 cb 4 cb 1019,0 hPa 0,0 l/m 3,2 km/h (1 Bft) S 180 1 min 0,076 mm 1,4 UV-I 207 W/m -3,8 C 0,3 C 6,4 km/h (2 Bft) 95,65 %
09.03.2021 09:59 0,3 C 2,8 C 1,7 C 0,6 C 74 % 135 cb 4 cb 1019,0 hPa 0,0 l/m 4,8 km/h (1 Bft) S-SO 157 1 min 0,000 mm 1,4 UV-I 216 W/m -3,8 C -1,2 C 9,7 km/h (2 Bft) 91,30 %
09.03.2021 09:58 0,2 C 2,8 C 1,7 C 0,6 C 74 % 135 cb 4 cb 1019,0 hPa 0,0 l/m 1,6 km/h (1 Bft) SO 135 1 min 0,000 mm 1,4 UV-I 234 W/m -3,9 C 0,2 C 3,2 km/h (1 Bft) 95,65 %
09.03.2021 09:57 0,2 C 2,8 C 1,1 C 0,6 C 72 % 135 cb 4 cb 1019,1 hPa 0,0 l/m 4,8 km/h (1 Bft) S-SW 202 1 min 0,000 mm 1,5 UV-I 248 W/m -4,2 C -1,3 C 8,0 km/h (2 Bft) 91,30 %
09.03.2021 09:56 0,1 C 2,8 C 1,1 C 0,6 C 73 % 136 cb 4 cb 1019,1 hPa 0,0 l/m 6,4 km/h (2 Bft) S-SW 202 1 min 0,000 mm 1,5 UV-I 244 W/m -4,2 C -2,1 C 8,0 km/h (2 Bft) 91,30 %
09.03.2021 09:55 0,1 C 2,2 C 1,1 C 0,6 C 73 % 136 cb 4 cb 1019,0 hPa 0,0 l/m 6,4 km/h (2 Bft) S-SO 157 1 min 0,000 mm 1,4 UV-I 237 W/m -4,2 C -2,1 C 8,0 km/h (2 Bft) 91,30 %
09.03.2021 09:54 0,1 C 2,8 C 1,1 C 0,6 C 73 % 136 cb 4 cb 1019,1 hPa 0,0 l/m 3,2 km/h (1 Bft) S-SO 157 1 min 0,000 mm 1,4 UV-I 213 W/m -4,2 C 0,1 C 8,0 km/h (2 Bft) 95,65 %
09.03.2021 09:53 0,1 C 2,8 C 1,1 C 0,6 C 72 % 136 cb 4 cb 1019,1 hPa 0,0 l/m 3,2 km/h (1 Bft) O-SO 112 1 min 0,000 mm 1,4 UV-I 193 W/m -4,3 C 0,1 C 4,8 km/h (1 Bft) 91,30 %
09.03.2021 09:52 0,2 C 2,2 C 1,1 C 0,6 C 73 % 136 cb 4 cb 1019,1 hPa 0,0 l/m 3,2 km/h (1 Bft) SO 135 1 min 0,000 mm 1,3 UV-I 193 W/m -4,1 C 0,2 C 11,3 km/h (2 Bft) 95,65 %
09.03.2021 09:51 0,2 C 2,8 C 1,1 C 0,6 C 74 % 136 cb 4 cb 1019,1 hPa 0,0 l/m 8,0 km/h (2 Bft) S-SO 157 1 min 0,000 mm 1,3 UV-I 186 W/m -3,9 C -2,5 C 11,3 km/h (2 Bft) 91,30 %
09.03.2021 09:50 0,1 C 2,8 C 1,1 C 0,6 C 75 % 136 cb 4 cb 1019,1 hPa 0,0 l/m 8,0 km/h (2 Bft) SO 135 1 min 0,000 mm 1,4 UV-I 260 W/m -3,8 C -2,6 C 9,7 km/h (2 Bft) 86,96 %
09.03.2021 09:49 0,0 C 2,2 C 1,1 C 0,6 C 74 % 136 cb 4 cb 1019,1 hPa 0,0 l/m 4,8 km/h (1 Bft) S-SO 157 1 min 0,000 mm 1,5 UV-I 260 W/m -4,1 C -1,5 C 8,0 km/h (2 Bft) 95,65 %
09.03.2021 09:48 -0,1 C 2,2 C 1,1 C 0,6 C 74 % 136 cb 4 cb 1019,1 hPa 0,0 l/m 4,8 km/h (1 Bft) S-SO 157 1 min 0,000 mm 1,5 UV-I 260 W/m -4,2 C -1,6 C 6,4 km/h (2 Bft) 91,30 %
09.03.2021 09:47 -0,1 C 2,2 C 1,1 C 0,6 C 75 % 136 cb 4 cb 1019,1 hPa 0,0 l/m 4,8 km/h (1 Bft) SW 225 1 min 0,000 mm 1,4 UV-I 211 W/m -4,0 C -1,6 C 6,4 km/h (2 Bft) 95,65 %
09.03.2021 09:46 -0,3 C 2,2 C 1,1 C 0,6 C 73 % 137 cb 4 cb 1019,1 hPa 0,0 l/m 1,6 km/h (1 Bft) W-SW 247 1 min 0,000 mm 1,4 UV-I 202 W/m -4,5 C -0,3 C 3,2 km/h (1 Bft) 91,30 %
09.03.2021 09:45 -0,3 C 2,2 C 1,1 C 0,6 C 73 % 136 cb 4 cb 1019,1 hPa 0,0 l/m 1,6 km/h (1 Bft) NW 315 1 min 0,000 mm 1,4 UV-I 244 W/m -4,5 C -0,3 C 3,2 km/h (1 Bft) 86,96 %
09.03.2021 09:44 -0,2 C 2,2 C 1,1 C 0,6 C 74 % 136 cb 4 cb 1019,1 hPa 0,0 l/m 1,6 km/h (1 Bft) SO 135 1 min 0,000 mm 1,5 UV-I 223 W/m -4,3 C -0,2 C 3,2 km/h (1 Bft) 86,96 %
09.03.2021 09:43 -0,2 C 2,2 C 1,1 C 0,6 C 75 % 137 cb 4 cb 1019,1 hPa 0,0 l/m 1,6 km/h (1 Bft) O-SO 112 1 min 0,000 mm 1,4 UV-I 206 W/m -4,1 C -0,2 C 3,2 km/h (1 Bft) 95,65 %
09.03.2021 09:42 -0,2 C 2,2 C 1,1 C 0,6 C 74 % 136 cb 4 cb 1019,1 hPa 0,0 l/m 3,2 km/h (1 Bft) S-SO 157 1 min 0,000 mm 1,4 UV-I 207 W/m -4,3 C -0,2 C 6,4 km/h (2 Bft) 91,30 %
09.03.2021 09:41 -0,3 C 2,2 C 1,1 C 0,6 C 76 % 137 cb 4 cb 1019,1 hPa 0,0 l/m 3,2 km/h (1 Bft) S-SO 157 1 min 0,000 mm 1,4 UV-I 213 W/m -4,0 C -0,3 C 6,4 km/h (2 Bft) 95,65 %
09.03.2021 09:40 -0,4 C 2,2 C 1,1 C 0,6 C 74 % 137 cb 4 cb 1019,1 hPa 0,0 l/m 1,6 km/h (1 Bft) S 180 1 min 0,000 mm 1,5 UV-I 225 W/m -4,5 C -0,4 C 1,6 km/h (1 Bft) 91,30 %
09.03.2021 09:39 -0,4 C 2,2 C 1,1 C 0,6 C 75 % 137 cb 4 cb 1019,1 hPa 0,0 l/m 1,6 km/h (1 Bft) W-SW 247 1 min 0,000 mm 1,5 UV-I 322 W/m -4,3 C -0,4 C 3,2 km/h (1 Bft) 91,30 %
09.03.2021 09:38 -0,4 C 2,2 C 1,1 C 0,6 C 76 % 136 cb 4 cb 1019,2 hPa 0,0 l/m 3,2 km/h (1 Bft) S-SO 157 1 min 0,000 mm 1,4 UV-I 315 W/m -4,1 C -0,4 C 6,4 km/h (2 Bft) 91,30 %
09.03.2021 09:37 -0,4 C 2,2 C 1,1 C 0,6 C 74 % 136 cb 4 cb 1019,2 hPa 0,0 l/m 3,2 km/h (1 Bft) S 180 1 min 0,000 mm 1,3 UV-I 214 W/m -4,5 C -0,4 C 4,8 km/h (1 Bft) 95,65 %
09.03.2021 09:36 -0,4 C 2,2 C 1,1 C 0,6 C 75 % 136 cb 4 cb 1019,2 hPa 0,0 l/m 3,2 km/h (1 Bft) SW 225 1 min 0,000 mm 1,3 UV-I 211 W/m -4,3 C -0,4 C 4,8 km/h (1 Bft) 91,30 %
09.03.2021 09:35 -0,4 C 2,2 C 1,1 C 0,6 C 75 % 136 cb 4 cb 1019,2 hPa 0,0 l/m 4,8 km/h (1 Bft) S 180 1 min 0,000 mm 1,3 UV-I 223 W/m -4,3 C -1,9 C 8,0 km/h (2 Bft) 95,65 %
09.03.2021 09:34 -0,4 C 2,2 C 1,1 C 0,6 C 76 % 136 cb 4 cb 1019,2 hPa 0,0 l/m 6,4 km/h (2 Bft) S-SW 202 1 min 0,000 mm 1,3 UV-I 244 W/m -4,1 C -2,6 C 8,0 km/h (2 Bft) 86,96 %
09.03.2021 09:33 -0,4 C 2,2 C 1,1 C 0,6 C 75 % 136 cb 4 cb 1019,2 hPa 0,0 l/m 1,6 km/h (1 Bft) SW 225 1 min 0,000 mm 1,4 UV-I 230 W/m -4,3 C -0,4 C 4,8 km/h (1 Bft) 95,65 %
09.03.2021 09:32 -0,4 C 2,2 C 1,1 C 0,6 C 77 % 137 cb 4 cb 1019,1 hPa 0,0 l/m 3,2 km/h (1 Bft) S 180 1 min 0,000 mm 1,3 UV-I 214 W/m -3,9 C -0,4 C 4,8 km/h (1 Bft) 91,30 %
09.03.2021 09:31 -0,4 C 2,2 C 1,1 C 0,6 C 77 % 137 cb 4 cb 1019,3 hPa 0,0 l/m 3,2 km/h (1 Bft) S-SW 202 1 min 0,000 mm 1,3 UV-I 209 W/m -3,9 C -0,4 C 4,8 km/h (1 Bft) 95,65 %
09.03.2021 09:30 -0,4 C 2,2 C 1,1 C 0,6 C 75 % 137 cb 4 cb 1019,1 hPa 0,0 l/m 3,2 km/h (1 Bft) W-SW 247 1 min 0,000 mm 1,3 UV-I 214 W/m -4,3 C -0,4 C 4,8 km/h (1 Bft) 91,30 %
09.03.2021 09:29 -0,5 C 2,2 C 1,1 C 0,6 C 75 % 137 cb 4 cb 1019,2 hPa 0,0 l/m 1,6 km/h (1 Bft) SW 225 1 min 0,000 mm 1,3 UV-I 306 W/m -4,4 C -0,5 C 4,8 km/h (1 Bft) 91,30 %
09.03.2021 09:28 -0,5 C 2,8 C 1,1 C 0,6 C 76 % 137 cb 4 cb 1019,1 hPa 0,0 l/m 1,6 km/h (1 Bft) S-SW 202 1 min 0,000 mm 1,3 UV-I 264 W/m -4,2 C -0,5 C 3,2 km/h (1 Bft) 86,96 %
09.03.2021 09:27 -0,6 C 2,2 C 1,1 C 0,6 C 76 % 137 cb 4 cb 1019,1 hPa 0,0 l/m 3,2 km/h (1 Bft) O-SO 112 1 min 0,000 mm 1,3 UV-I 234 W/m -4,3 C -0,6 C 4,8 km/h (1 Bft) 95,65 %
09.03.2021 09:26 -0,6 C 2,2 C 1,1 C 0,6 C 77 % 138 cb 4 cb 1019,2 hPa 0,0 l/m 1,6 km/h (1 Bft) W-NW 292 1 min 0,000 mm 1,3 UV-I 234 W/m -4,1 C -0,6 C 4,8 km/h (1 Bft) 91,30 %
09.03.2021 09:25 -0,7 C 2,2 C 0,6 C 0,6 C 76 % 138 cb 4 cb 1019,2 hPa 0,0 l/m 1,6 km/h (1 Bft) W 270 1 min 0,000 mm 1,2 UV-I 218 W/m -4,4 C -0,7 C 3,2 km/h (1 Bft) 95,65 %
09.03.2021 09:24 -0,8 C 2,2 C 0,6 C 0,6 C 75 % 138 cb 4 cb 1019,2 hPa 0,0 l/m 1,6 km/h (1 Bft) SO 135 1 min 0,000 mm 1,2 UV-I 211 W/m -4,7 C -0,8 C 1,6 km/h (1 Bft) 91,30 %
09.03.2021 09:23 -0,8 C 2,2 C 0,6 C 0,6 C 76 % 138 cb 4 cb 1019,3 hPa 0,0 l/m 1,6 km/h (1 Bft) S-SO 157 1 min 0,000 mm 1,2 UV-I 211 W/m -4,5 C -0,8 C 3,2 km/h (1 Bft) 86,96 %
09.03.2021 09:22 -0,7 C 1,7 C 0,6 C 0,6 C 76 % 139 cb 4 cb 1019,2 hPa 0,0 l/m 1,6 km/h (1 Bft) SO 135 1 min 0,000 mm 1,1 UV-I 204 W/m -4,4 C -0,7 C 1,6 km/h (1 Bft) 91,30 %
09.03.2021 09:21 -0,7 C 1,7 C 0,6 C 0,6 C 75 % 139 cb 4 cb 1019,3 hPa 0,0 l/m 1,6 km/h (1 Bft) SO 135 1 min 0,000 mm 1,1 UV-I 193 W/m -4,6 C -0,7 C 3,2 km/h (1 Bft) 95,65 %
09.03.2021 09:20 -0,6 C 2,2 C 0,6 C 0,6 C 76 % 139 cb 4 cb 1019,4 hPa 0,0 l/m 1,6 km/h (1 Bft) O 90 1 min 0,000 mm 1,1 UV-I 218 W/m -4,3 C -0,6 C 1,6 km/h (1 Bft) 91,30 %
09.03.2021 09:19 -0,6 C 2,2 C 0,6 C 0,6 C 77 % 140 cb 4 cb 1019,3 hPa 0,0 l/m 1,6 km/h (1 Bft) NO 45 1 min 0,000 mm 1,1 UV-I 185 W/m -4,1 C -0,6 C 3,2 km/h (1 Bft) 95,65 %
09.03.2021 09:18 -0,6 C 1,7 C 0,6 C 0,6 C 78 % 140 cb 4 cb 1019,1 hPa 0,0 l/m 3,2 km/h (1 Bft) N-NO 22 1 min 0,000 mm 1,1 UV-I 186 W/m -3,9 C -0,6 C 3,2 km/h (1 Bft) 86,96 %
09.03.2021 09:17 -0,7 C 1,7 C 0,6 C 0,6 C 79 % 140 cb 4 cb 1019,2 hPa 0,0 l/m 3,2 km/h (1 Bft) N-NO 22 1 min 0,000 mm 1,1 UV-I 195 W/m -3,9 C -0,7 C 4,8 km/h (1 Bft) 91,30 %
09.03.2021 09:16 -0,9 C 1,7 C 0,6 C 0,6 C 78 % 141 cb 4 cb 1019,1 hPa 0,0 l/m 3,2 km/h (1 Bft) N-NO 22 1 min 0,000 mm 1,1 UV-I 190 W/m -4,2 C -0,9 C 3,2 km/h (1 Bft) 95,65 %
09.03.2021 09:15 -1,1 C 1,7 C 0,6 C 0,6 C 76 % 142 cb 4 cb 1019,3 hPa 0,0 l/m 3,2 km/h (1 Bft) NO 45 1 min 0,000 mm 1,0 UV-I 181 W/m -4,8 C -1,1 C 3,2 km/h (1 Bft) 91,30 %
09.03.2021 09:14 -1,1 C 1,1 C 0,6 C 0,6 C 76 % 143 cb 4 cb 1019,2 hPa 0,0 l/m 3,2 km/h (1 Bft) NO 45 1 min 0,000 mm 1,1 UV-I 188 W/m -4,8 C -1,1 C 4,8 km/h (1 Bft) 91,30 %
09.03.2021 09:13 -1,1 C 1,7 C 0,6 C 0,6 C 76 % 143 cb 4 cb 1019,3 hPa 0,0 l/m 3,2 km/h (1 Bft) NO 45 1 min 0,000 mm 1,0 UV-I 185 W/m -4,8 C -1,1 C 4,8 km/h (1 Bft) 95,65 %
09.03.2021 09:12 -1,0 C 1,7 C 0,6 C 0,6 C 78 % 143 cb 4 cb 1019,4 hPa 0,0 l/m 3,2 km/h (1 Bft) O-SO 112 1 min 0,000 mm 1,0 UV-I 188 W/m -4,3 C -1,0 C 4,8 km/h (1 Bft) 91,30 %
09.03.2021 09:11 -1,1 C 1,7 C 0,6 C 0,6 C 77 % 144 cb 4 cb 1019,2 hPa 0,0 l/m 1,6 km/h (1 Bft) O-SO 112 1 min 0,000 mm 1,0 UV-I 186 W/m -4,6 C -1,1 C 3,2 km/h (1 Bft) 91,30 %
09.03.2021 09:10 -1,1 C 1,7 C 0,6 C 0,6 C 76 % 145 cb 4 cb 1019,3 hPa 0,0 l/m 1,6 km/h (1 Bft) NO 45 1 min 0,000 mm 1,0 UV-I 185 W/m -4,8 C -1,1 C 3,2 km/h (1 Bft) 91,30 %
09.03.2021 09:09 -1,1 C 1,7 C 0,6 C 0,6 C 77 % 145 cb 4 cb 1019,4 hPa 0,0 l/m 3,2 km/h (1 Bft) N-NO 22 1 min 0,000 mm 1,0 UV-I 183 W/m -4,6 C -1,1 C 3,2 km/h (1 Bft) 91,30 %
09.03.2021 09:08 -1,2 C 1,1 C 0,6 C 0,6 C 76 % 146 cb 4 cb 1019,4 hPa 0,0 l/m 1,6 km/h (1 Bft) N-NO 22 1 min 0,000 mm 0,9 UV-I 179 W/m -4,9 C -1,2 C 4,8 km/h (1 Bft) 95,65 %
09.03.2021 09:07 -1,2 C 1,7 C 0,6 C 0,6 C 78 % 146 cb 4 cb 1019,5 hPa 0,0 l/m 1,6 km/h (1 Bft) O 90 1 min 0,000 mm 0,9 UV-I 193 W/m -4,5 C -1,2 C 1,6 km/h (1 Bft) 91,30 %
09.03.2021 09:06 -1,2 C 1,1 C 0,6 C 0,6 C 77 % 147 cb 4 cb 1019,5 hPa 0,0 l/m 3,2 km/h (1 Bft) SO 135 1 min 0,000 mm 0,9 UV-I 192 W/m -4,7 C -1,2 C 4,8 km/h (1 Bft) 86,96 %
09.03.2021 09:05 -1,2 C 1,1 C 0,6 C 0,6 C 77 % 148 cb 4 cb 1019,5 hPa 0,0 l/m 3,2 km/h (1 Bft) SO 135 1 min 0,000 mm 0,9 UV-I 179 W/m -4,7 C -1,2 C 4,8 km/h (1 Bft) 91,30 %
09.03.2021 09:04 -1,2 C 1,1 C 0,6 C 0,6 C 77 % 149 cb 4 cb 1019,5 hPa 0,0 l/m 3,2 km/h (1 Bft) SO 135 1 min 0,000 mm 0,9 UV-I 176 W/m -4,7 C -1,2 C 4,8 km/h (1 Bft) 91,30 %
09.03.2021 09:03 -1,2 C 1,1 C 0,0 C 0,6 C 78 % 149 cb 4 cb 1019,4 hPa 0,0 l/m 1,6 km/h (1 Bft) SO 135 1 min 0,000 mm 0,9 UV-I 176 W/m -4,5 C -1,2 C 3,2 km/h (1 Bft) 86,96 %
09.03.2021 09:02 -1,3 C 1,1 C 0,0 C 0,6 C 77 % 149 cb 4 cb 1019,4 hPa 0,0 l/m 1,6 km/h (1 Bft) S-SO 157 1 min 0,000 mm 0,9 UV-I 176 W/m -4,8 C -1,3 C 3,2 km/h (1 Bft) 95,65 %
09.03.2021 09:01 -1,3 C 1,1 C 0,0 C 0,6 C 77 % 149 cb 4 cb 1019,4 hPa 0,0 l/m 4,8 km/h (1 Bft) S 180 1 min 0,000 mm 0,9 UV-I 169 W/m -4,8 C -3,0 C 6,4 km/h (2 Bft) 86,96 %
09.03.2021 09:00 -1,3 C 1,1 C 0,0 C 0,6 C 78 % 150 cb 4 cb 1019,4 hPa 0,0 l/m 4,8 km/h (1 Bft) S 180 1 min 0,051 mm 0,9 UV-I 162 W/m -4,6 C -3,0 C 4,8 km/h (1 Bft) 95,65 %
09.03.2021 08:59 -1,3 C 1,1 C 0,0 C 0,6 C 77 % 150 cb 4 cb 1019,4 hPa 0,0 l/m 3,2 km/h (1 Bft) S 180 1 min 0,000 mm 0,9 UV-I 158 W/m -4,8 C -1,3 C 6,4 km/h (2 Bft) 91,30 %
09.03.2021 08:58 -1,3 C 1,1 C 0,0 C 0,6 C 78 % 150 cb 4 cb 1019,3 hPa 0,0 l/m 3,2 km/h (1 Bft) SO 135 1 min 0,000 mm 0,9 UV-I 156 W/m -4,6 C -1,3 C 4,8 km/h (1 Bft) 95,65 %
09.03.2021 08:57 -1,3 C 1,1 C 0,0 C 0,6 C 79 % 150 cb 4 cb 1019,3 hPa 0,0 l/m 3,2 km/h (1 Bft) S-SO 157 1 min 0,000 mm 0,9 UV-I 155 W/m -4,5 C -1,3 C 4,8 km/h (1 Bft) 91,30 %
09.03.2021 08:56 -1,3 C 1,1 C 0,0 C 0,6 C 77 % 151 cb 4 cb 1019,4 hPa 0,0 l/m 3,2 km/h (1 Bft) S-SO 157 1 min 0,000 mm 0,8 UV-I 155 W/m -4,8 C -1,3 C 3,2 km/h (1 Bft) 95,65 %
09.03.2021 08:55 -1,3 C 1,1 C 0,0 C 0,6 C 78 % 151 cb 4 cb 1019,3 hPa 0,0 l/m 3,2 km/h (1 Bft) S-SO 157 1 min 0,000 mm 0,8 UV-I 158 W/m -4,6 C -1,3 C 4,8 km/h (1 Bft) 86,96 %
09.03.2021 08:54 -1,3 C 1,1 C 0,0 C 0,6 C 79 % 151 cb 4 cb 1019,4 hPa 0,0 l/m 3,2 km/h (1 Bft) S-SW 202 1 min 0,000 mm 0,8 UV-I 160 W/m -4,5 C -1,3 C 3,2 km/h (1 Bft) 95,65 %
09.03.2021 08:53 -1,3 C 1,1 C 0,0 C 0,6 C 77 % 151 cb 4 cb 1019,3 hPa 0,0 l/m 3,2 km/h (1 Bft) SO 135 1 min 0,000 mm 0,8 UV-I 162 W/m -4,8 C -1,3 C 4,8 km/h (1 Bft) 86,96 %
09.03.2021 08:52 -1,3 C 1,1 C 0,0 C 0,6 C 77 % 151 cb 4 cb 1019,3 hPa 0,0 l/m 1,6 km/h (1 Bft) SO 135 1 min 0,000 mm 0,8 UV-I 158 W/m -4,8 C -1,3 C 3,2 km/h (1 Bft) 95,65 %
09.03.2021 08:51 -1,3 C 1,1 C 0,0 C 0,6 C 77 % 152 cb 4 cb 1019,4 hPa 0,0 l/m 1,6 km/h (1 Bft) W 270 1 min 0,000 mm 0,8 UV-I 153 W/m -4,8 C -1,3 C 3,2 km/h (1 Bft) 91,30 %
09.03.2021 08:50 -1,4 C 1,1 C 0,0 C 0,6 C 77 % 152 cb 4 cb 1019,4 hPa 0,0 l/m 1,6 km/h (1 Bft) W-SW 247 0 min 0,000 mm 0,8 UV-I 149 W/m -4,9 C -1,4 C 3,2 km/h (1 Bft) 91,30 %
09.03.2021 08:49 -1,3 C 1,1 C 0,0 C 0,6 C 78 % 152 cb 4 cb 1019,4 hPa 0,0 l/m 3,2 km/h (1 Bft) SW 225 0 min 0,000 mm 0,8 UV-I 149 W/m -4,6 C -1,3 C 4,8 km/h (1 Bft) 86,96 %
09.03.2021 08:48 -1,3 C 1,1 C 0,0 C 0,6 C 78 % 152 cb 4 cb 1019,5 hPa 0,0 l/m 1,6 km/h (1 Bft) SW 225 0 min 0,000 mm 0,8 UV-I 149 W/m -4,6 C -1,3 C 3,2 km/h (1 Bft) 95,65 %
09.03.2021 08:47 -1,3 C 1,1 C 0,0 C 0,6 C 79 % 152 cb 4 cb 1019,4 hPa 0,0 l/m 1,6 km/h (1 Bft) W-SW 247 0 min 0,000 mm 0,8 UV-I 148 W/m -4,5 C -1,3 C 3,2 km/h (1 Bft) 91,30 %
09.03.2021 08:46 -1,4 C 1,1 C 0,0 C 0,6 C 78 % 153 cb 4 cb 1019,5 hPa 0,0 l/m 3,2 km/h (1 Bft) SW 225 0 min 0,000 mm 0,8 UV-I 146 W/m -4,7 C -1,4 C 4,8 km/h (1 Bft) 95,65 %
09.03.2021 08:45 -1,4 C 1,1 C 0,0 C 0,6 C 78 % 153 cb 4 cb 1019,4 hPa 0,0 l/m 3,2 km/h (1 Bft) S-SW 202 0 min 0,000 mm 0,7 UV-I 146 W/m -4,7 C -1,4 C 3,2 km/h (1 Bft) 91,30 %
09.03.2021 08:44 -1,5 C 0,6 C 0,0 C 0,6 C 79 % 154 cb 4 cb 1019,5 hPa 0,0 l/m 1,6 km/h (1 Bft) SW 225 0 min 0,000 mm 0,7 UV-I 149 W/m -4,7 C -1,5 C 3,2 km/h (1 Bft) 91,30 %
09.03.2021 08:43 -1,6 C 1,1 C 0,0 C 0,6 C 77 % 154 cb 4 cb 1019,5 hPa 0,0 l/m 3,2 km/h (1 Bft) S-SW 202 1 min 0,000 mm 0,7 UV-I 155 W/m -5,1 C -1,6 C 4,8 km/h (1 Bft) 95,65 %
09.03.2021 08:42 -1,6 C 0,6 C 0,0 C 0,6 C 78 % 154 cb 4 cb 1019,5 hPa 0,0 l/m 3,2 km/h (1 Bft) S-SW 202 1 min 0,000 mm 0,7 UV-I 153 W/m -4,9 C -1,6 C 4,8 km/h (1 Bft) 91,30 %
09.03.2021 08:41 -1,6 C 0,6 C 0,0 C 0,6 C 78 % 154 cb 4 cb 1019,5 hPa 0,0 l/m 1,6 km/h (1 Bft) S-SW 202 0 min 0,000 mm 0,7 UV-I 149 W/m -4,9 C -1,6 C 8,0 km/h (2 Bft) 95,65 %
09.03.2021 08:40 -1,6 C 0,6 C 0,0 C 0,6 C 79 % 155 cb 4 cb 1019,5 hPa 0,0 l/m 4,8 km/h (1 Bft) S-SW 202 0 min 0,000 mm 0,7 UV-I 148 W/m -4,8 C -3,3 C 4,8 km/h (1 Bft) 91,30 %
09.03.2021 08:39 -1,7 C 0,6 C 0,0 C 0,6 C 79 % 156 cb 4 cb 1019,6 hPa 0,0 l/m 4,8 km/h (1 Bft) S-SW 202 0 min 0,000 mm 0,7 UV-I 148 W/m -4,8 C -3,4 C 8,0 km/h (2 Bft) 91,30 %
09.03.2021 08:38 -1,7 C 0,6 C 0,0 C 0,6 C 79 % 156 cb 4 cb 1019,5 hPa 0,0 l/m 4,8 km/h (1 Bft) S 180 0 min 0,000 mm 0,7 UV-I 149 W/m -4,8 C -3,4 C 6,4 km/h (2 Bft) 91,30 %
09.03.2021 08:37 -1,7 C 0,6 C 0,0 C 0,6 C 78 % 157 cb 4 cb 1019,6 hPa 0,0 l/m 4,8 km/h (1 Bft) S-SW 202 0 min 0,000 mm 0,7 UV-I 148 W/m -5,0 C -3,4 C 6,4 km/h (2 Bft) 95,65 %
09.03.2021 08:36 -1,7 C 0,6 C 0,0 C 0,6 C 79 % 157 cb 4 cb 1019,6 hPa 0,0 l/m 3,2 km/h (1 Bft) S-SO 157 0 min 0,000 mm 0,7 UV-I 146 W/m -4,8 C -1,7 C 4,8 km/h (1 Bft) 91,30 %
09.03.2021 08:35 -1,7 C 0,6 C 0,0 C 0,6 C 79 % 158 cb 4 cb 1019,5 hPa 0,0 l/m 4,8 km/h (1 Bft) S-SW 202 0 min 0,000 mm 0,7 UV-I 146 W/m -4,8 C -3,4 C 4,8 km/h (1 Bft) 95,65 %
09.03.2021 08:34 -1,7 C 0,6 C 0,0 C 0,6 C 79 % 160 cb 4 cb 1019,5 hPa 0,0 l/m 3,2 km/h (1 Bft) S-SW 202 0 min 0,000 mm 0,7 UV-I 144 W/m -4,8 C -1,7 C 4,8 km/h (1 Bft) 91,30 %
09.03.2021 08:33 -1,7 C 0,6 C 0,0 C 0,6 C 79 % 162 cb 4 cb 1019,5 hPa 0,0 l/m 3,2 km/h (1 Bft) S 180 0 min 0,000 mm 0,6 UV-I 142 W/m -4,8 C -1,7 C 3,2 km/h (1 Bft) 91,30 %
09.03.2021 08:32 -1,8 C 0,6 C 0,0 C 0,6 C 80 % 164 cb 4 cb 1019,6 hPa 0,0 l/m 1,6 km/h (1 Bft) S 180 0 min 0,000 mm 0,6 UV-I 141 W/m -4,8 C -1,8 C 3,2 km/h (1 Bft) 91,30 %
09.03.2021 08:31 -1,8 C 0,6 C 0,0 C 0,6 C 80 % 167 cb 4 cb 1019,6 hPa 0,0 l/m 1,6 km/h (1 Bft) S-SO 157 0 min 0,000 mm 0,6 UV-I 137 W/m -4,8 C -1,8 C 3,2 km/h (1 Bft) 95,65 %
09.03.2021 08:30 -1,8 C 0,6 C 0,0 C 0,6 C 80 % 171 cb 4 cb 1019,5 hPa 0,0 l/m 1,6 km/h (1 Bft) SO 135 0 min 0,000 mm 0,6 UV-I 134 W/m -4,8 C -1,8 C 4,8 km/h (1 Bft) 86,96 %
09.03.2021 08:29 -1,8 C 0,6 C 0,0 C 0,6 C 80 % 176 cb 4 cb 1019,5 hPa 0,0 l/m 1,6 km/h (1 Bft) O-SO 112 0 min 0,000 mm 0,6 UV-I 130 W/m -4,8 C -1,8 C 3,2 km/h (1 Bft) 95,65 %
09.03.2021 08:28 -1,8 C 0,6 C 0,0 C 0,6 C 80 % 182 cb 4 cb 1019,5 hPa 0,0 l/m 1,6 km/h (1 Bft) S-SW 202 0 min 0,000 mm 0,6 UV-I 123 W/m -4,8 C -1,8 C 3,2 km/h (1 Bft) 86,96 %
09.03.2021 08:27 -1,8 C 0,6 C 0,0 C 0,6 C 81 % 190 cb 4 cb 1019,5 hPa 0,0 l/m 1,6 km/h (1 Bft) S-SW 202 0 min 0,000 mm 0,6 UV-I 120 W/m -4,6 C -1,8 C 1,6 km/h (1 Bft) 95,65 %
09.03.2021 08:26 -1,8 C 0,6 C 0,0 C 0,6 C 80 % 195 cb 4 cb 1019,5 hPa 0,0 l/m 1,6 km/h (1 Bft) O-SO 112 0 min 0,000 mm 0,6 UV-I 118 W/m -4,8 C -1,8 C 1,6 km/h (1 Bft) 86,96 %
09.03.2021 08:25 -1,8 C 0,6 C 0,0 C 0,6 C 82 % 200 cb 4 cb 1019,6 hPa 0,0 l/m 0,0 km/h (0 Bft) SO 135 0 min 0,000 mm 0,6 UV-I 116 W/m -4,5 C -1,8 C 1,6 km/h (1 Bft) 95,65 %
09.03.2021 08:24 -1,9 C 0,0 C 0,0 C 0,6 C 82 % 200 cb 4 cb 1019,5 hPa 0,0 l/m 1,6 km/h (1 Bft) W-NW 292 0 min 0,000 mm 0,6 UV-I 114 W/m -4,6 C -1,9 C 3,2 km/h (1 Bft) 91,30 %
09.03.2021 08:23 -1,9 C 0,0 C 0,0 C 0,6 C 81 % 200 cb 4 cb 1019,5 hPa 0,0 l/m 1,6 km/h (1 Bft) NW 315 0 min 0,000 mm 0,6 UV-I 113 W/m -4,7 C -1,9 C 3,2 km/h (1 Bft) 95,65 %
09.03.2021 08:22 -1,9 C 0,0 C 0,0 C 0,6 C 81 % 200 cb 4 cb 1019,5 hPa 0,0 l/m 1,6 km/h (1 Bft) W-NW 292 0 min 0,000 mm 0,6 UV-I 111 W/m -4,7 C -1,9 C 3,2 km/h (1 Bft) 86,96 %
09.03.2021 08:21 -1,9 C 0,0 C 0,0 C 0,6 C 83 % 200 cb 4 cb 1019,6 hPa 0,0 l/m 1,6 km/h (1 Bft) NW 315 0 min 0,000 mm 0,6 UV-I 109 W/m -4,4 C -1,9 C 3,2 km/h (1 Bft) 95,65 %
09.03.2021 08:20 -2,1 C 0,0 C 0,0 C 0,6 C 82 % 200 cb 4 cb 1019,6 hPa 0,0 l/m 1,6 km/h (1 Bft) NW 315 0 min 0,000 mm 0,5 UV-I 105 W/m -4,7 C -2,1 C 3,2 km/h (1 Bft) 91,30 %
09.03.2021 08:19 -2,1 C 0,0 C 0,0 C 0,6 C 82 % 200 cb 4 cb 1019,6 hPa 0,0 l/m 1,6 km/h (1 Bft) NW 315 0 min 0,000 mm 0,5 UV-I 105 W/m -4,7 C -2,1 C 3,2 km/h (1 Bft) 95,65 %
09.03.2021 08:18 -2,2 C 0,0 C 0,0 C 0,6 C 83 % 200 cb 4 cb 1019,6 hPa 0,0 l/m 1,6 km/h (1 Bft) SO 135 0 min 0,000 mm 0,5 UV-I 105 W/m -4,7 C -2,2 C 3,2 km/h (1 Bft) 91,30 %
09.03.2021 08:17 -2,2 C -0,6 C 0,0 C 0,6 C 83 % 200 cb 4 cb 1019,6 hPa 0,0 l/m 3,2 km/h (1 Bft) O-SO 112 0 min 0,000 mm 0,5 UV-I 104 W/m -4,7 C -2,2 C 4,8 km/h (1 Bft) 91,30 %
09.03.2021 08:16 -2,2 C -0,6 C 0,0 C 0,6 C 82 % 200 cb 4 cb 1019,6 hPa 0,0 l/m 3,2 km/h (1 Bft) O-SO 112 0 min 0,000 mm 0,5 UV-I 102 W/m -4,8 C -2,2 C 3,2 km/h (1 Bft) 95,65 %
09.03.2021 08:15 -2,3 C -0,6 C 0,0 C 0,6 C 82 % 200 cb 4 cb 1019,5 hPa 0,0 l/m 1,6 km/h (1 Bft) SO 135 0 min 0,000 mm 0,5 UV-I 100 W/m -4,9 C -2,3 C 1,6 km/h (1 Bft) 95,65 %
09.03.2021 08:14 -2,3 C -0,6 C 0,0 C 0,6 C 82 % 200 cb 4 cb 1019,6 hPa 0,0 l/m 0,0 km/h (0 Bft) NO 45 0 min 0,000 mm 0,5 UV-I 102 W/m -4,9 C -2,3 C 1,6 km/h (1 Bft) 91,30 %
09.03.2021 08:13 -2,3 C -0,6 C -0,6 C 0,6 C 82 % 200 cb 4 cb 1019,6 hPa 0,0 l/m 1,6 km/h (1 Bft) O-SO 112 0 min 0,000 mm 0,5 UV-I 102 W/m -4,9 C -2,3 C 3,2 km/h (1 Bft) 95,65 %
09.03.2021 08:12 -2,3 C -0,6 C -0,6 C 0,6 C 82 % 200 cb 4 cb 1019,5 hPa 0,0 l/m 1,6 km/h (1 Bft) O-SO 112 0 min 0,000 mm 0,5 UV-I 102 W/m -4,9 C -2,3 C 3,2 km/h (1 Bft) 95,65 %
09.03.2021 08:11 -2,3 C -0,6 C -0,6 C 0,6 C 82 % 200 cb 4 cb 1019,6 hPa 0,0 l/m 1,6 km/h (1 Bft) O 90 0 min 0,000 mm 0,5 UV-I 98 W/m -4,9 C -2,3 C 3,2 km/h (1 Bft) 82,61 %
09.03.2021 08:10 -2,3 C -0,6 C -0,6 C 0,6 C 83 % 200 cb 4 cb 1019,6 hPa 0,0 l/m 1,6 km/h (1 Bft) O-SO 112 0 min 0,000 mm 0,5 UV-I 98 W/m -4,8 C -2,3 C 3,2 km/h (1 Bft) 95,65 %
09.03.2021 08:09 -2,3 C -0,6 C -0,6 C 0,6 C 84 % 200 cb 4 cb 1019,5 hPa 0,0 l/m 1,6 km/h (1 Bft) O-SO 112 0 min 0,000 mm 0,5 UV-I 97 W/m -4,6 C -2,3 C 3,2 km/h (1 Bft) 95,65 %
09.03.2021 08:08 -2,4 C -0,6 C -0,6 C 0,6 C 83 % 200 cb 4 cb 1019,5 hPa 0,0 l/m 1,6 km/h (1 Bft) O 90 0 min 0,000 mm 0,5 UV-I 95 W/m -4,9 C -2,4 C 3,2 km/h (1 Bft) 86,96 %
09.03.2021 08:07 -2,4 C -0,6 C -0,6 C 0,6 C 83 % 200 cb 4 cb 1019,6 hPa 0,0 l/m 1,6 km/h (1 Bft) SO 135 0 min 0,000 mm 0,5 UV-I 95 W/m -4,9 C -2,4 C 3,2 km/h (1 Bft) 95,65 %
09.03.2021 08:06 -2,4 C -0,6 C -0,6 C 0,6 C 83 % 200 cb 4 cb 1019,6 hPa 0,0 l/m 1,6 km/h (1 Bft) O-SO 112 0 min 0,000 mm 0,0 UV-I 95 W/m -4,9 C -2,4 C 3,2 km/h (1 Bft) 91,30 %
09.03.2021 08:05 -2,4 C -0,6 C -0,6 C 0,6 C 84 % 200 cb 4 cb 1019,6 hPa 0,0 l/m 1,6 km/h (1 Bft) O-SO 112 0 min 0,000 mm 0,0 UV-I 95 W/m -4,7 C -2,4 C 3,2 km/h (1 Bft) 95,65 %
09.03.2021 08:04 -2,4 C -0,6 C -0,6 C 0,6 C 84 % 200 cb 4 cb 1019,6 hPa 0,0 l/m 1,6 km/h (1 Bft) SO 135 0 min 0,000 mm 0,0 UV-I 95 W/m -4,7 C -2,4 C 3,2 km/h (1 Bft) 95,65 %
09.03.2021 08:03 -2,4 C -0,6 C -0,6 C 0,6 C 84 % 200 cb 4 cb 1019,6 hPa 0,0 l/m 1,6 km/h (1 Bft) O-SO 112 0 min 0,000 mm 0,0 UV-I 93 W/m -4,7 C -2,4 C 3,2 km/h (1 Bft) 95,65 %
09.03.2021 08:02 -2,4 C -0,6 C -0,6 C 0,6 C 84 % 200 cb 4 cb 1019,5 hPa 0,0 l/m 0,0 km/h (0 Bft) NO 45 0 min 0,000 mm 0,0 UV-I 90 W/m -4,7 C -2,4 C 1,6 km/h (1 Bft) 91,30 %
09.03.2021 08:01 -2,5 C -0,6 C -0,6 C 0,6 C 84 % 200 cb 4 cb 1019,5 hPa 0,0 l/m 1,6 km/h (1 Bft) W-NW 292 0 min 0,000 mm 0,0 UV-I 90 W/m -4,8 C -2,5 C 3,2 km/h (1 Bft) 95,65 %
09.03.2021 08:00 -2,5 C -0,6 C -0,6 C 0,6 C 84 % 200 cb 4 cb 1019,5 hPa 0,0 l/m 1,6 km/h (1 Bft) W-NW 292 0 min 0,025 mm 0,0 UV-I 90 W/m -4,8 C -2,5 C 1,6 km/h (1 Bft) 91,30 %
09.03.2021 07:59 -2,6 C -0,6 C -0,6 C 0,6 C 84 % 200 cb 4 cb 1019,6 hPa 0,0 l/m 0,0 km/h (0 Bft) N 360 0 min 0,000 mm 0,0 UV-I 88 W/m -4,9 C -2,6 C 1,6 km/h (1 Bft) 95,65 %
09.03.2021 07:58 -2,6 C -0,6 C -0,6 C 0,6 C 84 % 200 cb 4 cb 1019,6 hPa 0,0 l/m 0,0 km/h (0 Bft) O 90 0 min 0,000 mm 0,0 UV-I 88 W/m -4,9 C -2,6 C 1,6 km/h (1 Bft) 95,65 %
09.03.2021 07:57 -2,6 C -0,6 C -0,6 C 0,6 C 84 % 200 cb 4 cb 1019,5 hPa 0,0 l/m 1,6 km/h (1 Bft) SO 135 0 min 0,000 mm 0,0 UV-I 86 W/m -4,9 C -2,6 C 3,2 km/h (1 Bft) 95,65 %
09.03.2021 07:56 -2,6 C -0,6 C -0,6 C 0,6 C 85 % 200 cb 4 cb 1019,5 hPa 0,0 l/m 1,6 km/h (1 Bft) SO 135 0 min 0,000 mm 0,0 UV-I 84 W/m -4,8 C -2,6 C 3,2 km/h (1 Bft) 95,65 %
09.03.2021 07:55 -2,7 C -0,6 C -0,6 C 0,6 C 84 % 200 cb 4 cb 1019,5 hPa 0,0 l/m 1,6 km/h (1 Bft) SO 135 0 min 0,000 mm 0,0 UV-I 83 W/m -5,0 C -2,7 C 1,6 km/h (1 Bft) 91,30 %
09.03.2021 07:54 -2,7 C -0,6 C -0,6 C 0,6 C 84 % 200 cb 4 cb 1019,6 hPa 0,0 l/m 1,6 km/h (1 Bft) SO 135 0 min 0,000 mm 0,0 UV-I 83 W/m -5,0 C -2,7 C 3,2 km/h (1 Bft) 95,65 %
09.03.2021 07:53 -2,7 C -0,6 C -0,6 C 0,6 C 85 % 200 cb 4 cb 1019,6 hPa 0,0 l/m 1,6 km/h (1 Bft) SO 135 0 min 0,000 mm 0,0 UV-I 81 W/m -4,9 C -2,7 C 1,6 km/h (1 Bft) 95,65 %
09.03.2021 07:52 -2,7 C -0,6 C -0,6 C 0,6 C 84 % 200 cb 4 cb 1019,5 hPa 0,0 l/m 0,0 km/h (0 Bft) S 180 0 min 0,000 mm 0,0 UV-I 81 W/m -5,0 C -2,7 C 1,6 km/h (1 Bft) 95,65 %
09.03.2021 07:51 -2,7 C -0,6 C -0,6 C 0,6 C 85 % 200 cb 4 cb 1019,6 hPa 0,0 l/m 1,6 km/h (1 Bft) W-NW 292 0 min 0,000 mm 0,0 UV-I 83 W/m -4,9 C -2,7 C 1,6 km/h (1 Bft) 95,65 %
09.03.2021 07:50 -2,7 C -0,6 C -0,6 C 0,6 C 85 % 200 cb 4 cb 1019,5 hPa 0,0 l/m 1,6 km/h (1 Bft) W-NW 292 0 min 0,000 mm 0,0 UV-I 84 W/m -4,9 C -2,7 C 1,6 km/h (1 Bft) 91,30 %
09.03.2021 07:49 -2,8 C -0,6 C -0,6 C 0,6 C 85 % 200 cb 4 cb 1019,5 hPa 0,0 l/m 1,6 km/h (1 Bft) W-NW 292 0 min 0,000 mm 0,0 UV-I 86 W/m -5,0 C -2,8 C 1,6 km/h (1 Bft) 91,30 %
09.03.2021 07:48 -2,8 C -0,6 C -0,6 C 0,6 C 85 % 200 cb 4 cb 1019,5 hPa 0,0 l/m 1,6 km/h (1 Bft) W-NW 292 0 min 0,000 mm 0,0 UV-I 86 W/m -5,0 C -2,8 C 1,6 km/h (1 Bft) 95,65 %
09.03.2021 07:47 -2,8 C -0,6 C -0,6 C 0,6 C 85 % 200 cb 4 cb 1019,6 hPa 0,0 l/m 1,6 km/h (1 Bft) NW 315 0 min 0,000 mm 0,0 UV-I 84 W/m -5,0 C -2,8 C 1,6 km/h (1 Bft) 95,65 %
09.03.2021 07:46 -2,8 C -0,6 C -0,6 C 0,6 C 85 % 200 cb 4 cb 1019,5 hPa 0,0 l/m 0,0 km/h (0 Bft) O 90 0 min 0,000 mm 0,0 UV-I 84 W/m -5,0 C -2,8 C 1,6 km/h (1 Bft) 95,65 %
09.03.2021 07:45 -2,8 C -0,6 C -0,6 C 0,6 C 85 % 200 cb 4 cb 1019,5 hPa 0,0 l/m 1,6 km/h (1 Bft) SO 135 0 min 0,000 mm 0,0 UV-I 81 W/m -5,0 C -2,8 C 1,6 km/h (1 Bft) 95,65 %
09.03.2021 07:44 -2,8 C -0,6 C -0,6 C 0,6 C 85 % 200 cb 4 cb 1019,5 hPa 0,0 l/m 0,0 km/h (0 Bft) NW 315 0 min 0,000 mm 0,0 UV-I 81 W/m -5,0 C -2,8 C 1,6 km/h (1 Bft) 91,30 %
09.03.2021 07:43 -2,9 C -1,1 C -0,6 C 0,6 C 85 % 200 cb 4 cb 1019,4 hPa 0,0 l/m 0,0 km/h (0 Bft) N 360 0 min 0,000 mm 0,0 UV-I 79 W/m -5,1 C -2,9 C 1,6 km/h (1 Bft) 95,65 %
09.03.2021 07:42 -2,9 C -1,1 C -0,6 C 0,6 C 86 % 200 cb 4 cb 1019,4 hPa 0,0 l/m 1,6 km/h (1 Bft) W 270 0 min 0,000 mm 0,0 UV-I 79 W/m -4,9 C -2,9 C 1,6 km/h (1 Bft) 95,65 %
09.03.2021 07:41 -2,9 C -1,1 C -0,6 C 0,6 C 86 % 200 cb 4 cb 1019,5 hPa 0,0 l/m 1,6 km/h (1 Bft) W 270 0 min 0,000 mm 0,0 UV-I 79 W/m -4,9 C -2,9 C 1,6 km/h (1 Bft) 95,65 %
09.03.2021 07:40 -2,9 C -1,1 C -0,6 C 0,6 C 87 % 200 cb 4 cb 1019,5 hPa 0,0 l/m 0,0 km/h (0 Bft) W 270 0 min 0,000 mm 0,0 UV-I 77 W/m -4,8 C -2,9 C 1,6 km/h (1 Bft) 95,65 %
09.03.2021 07:39 -3,1 C -1,1 C -0,6 C 0,6 C 87 % 200 cb 4 cb 1019,4 hPa 0,0 l/m 0,0 km/h (0 Bft) NO 45 0 min 0,000 mm 0,0 UV-I 76 W/m -4,9 C -3,1 C 1,6 km/h (1 Bft) 91,30 %
09.03.2021 07:38 -3,1 C -1,1 C -0,6 C 0,6 C 87 % 200 cb 4 cb 1019,5 hPa 0,0 l/m 0,0 km/h (0 Bft) NW 315 0 min 0,000 mm 0,0 UV-I 72 W/m -4,9 C -3,1 C 1,6 km/h (1 Bft) 95,65 %
09.03.2021 07:37 -3,1 C -1,1 C -0,6 C 0,6 C 87 % 200 cb 4 cb 1019,4 hPa 0,0 l/m 1,6 km/h (1 Bft) W-NW 292 0 min 0,000 mm 0,0 UV-I 70 W/m -4,9 C -3,1 C 1,6 km/h (1 Bft) 95,65 %
09.03.2021 07:36 -3,1 C -1,1 C -0,6 C 0,6 C 87 % 200 cb 4 cb 1019,3 hPa 0,0 l/m 1,6 km/h (1 Bft) W-NW 292 0 min 0,000 mm 0,0 UV-I 70 W/m -4,9 C -3,1 C 1,6 km/h (1 Bft) 91,30 %
09.03.2021 07:35 -3,1 C -1,1 C -0,6 C 0,6 C 87 % 200 cb 4 cb 1019,3 hPa 0,0 l/m 0,0 km/h (0 Bft) N-NO 22 0 min 0,000 mm 0,0 UV-I 72 W/m -4,9 C -3,1 C 1,6 km/h (1 Bft) 91,30 %
09.03.2021 07:34 -3,2 C -1,1 C -0,6 C 0,6 C 87 % 200 cb 4 cb 1019,4 hPa 0,0 l/m 1,6 km/h (1 Bft) O-SO 112 0 min 0,000 mm 0,0 UV-I 72 W/m -5,0 C -3,2 C 1,6 km/h (1 Bft) 95,65 %
09.03.2021 07:33 -3,2 C -1,1 C -0,6 C 0,6 C 87 % 200 cb 4 cb 1019,3 hPa 0,0 l/m 1,6 km/h (1 Bft) SO 135 0 min 0,000 mm 0,0 UV-I 72 W/m -5,0 C -3,2 C 3,2 km/h (1 Bft) 91,30 %
09.03.2021 07:32 -3,2 C -1,1 C -0,6 C 0,6 C 88 % 200 cb 4 cb 1019,3 hPa 0,0 l/m 1,6 km/h (1 Bft) SO 135 0 min 0,000 mm 0,0 UV-I 72 W/m -4,9 C -3,2 C 3,2 km/h (1 Bft) 91,30 %
09.03.2021 07:31 -3,2 C -1,1 C -0,6 C 0,6 C 88 % 200 cb 4 cb 1019,4 hPa 0,0 l/m 1,6 km/h (1 Bft) O 90 0 min 0,000 mm 0,0 UV-I 72 W/m -4,9 C -3,2 C 1,6 km/h (1 Bft) 95,65 %
09.03.2021 07:30 -3,2 C -1,1 C -0,6 C 0,6 C 88 % 200 cb 4 cb 1019,3 hPa 0,0 l/m 1,6 km/h (1 Bft) NW 315 0 min 0,000 mm 0,0 UV-I 72 W/m -4,9 C -3,2 C 1,6 km/h (1 Bft) 91,30 %
09.03.2021 07:29 -3,2 C -1,1 C -0,6 C 0,6 C 87 % 200 cb 4 cb 1019,3 hPa 0,0 l/m 0,0 km/h (0 Bft) NW 315 0 min 0,000 mm 0,0 UV-I 72 W/m -5,0 C -3,2 C 1,6 km/h (1 Bft) 91,30 %
09.03.2021 07:28 -3,2 C -1,1 C -0,6 C 0,6 C 88 % 200 cb 4 cb 1019,3 hPa 0,0 l/m 0,0 km/h (0 Bft) SW 225 0 min 0,000 mm 0,0 UV-I 70 W/m -4,9 C -3,2 C 1,6 km/h (1 Bft) 91,30 %
09.03.2021 07:27 -3,2 C -1,1 C -0,6 C 0,6 C 87 % 200 cb 4 cb 1019,3 hPa 0,0 l/m 0,0 km/h (0 Bft) NO 45 0 min 0,000 mm 0,0 UV-I 69 W/m -5,0 C -3,2 C 1,6 km/h (1 Bft) 91,30 %
09.03.2021 07:26 -3,2 C -1,1 C -0,6 C 0,6 C 88 % 200 cb 4 cb 1019,4 hPa 0,0 l/m 0,0 km/h (0 Bft) W 270 0 min 0,000 mm 0,0 UV-I 67 W/m -4,9 C -3,2 C 1,6 km/h (1 Bft) 95,65 %
09.03.2021 07:25 -3,3 C -1,1 C -0,6 C 0,6 C 88 % 200 cb 4 cb 1019,3 hPa 0,0 l/m 1,6 km/h (1 Bft) W 270 0 min 0,000 mm 0,0 UV-I 65 W/m -5,0 C -3,3 C 1,6 km/h (1 Bft) 95,65 %
09.03.2021 07:24 -3,3 C -1,1 C -0,6 C 0,6 C 88 % 200 cb 4 cb 1019,4 hPa 0,0 l/m 1,6 km/h (1 Bft) N-NW 337 0 min 0,000 mm 0,0 UV-I 63 W/m -5,0 C -3,3 C 3,2 km/h (1 Bft) 91,30 %
09.03.2021 07:23 -3,4 C -1,7 C -0,6 C 0,6 C 88 % 200 cb 4 cb 1019,3 hPa 0,0 l/m 1,6 km/h (1 Bft) N 360 0 min 0,000 mm 0,0 UV-I 62 W/m -5,1 C -3,4 C 3,2 km/h (1 Bft) 91,30 %
09.03.2021 07:22 -3,4 C -1,7 C -0,6 C 0,6 C 88 % 200 cb 4 cb 1019,4 hPa 0,0 l/m 1,6 km/h (1 Bft) N-NO 22 0 min 0,000 mm 0,0 UV-I 60 W/m -5,1 C -3,4 C 1,6 km/h (1 Bft) 91,30 %
09.03.2021 07:21 -3,4 C -1,7 C -0,6 C 0,6 C 88 % 200 cb 4 cb 1019,3 hPa 0,0 l/m 1,6 km/h (1 Bft) N 360 0 min 0,000 mm 0,0 UV-I 56 W/m -5,1 C -3,4 C 1,6 km/h (1 Bft) 95,65 %
09.03.2021 07:20 -3,4 C -1,7 C -0,6 C 0,6 C 88 % 200 cb 4 cb 1019,3 hPa 0,0 l/m 1,6 km/h (1 Bft) NO 45 0 min 0,000 mm 0,0 UV-I 56 W/m -5,1 C -3,4 C 1,6 km/h (1 Bft) 95,65 %
09.03.2021 07:19 -3,4 C -1,7 C -0,6 C 0,6 C 87 % 200 cb 4 cb 1019,3 hPa 0,0 l/m 1,6 km/h (1 Bft) NO 45 0 min 0,000 mm 0,0 UV-I 54 W/m -5,2 C -3,4 C 1,6 km/h (1 Bft) 95,65 %
09.03.2021 07:18 -3,5 C -1,7 C -0,6 C 0,6 C 87 % 200 cb 4 cb 1019,3 hPa 0,0 l/m 1,6 km/h (1 Bft) N-NW 337 0 min 0,000 mm 0,0 UV-I 53 W/m -5,3 C -3,5 C 3,2 km/h (1 Bft) 95,65 %
09.03.2021 07:17 -3,5 C -1,7 C -0,6 C 0,6 C 88 % 200 cb 4 cb 1019,3 hPa 0,0 l/m 1,6 km/h (1 Bft) W 270 0 min 0,000 mm 0,0 UV-I 53 W/m -5,2 C -3,5 C 3,2 km/h (1 Bft) 86,96 %
09.03.2021 07:16 -3,6 C -1,7 C -0,6 C 0,6 C 88 % 200 cb 4 cb 1019,3 hPa 0,0 l/m 3,2 km/h (1 Bft) N-NW 337 0 min 0,000 mm 0,0 UV-I 53 W/m -5,3 C -3,6 C 3,2 km/h (1 Bft) 95,65 %
09.03.2021 07:15 -3,7 C -1,7 C -1,1 C 0,6 C 88 % 200 cb 4 cb 1019,4 hPa 0,0 l/m 1,6 km/h (1 Bft) NW 315 0 min 0,000 mm 0,0 UV-I 51 W/m -5,4 C -3,7 C 1,6 km/h (1 Bft) 95,65 %
09.03.2021 07:14 -3,7 C -2,2 C -1,1 C 0,6 C 88 % 200 cb 4 cb 1019,4 hPa 0,0 l/m 0,0 km/h (0 Bft) W 270 0 min 0,000 mm 0,0 UV-I 51 W/m -5,4 C -3,7 C 1,6 km/h (1 Bft) 95,65 %
09.03.2021 07:13 -3,7 C -2,2 C -1,1 C 0,6 C 88 % 200 cb 4 cb 1019,4 hPa 0,0 l/m 1,6 km/h (1 Bft) N 360 0 min 0,000 mm 0,0 UV-I 51 W/m -5,4 C -3,7 C 1,6 km/h (1 Bft) 95,65 %
09.03.2021 07:12 -3,8 C -2,2 C -1,1 C 0,6 C 88 % 200 cb 4 cb 1019,4 hPa 0,0 l/m 1,6 km/h (1 Bft) SO 135 0 min 0,000 mm 0,0 UV-I 51 W/m -5,5 C -3,8 C 1,6 km/h (1 Bft) 95,65 %
09.03.2021 07:11 -3,8 C -2,2 C -1,1 C 0,6 C 88 % 200 cb 4 cb 1019,3 hPa 0,0 l/m 1,6 km/h (1 Bft) SO 135 0 min 0,000 mm 0,0 UV-I 51 W/m -5,5 C -3,8 C 1,6 km/h (1 Bft) 82,61 %
09.03.2021 07:10 -3,8 C -2,2 C -1,1 C 0,6 C 88 % 200 cb 4 cb 1019,4 hPa 0,0 l/m 1,6 km/h (1 Bft) O-SO 112 0 min 0,000 mm 0,0 UV-I 49 W/m -5,5 C -3,8 C 3,2 km/h (1 Bft) 95,65 %
09.03.2021 07:09 -3,8 C -2,2 C -1,1 C 0,6 C 88 % 200 cb 4 cb 1019,3 hPa 0,0 l/m 1,6 km/h (1 Bft) SO 135 0 min 0,000 mm 0,0 UV-I 47 W/m -5,5 C -3,8 C 3,2 km/h (1 Bft) 95,65 %
09.03.2021 07:08 -3,8 C -2,2 C -1,1 C 0,6 C 88 % 200 cb 4 cb 1019,3 hPa 0,0 l/m 3,2 km/h (1 Bft) SO 135 0 min 0,000 mm 0,0 UV-I 46 W/m -5,5 C -3,8 C 3,2 km/h (1 Bft) 95,65 %
09.03.2021 07:07 -3,8 C -2,2 C -1,1 C 0,6 C 88 % 200 cb 4 cb 1019,3 hPa 0,0 l/m 1,6 km/h (1 Bft) SO 135 0 min 0,000 mm 0,0 UV-I 44 W/m -5,5 C -3,8 C 3,2 km/h (1 Bft) 95,65 %
09.03.2021 07:06 -3,8 C -2,2 C -1,1 C 0,6 C 88 % 200 cb 4 cb 1019,4 hPa 0,0 l/m 3,2 km/h (1 Bft) O-SO 112 0 min 0,000 mm 0,0 UV-I 42 W/m -5,5 C -3,8 C 4,8 km/h (1 Bft) 91,30 %
09.03.2021 07:05 -3,8 C -2,2 C -1,1 C 0,6 C 88 % 200 cb 4 cb 1019,4 hPa 0,0 l/m 3,2 km/h (1 Bft) O-SO 112 0 min 0,000 mm 0,0 UV-I 40 W/m -5,5 C -3,8 C 4,8 km/h (1 Bft) 95,65 %
09.03.2021 07:04 -3,8 C -2,2 C -1,1 C 0,6 C 88 % 200 cb 4 cb 1019,3 hPa 0,0 l/m 3,2 km/h (1 Bft) O-SO 112 0 min 0,000 mm 0,0 UV-I 39 W/m -5,5 C -3,8 C 3,2 km/h (1 Bft) 95,65 %
09.03.2021 07:03 -3,8 C -2,2 C -1,1 C 0,6 C 88 % 200 cb 4 cb 1019,3 hPa 0,0 l/m 1,6 km/h (1 Bft) SO 135 0 min 0,000 mm 0,0 UV-I 39 W/m -5,5 C -3,8 C 1,6 km/h (1 Bft) 95,65 %
09.03.2021 07:02 -3,7 C -2,2 C -1,1 C 0,6 C 88 % 200 cb 4 cb 1019,3 hPa 0,0 l/m 1,6 km/h (1 Bft) S-SO 157 0 min 0,000 mm 0,0 UV-I 35 W/m -5,4 C -3,7 C 1,6 km/h (1 Bft) 95,65 %
09.03.2021 07:01 -3,8 C -2,2 C -1,1 C 0,6 C 88 % 200 cb 4 cb 1019,3 hPa 0,0 l/m 0,0 km/h (0 Bft) S 180 0 min 0,000 mm 0,0 UV-I 35 W/m -5,5 C -3,8 C 1,6 km/h (1 Bft) 95,65 %
09.03.2021 07:00 -3,7 C -2,2 C -1,1 C 0,6 C 88 % 200 cb 4 cb 1019,3 hPa 0,0 l/m 0,0 km/h (0 Bft) S 180 0 min 0,000 mm 0,0 UV-I 33 W/m -5,4 C -3,7 C 1,6 km/h (1 Bft) 91,30 %
09.03.2021 06:59 -3,8 C -2,2 C -1,1 C 0,6 C 88 % 200 cb 4 cb 1019,3 hPa 0,0 l/m 0,0 km/h (0 Bft) S 180 0 min 0,000 mm 0,0 UV-I 33 W/m -5,5 C -3,8 C 1,6 km/h (1 Bft) 95,65 %
09.03.2021 06:58 -3,7 C -2,2 C -1,1 C 0,6 C 88 % 200 cb 4 cb 1019,3 hPa 0,0 l/m 1,6 km/h (1 Bft) N 360 0 min 0,000 mm 0,0 UV-I 32 W/m -5,4 C -3,7 C 1,6 km/h (1 Bft) 91,30 %
09.03.2021 06:57 -3,8 C -2,2 C -1,1 C 0,6 C 88 % 200 cb 4 cb 1019,4 hPa 0,0 l/m 1,6 km/h (1 Bft) N 360 0 min 0,000 mm 0,0 UV-I 32 W/m -5,5 C -3,8 C 3,2 km/h (1 Bft) 95,65 %
09.03.2021 06:56 -3,8 C -2,2 C -1,1 C 0,6 C 88 % 200 cb 4 cb 1019,4 hPa 0,0 l/m 1,6 km/h (1 Bft) O 90 0 min 0,000 mm 0,0 UV-I 32 W/m -5,5 C -3,8 C 3,2 km/h (1 Bft) 91,30 %
09.03.2021 06:55 -3,8 C -2,8 C -1,1 C 0,6 C 88 % 200 cb 4 cb 1019,4 hPa 0,0 l/m 1,6 km/h (1 Bft) O 90 0 min 0,000 mm 0,0 UV-I 32 W/m -5,5 C -3,8 C 1,6 km/h (1 Bft) 91,30 %
09.03.2021 06:54 -3,8 C -2,2 C -1,1 C 0,6 C 88 % 200 cb 4 cb 1019,4 hPa 0,0 l/m 0,0 km/h (0 Bft) SO 135 0 min 0,000 mm 0,0 UV-I 30 W/m -5,5 C -3,8 C 1,6 km/h (1 Bft) 95,65 %
09.03.2021 06:53 -3,8 C -2,2 C -1,1 C 0,6 C 88 % 200 cb 4 cb 1019,4 hPa 0,0 l/m 1,6 km/h (1 Bft) SO 135 0 min 0,000 mm 0,0 UV-I 30 W/m -5,5 C -3,8 C 1,6 km/h (1 Bft) 91,30 %
09.03.2021 06:52 -3,7 C -2,2 C -1,1 C 0,6 C 88 % 200 cb 4 cb 1019,4 hPa 0,0 l/m 1,6 km/h (1 Bft) SO 135 0 min 0,000 mm 0,0 UV-I 28 W/m -5,4 C -3,7 C 3,2 km/h (1 Bft) 95,65 %
09.03.2021 06:51 -3,8 C -2,8 C -1,1 C 0,6 C 88 % 200 cb 4 cb 1019,4 hPa 0,0 l/m 1,6 km/h (1 Bft) S-SO 157 0 min 0,000 mm 0,0 UV-I 26 W/m -5,5 C -3,8 C 1,6 km/h (1 Bft) 91,30 %
09.03.2021 06:50 -3,8 C -2,8 C -1,1 C 0,6 C 88 % 200 cb 4 cb 1019,4 hPa 0,0 l/m 0,0 km/h (0 Bft) S 180 0 min 0,000 mm 0,0 UV-I 26 W/m -5,5 C -3,8 C 1,6 km/h (1 Bft) 95,65 %
09.03.2021 06:49 -3,8 C -2,8 C -1,1 C 0,6 C 88 % 200 cb 4 cb 1019,4 hPa 0,0 l/m 0,0 km/h (0 Bft) SO 135 0 min 0,000 mm 0,0 UV-I 25 W/m -5,5 C -3,8 C 1,6 km/h (1 Bft) 86,96 %
09.03.2021 06:48 -3,8 C -2,8 C -1,1 C 0,6 C 89 % 200 cb 4 cb 1019,4 hPa 0,0 l/m 0,0 km/h (0 Bft) SO 135 0 min 0,000 mm 0,0 UV-I 23 W/m -5,3 C -3,8 C 1,6 km/h (1 Bft) 95,65 %
09.03.2021 06:47 -3,8 C -2,8 C -1,1 C 0,6 C 88 % 200 cb 4 cb 1019,5 hPa 0,0 l/m 1,6 km/h (1 Bft) NO 45 0 min 0,000 mm 0,0 UV-I 21 W/m -5,5 C -3,8 C 1,6 km/h (1 Bft) 91,30 %
09.03.2021 06:46 -3,8 C -2,8 C -1,1 C 0,6 C 88 % 200 cb 4 cb 1019,4 hPa 0,0 l/m 1,6 km/h (1 Bft) N 360 0 min 0,000 mm 0,0 UV-I 21 W/m -5,5 C -3,8 C 3,2 km/h (1 Bft) 95,65 %
09.03.2021 06:45 -3,8 C -2,8 C -1,1 C 0,6 C 88 % 200 cb 4 cb 1019,4 hPa 0,0 l/m 1,6 km/h (1 Bft) N 360 0 min 0,000 mm 0,0 UV-I 18 W/m -5,5 C -3,8 C 3,2 km/h (1 Bft) 91,30 %
09.03.2021 06:44 -3,9 C -2,8 C -1,1 C 0,6 C 88 % 200 cb 4 cb 1019,4 hPa 0,0 l/m 1,6 km/h (1 Bft) N 360 0 min 0,000 mm 0,0 UV-I 18 W/m -5,6 C -3,9 C 1,6 km/h (1 Bft) 86,96 %
09.03.2021 06:43 -3,9 C -2,8 C -1,1 C 0,6 C 88 % 200 cb 4 cb 1019,4 hPa 0,0 l/m 1,6 km/h (1 Bft) NO 45 0 min 0,000 mm 0,0 UV-I 16 W/m -5,6 C -3,9 C 1,6 km/h (1 Bft) 86,96 %
09.03.2021 06:42 -3,9 C -2,8 C -1,1 C 0,6 C 88 % 200 cb 4 cb 1019,4 hPa 0,0 l/m 1,6 km/h (1 Bft) O 90 0 min 0,000 mm 0,0 UV-I 14 W/m -5,6 C -3,9 C 3,2 km/h (1 Bft) 95,65 %
09.03.2021 06:41 -3,9 C -2,8 C -1,1 C 0,6 C 88 % 200 cb 4 cb 1019,5 hPa 0,0 l/m 1,6 km/h (1 Bft) O 90 0 min 0,000 mm 0,0 UV-I 14 W/m -5,6 C -3,9 C 3,2 km/h (1 Bft) 91,30 %
09.03.2021 06:40 -3,9 C -2,8 C -1,1 C 0,6 C 88 % 200 cb 4 cb 1019,5 hPa 0,0 l/m 1,6 km/h (1 Bft) O-SO 112 0 min 0,000 mm 0,0 UV-I 12 W/m -5,6 C -3,9 C 3,2 km/h (1 Bft) 95,65 %
09.03.2021 06:39 -3,9 C -2,8 C -1,1 C 0,6 C 88 % 200 cb 4 cb 1019,5 hPa 0,0 l/m 1,6 km/h (1 Bft) SO 135 0 min 0,000 mm 0,0 UV-I 12 W/m -5,6 C -3,9 C 3,2 km/h (1 Bft) 91,30 %
09.03.2021 06:38 -3,9 C -2,8 C -1,1 C 0,6 C 88 % 200 cb 4 cb 1019,5 hPa 0,0 l/m 1,6 km/h (1 Bft) S-SO 157 0 min 0,000 mm 0,0 UV-I 11 W/m -5,6 C -3,9 C 1,6 km/h (1 Bft) 91,30 %
09.03.2021 06:37 -3,9 C -3,3 C -1,1 C 0,6 C 88 % 200 cb 4 cb 1019,5 hPa 0,0 l/m 1,6 km/h (1 Bft) SO 135 0 min 0,000 mm 0,0 UV-I 11 W/m -5,6 C -3,9 C 3,2 km/h (1 Bft) 86,96 %
09.03.2021 06:36 -3,9 C -2,8 C -1,1 C 0,6 C 88 % 200 cb 4 cb 1019,6 hPa 0,0 l/m 1,6 km/h (1 Bft) SO 135 0 min 0,000 mm 0,0 UV-I 9 W/m -5,6 C -3,9 C 1,6 km/h (1 Bft) 95,65 %
09.03.2021 06:35 -3,9 C -2,8 C -1,7 C 0,6 C 88 % 200 cb 4 cb 1019,5 hPa 0,0 l/m 1,6 km/h (1 Bft) SO 135 0 min 0,000 mm 0,0 UV-I 9 W/m -5,6 C -3,9 C 3,2 km/h (1 Bft) 91,30 %
09.03.2021 06:34 -3,9 C -2,8 C -1,7 C 0,6 C 88 % 200 cb 4 cb 1019,5 hPa 0,0 l/m 1,6 km/h (1 Bft) O-SO 112 0 min 0,000 mm 0,0 UV-I 7 W/m -5,6 C -3,9 C 1,6 km/h (1 Bft) 91,30 %
09.03.2021 06:33 -3,9 C -2,8 C -1,1 C 0,6 C 88 % 200 cb 4 cb 1019,4 hPa 0,0 l/m 1,6 km/h (1 Bft) O-SO 112 0 min 0,000 mm 0,0 UV-I 7 W/m -5,6 C -3,9 C 1,6 km/h (1 Bft) 91,30 %
09.03.2021 06:32 -3,8 C -2,8 C -1,1 C 0,6 C 88 % 200 cb 4 cb 1019,4 hPa 0,0 l/m 1,6 km/h (1 Bft) O-SO 112 0 min 0,000 mm 0,0 UV-I 7 W/m -5,5 C -3,8 C 1,6 km/h (1 Bft) 86,96 %
09.03.2021 06:31 -3,8 C -2,8 C -1,1 C 0,6 C 88 % 200 cb 4 cb 1019,5 hPa 0,0 l/m 1,6 km/h (1 Bft) O 90 0 min 0,000 mm 0,0 UV-I 5 W/m -5,5 C -3,8 C 1,6 km/h (1 Bft) 95,65 %
09.03.2021 06:30 -3,7 C -2,8 C -1,1 C 0,6 C 88 % 200 cb 4 cb 1019,5 hPa 0,0 l/m 1,6 km/h (1 Bft) O 90 0 min 0,000 mm 0,0 UV-I 5 W/m -5,4 C -3,7 C 1,6 km/h (1 Bft) 91,30 %
09.03.2021 06:29 -3,7 C -2,8 C -1,1 C 0,6 C 88 % 200 cb 4 cb 1019,6 hPa 0,0 l/m 0,0 km/h (0 Bft) N 360 0 min 0,000 mm 0,0 UV-I 5 W/m -5,4 C -3,7 C 1,6 km/h (1 Bft) 95,65 %
09.03.2021 06:28 -3,7 C -2,8 C -1,1 C 0,6 C 88 % 200 cb 4 cb 1019,6 hPa 0,0 l/m 0,0 km/h (0 Bft) NO 45 0 min 0,000 mm 0,0 UV-I 0 W/m -5,4 C -3,7 C 1,6 km/h (1 Bft) 86,96 %
09.03.2021 06:27 -3,8 C -2,8 C -1,1 C 0,6 C 88 % 200 cb 4 cb 1019,5 hPa 0,0 l/m 1,6 km/h (1 Bft) W 270 0 min 0,000 mm 0,0 UV-I 0 W/m -5,5 C -3,8 C 3,2 km/h (1 Bft) 91,30 %
09.03.2021 06:26 -3,8 C -2,8 C -1,1 C 0,6 C 88 % 200 cb 4 cb 1019,6 hPa 0,0 l/m 1,6 km/h (1 Bft) NW 315 0 min 0,000 mm 0,0 UV-I 0 W/m -5,5 C -3,8 C 3,2 km/h (1 Bft) 95,65 %
09.03.2021 06:25 -3,8 C -2,8 C -1,1 C 0,6 C 88 % 200 cb 4 cb 1019,6 hPa 0,0 l/m 1,6 km/h (1 Bft) N-NW 337 0 min 0,000 mm 0,0 UV-I 0 W/m -5,5 C -3,8 C 3,2 km/h (1 Bft) 95,65 %
09.03.2021 06:24 -3,8 C -2,8 C -1,1 C 0,6 C 88 % 200 cb 4 cb 1019,5 hPa 0,0 l/m 1,6 km/h (1 Bft) N-NW 337 0 min 0,000 mm 0,0 UV-I 0 W/m -5,5 C -3,8 C 3,2 km/h (1 Bft) 95,65 %
09.03.2021 06:23 -3,8 C -2,8 C -1,1 C 0,6 C 88 % 200 cb 4 cb 1019,7 hPa 0,0 l/m 1,6 km/h (1 Bft) W-NW 292 0 min 0,000 mm 0,0 UV-I 0 W/m -5,5 C -3,8 C 3,2 km/h (1 Bft) 95,65 %
09.03.2021 06:22 -3,8 C -2,8 C -1,7 C 0,6 C 88 % 200 cb 4 cb 1019,7 hPa 0,0 l/m 1,6 km/h (1 Bft) N 360 0 min 0,000 mm 0,0 UV-I 0 W/m -5,5 C -3,8 C 1,6 km/h (1 Bft) 86,96 %
09.03.2021 06:21 -3,8 C -2,8 C -1,1 C 0,6 C 88 % 200 cb 4 cb 1019,7 hPa 0,0 l/m 1,6 km/h (1 Bft) N 360 0 min 0,000 mm 0,0 UV-I 0 W/m -5,5 C -3,8 C 3,2 km/h (1 Bft) 95,65 %
09.03.2021 06:20 -3,8 C -2,8 C -1,1 C 0,6 C 88 % 200 cb 4 cb 1019,7 hPa 0,0 l/m 1,6 km/h (1 Bft) W 270 0 min 0,000 mm 0,0 UV-I 0 W/m -5,5 C -3,8 C 3,2 km/h (1 Bft) 91,30 %
09.03.2021 06:19 -3,8 C -2,8 C -1,1 C 0,6 C 88 % 200 cb 4 cb 1019,7 hPa 0,0 l/m 1,6 km/h (1 Bft) N-NW 337 0 min 0,000 mm 0,0 UV-I 0 W/m -5,5 C -3,8 C 3,2 km/h (1 Bft) 95,65 %
09.03.2021 06:18 -3,9 C -2,8 C -1,1 C 0,6 C 88 % 200 cb 4 cb 1019,6 hPa 0,0 l/m 1,6 km/h (1 Bft) N-NW 337 0 min 0,000 mm 0,0 UV-I 0 W/m -5,6 C -3,9 C 3,2 km/h (1 Bft) 91,30 %
09.03.2021 06:17 -3,9 C -2,8 C -1,1 C 0,6 C 88 % 200 cb 4 cb 1019,7 hPa 0,0 l/m 3,2 km/h (1 Bft) NW 315 0 min 0,000 mm 0,0 UV-I 0 W/m -5,6 C -3,9 C 3,2 km/h (1 Bft) 95,65 %
09.03.2021 06:16 -3,9 C -2,8 C -1,1 C 0,6 C 88 % 200 cb 4 cb 1019,8 hPa 0,0 l/m 3,2 km/h (1 Bft) NW 315 0 min 0,000 mm 0,0 UV-I 0 W/m -5,6 C -3,9 C 3,2 km/h (1 Bft) 82,61 %
09.03.2021 06:15 -3,9 C -2,8 C -1,1 C 0,6 C 88 % 200 cb 4 cb 1019,7 hPa 0,0 l/m 1,6 km/h (1 Bft) NW 315 0 min 0,000 mm 0,0 UV-I 0 W/m -5,6 C -3,9 C 3,2 km/h (1 Bft) 95,65 %
09.03.2021 06:14 -4,0 C -2,8 C -1,1 C 0,6 C 89 % 200 cb 4 cb 1019,7 hPa 0,0 l/m 1,6 km/h (1 Bft) NW 315 0 min 0,000 mm 0,0 UV-I 0 W/m -5,5 C -4,0 C 3,2 km/h (1 Bft) 91,30 %
09.03.2021 06:13 -4,0 C -2,8 C -1,1 C 0,6 C 88 % 200 cb 4 cb 1019,6 hPa 0,0 l/m 0,0 km/h (0 Bft) O 90 0 min 0,000 mm 0,0 UV-I 0 W/m -5,7 C -4,0 C 1,6 km/h (1 Bft) 95,65 %
09.03.2021 06:12 -4,1 C -2,8 C -1,1 C 0,6 C 88 % 200 cb 4 cb 1019,7 hPa 0,0 l/m 1,6 km/h (1 Bft) SO 135 0 min 0,000 mm 0,0 UV-I 0 W/m -5,8 C -4,1 C 1,6 km/h (1 Bft) 86,96 %
09.03.2021 06:11 -4,1 C -2,8 C -1,1 C 0,6 C 88 % 200 cb 4 cb 1019,7 hPa 0,0 l/m 0,0 km/h (0 Bft) SO 135 0 min 0,000 mm 0,0 UV-I 0 W/m -5,8 C -4,1 C 3,2 km/h (1 Bft) 91,30 %
09.03.2021 06:10 -4,1 C -2,8 C -1,1 C 0,6 C 88 % 200 cb 4 cb 1019,6 hPa 0,0 l/m 0,0 km/h (0 Bft) O-SO 112 0 min 0,000 mm 0,0 UV-I 0 W/m -5,8 C -4,1 C 1,6 km/h (1 Bft) 91,30 %
09.03.2021 06:09 -4,0 C -3,3 C -1,1 C 0,6 C 88 % 200 cb 4 cb 1019,7 hPa 0,0 l/m 0,0 km/h (0 Bft) W-SW 247 0 min 0,000 mm 0,0 UV-I 0 W/m -5,7 C -4,0 C 1,6 km/h (1 Bft) 91,30 %
09.03.2021 06:08 -4,0 C -3,3 C -1,1 C 0,6 C 88 % 200 cb 4 cb 1019,7 hPa 0,0 l/m 1,6 km/h (1 Bft) W-NW 292 0 min 0,000 mm 0,0 UV-I 0 W/m -5,7 C -4,0 C 1,6 km/h (1 Bft) 86,96 %
09.03.2021 06:07 -4,0 C -3,3 C -1,7 C 0,6 C 88 % 200 cb 4 cb 1019,6 hPa 0,0 l/m 1,6 km/h (1 Bft) W-NW 292 0 min 0,000 mm 0,0 UV-I 0 W/m -5,7 C -4,0 C 3,2 km/h (1 Bft) 95,65 %
09.03.2021 06:06 -4,0 C -2,8 C -1,7 C 0,6 C 88 % 200 cb 4 cb 1019,7 hPa 0,0 l/m 0,0 km/h (0 Bft) N 0 0 min 0,000 mm 0,0 UV-I 0 W/m -5,7 C -4,0 C 0,0 km/h (0 Bft) 86,96 %
09.03.2021 06:05 -4,0 C -2,8 C -1,7 C 0,6 C 88 % 200 cb 4 cb 1019,6 hPa 0,0 l/m 0,0 km/h (0 Bft) NO 45 0 min 0,000 mm 0,0 UV-I 0 W/m -5,7 C -4,0 C 1,6 km/h (1 Bft) 91,30 %
09.03.2021 06:04 -4,0 C -3,3 C -1,7 C 0,6 C 88 % 200 cb 4 cb 1019,6 hPa 0,0 l/m 0,0 km/h (0 Bft) N 360 0 min 0,000 mm 0,0 UV-I 0 W/m -5,7 C -4,0 C 1,6 km/h (1 Bft) 86,96 %
09.03.2021 06:03 -4,0 C -3,3 C -1,7 C 0,6 C 88 % 200 cb 4 cb 1019,7 hPa 0,0 l/m 1,6 km/h (1 Bft) NW 315 0 min 0,000 mm 0,0 UV-I 0 W/m -5,7 C -4,0 C 1,6 km/h (1 Bft) 95,65 %
09.03.2021 06:02 -4,0 C -3,3 C -1,7 C 0,6 C 87 % 200 cb 4 cb 1019,7 hPa 0,0 l/m 1,6 km/h (1 Bft) NW 315 0 min 0,000 mm 0,0 UV-I 0 W/m -5,8 C -4,0 C 3,2 km/h (1 Bft) 86,96 %
09.03.2021 06:01 -3,9 C -3,3 C -1,7 C 0,6 C 88 % 200 cb 4 cb 1019,7 hPa 0,0 l/m 1,6 km/h (1 Bft) W-NW 292 0 min 0,000 mm 0,0 UV-I 0 W/m -5,6 C -3,9 C 3,2 km/h (1 Bft) 91,30 %
09.03.2021 06:00 -3,9 C -3,3 C -1,7 C 0,6 C 88 % 200 cb 4 cb 1019,7 hPa 0,0 l/m 1,6 km/h (1 Bft) W-NW 292 0 min 0,000 mm 0,0 UV-I 0 W/m -5,6 C -3,9 C 3,2 km/h (1 Bft) 86,96 %
09.03.2021 05:59 -3,9 C -2,8 C -1,7 C 0,6 C 87 % 200 cb 4 cb 1019,7 hPa 0,0 l/m 1,6 km/h (1 Bft) SO 135 0 min 0,000 mm 0,0 UV-I 0 W/m -5,7 C -3,9 C 1,6 km/h (1 Bft) 91,30 %
09.03.2021 05:58 -3,9 C -2,8 C -1,7 C 0,6 C 88 % 200 cb 4 cb 1019,8 hPa 0,0 l/m 1,6 km/h (1 Bft) SO 135 0 min 0,000 mm 0,0 UV-I 0 W/m -5,6 C -3,9 C 3,2 km/h (1 Bft) 91,30 %
09.03.2021 05:57 -3,9 C -2,8 C -1,7 C 0,6 C 88 % 200 cb 4 cb 1019,8 hPa 0,0 l/m 3,2 km/h (1 Bft) SO 135 0 min 0,000 mm 0,0 UV-I 0 W/m -5,6 C -3,9 C 3,2 km/h (1 Bft) 91,30 %
09.03.2021 05:56 -3,9 C -3,3 C -1,7 C 0,6 C 88 % 200 cb 4 cb 1019,8 hPa 0,0 l/m 1,6 km/h (1 Bft) S-SO 157 0 min 0,000 mm 0,0 UV-I 0 W/m -5,6 C -3,9 C 3,2 km/h (1 Bft) 91,30 %
09.03.2021 05:55 -3,9 C -3,3 C -1,7 C 0,6 C 87 % 200 cb 4 cb 1019,8 hPa 0,0 l/m 1,6 km/h (1 Bft) S-SO 157 0 min 0,000 mm 0,0 UV-I 0 W/m -5,7 C -3,9 C 1,6 km/h (1 Bft) 95,65 %
09.03.2021 05:54 -3,8 C -2,8 C -1,7 C 0,6 C 87 % 200 cb 4 cb 1019,8 hPa 0,0 l/m 0,0 km/h (0 Bft) S 180 0 min 0,000 mm 0,0 UV-I 0 W/m -5,6 C -3,8 C 1,6 km/h (1 Bft) 86,96 %
09.03.2021 05:53 -3,8 C -3,3 C -1,7 C 0,6 C 87 % 200 cb 4 cb 1019,8 hPa 0,0 l/m 0,0 km/h (0 Bft) S 180 0 min 0,000 mm 0,0 UV-I 0 W/m -5,6 C -3,8 C 1,6 km/h (1 Bft) 95,65 %
09.03.2021 05:52 -3,8 C -2,8 C -1,7 C 0,6 C 88 % 200 cb 4 cb 1019,6 hPa 0,0 l/m 1,6 km/h (1 Bft) NW 315 0 min 0,000 mm 0,0 UV-I 0 W/m -5,5 C -3,8 C 3,2 km/h (1 Bft) 86,96 %
09.03.2021 05:51 -3,8 C -2,8 C -1,7 C 0,6 C 87 % 200 cb 4 cb 1019,8 hPa 0,0 l/m 0,0 km/h (0 Bft) W-NW 292 0 min 0,000 mm 0,0 UV-I 0 W/m -5,6 C -3,8 C 1,6 km/h (1 Bft) 95,65 %
09.03.2021 05:50 -3,8 C -2,8 C -1,7 C 0,6 C 87 % 200 cb 4 cb 1019,8 hPa 0,0 l/m 0,0 km/h (0 Bft) S 180 0 min 0,000 mm 0,0 UV-I 0 W/m -5,6 C -3,8 C 1,6 km/h (1 Bft) 91,30 %
09.03.2021 05:49 -3,8 C -2,8 C -1,7 C 0,6 C 87 % 200 cb 4 cb 1019,8 hPa 0,0 l/m 1,6 km/h (1 Bft) O-SO 112 0 min 0,000 mm 0,0 UV-I 0 W/m -5,6 C -3,8 C 1,6 km/h (1 Bft) 86,96 %
09.03.2021 05:48 -3,7 C -2,8 C -1,7 C 0,6 C 87 % 200 cb 4 cb 1019,7 hPa 0,0 l/m 1,6 km/h (1 Bft) O 90 0 min 0,000 mm 0,0 UV-I 0 W/m -5,5 C -3,7 C 3,2 km/h (1 Bft) 82,61 %
09.03.2021 05:47 -3,7 C -2,8 C -1,1 C 0,6 C 88 % 200 cb 4 cb 1019,8 hPa 0,0 l/m 1,6 km/h (1 Bft) NO 45 0 min 0,000 mm 0,0 UV-I 0 W/m -5,4 C -3,7 C 1,6 km/h (1 Bft) 91,30 %
09.03.2021 05:46 -3,7 C -2,8 C -1,1 C 0,6 C 88 % 200 cb 4 cb 1019,7 hPa 0,0 l/m 1,6 km/h (1 Bft) N-NO 22 0 min 0,000 mm 0,0 UV-I 0 W/m -5,4 C -3,7 C 1,6 km/h (1 Bft) 86,96 %
09.03.2021 05:45 -3,8 C -2,8 C -1,7 C 0,6 C 88 % 200 cb 4 cb 1019,7 hPa 0,0 l/m 1,6 km/h (1 Bft) N 360 0 min 0,000 mm 0,0 UV-I 0 W/m -5,5 C -3,8 C 1,6 km/h (1 Bft) 91,30 %
09.03.2021 05:44 -3,8 C -2,8 C -1,7 C 0,6 C 88 % 200 cb 4 cb 1019,7 hPa 0,0 l/m 1,6 km/h (1 Bft) O 90 0 min 0,000 mm 0,0 UV-I 0 W/m -5,5 C -3,8 C 1,6 km/h (1 Bft) 86,96 %
09.03.2021 05:43 -3,8 C -2,8 C -1,7 C 0,6 C 88 % 200 cb 4 cb 1019,7 hPa 0,0 l/m 1,6 km/h (1 Bft) O 90 0 min 0,000 mm 0,0 UV-I 0 W/m -5,5 C -3,8 C 1,6 km/h (1 Bft) 86,96 %
09.03.2021 05:42 -3,8 C -2,8 C -1,7 C 0,6 C 88 % 200 cb 4 cb 1019,7 hPa 0,0 l/m 1,6 km/h (1 Bft) N 360 0 min 0,000 mm 0,0 UV-I 0 W/m -5,5 C -3,8 C 1,6 km/h (1 Bft) 86,96 %
09.03.2021 05:41 -3,8 C -3,3 C -1,7 C 0,6 C 87 % 200 cb 4 cb 1019,7 hPa 0,0 l/m 1,6 km/h (1 Bft) NW 315 0 min 0,000 mm 0,0 UV-I 0 W/m -5,6 C -3,8 C 3,2 km/h (1 Bft) 86,96 %
09.03.2021 05:40 -3,8 C -3,3 C -1,1 C 0,6 C 88 % 200 cb 4 cb 1019,7 hPa 0,0 l/m 1,6 km/h (1 Bft) N-NW 337 0 min 0,000 mm 0,0 UV-I 0 W/m -5,5 C -3,8 C 3,2 km/h (1 Bft) 91,30 %
09.03.2021 05:39 -3,9 C -3,3 C -1,1 C 0,6 C 88 % 200 cb 4 cb 1019,7 hPa 0,0 l/m 1,6 km/h (1 Bft) NW 315 0 min 0,000 mm 0,0 UV-I 0 W/m -5,6 C -3,9 C 3,2 km/h (1 Bft) 86,96 %
09.03.2021 05:38 -3,8 C -3,3 C -1,1 C 0,6 C 88 % 200 cb 4 cb 1019,7 hPa 0,0 l/m 1,6 km/h (1 Bft) O-SO 112 0 min 0,000 mm 0,0 UV-I 0 W/m -5,5 C -3,8 C 1,6 km/h (1 Bft) 86,96 %
09.03.2021 05:37 -3,8 C -3,3 C -1,7 C 0,6 C 87 % 200 cb 4 cb 1019,7 hPa 0,0 l/m 1,6 km/h (1 Bft) O 90 0 min 0,000 mm 0,0 UV-I 0 W/m -5,6 C -3,8 C 1,6 km/h (1 Bft) 86,96 %
09.03.2021 05:36 -3,8 C -3,3 C -1,7 C 0,6 C 88 % 200 cb 4 cb 1019,7 hPa 0,0 l/m 1,6 km/h (1 Bft) O 90 0 min 0,000 mm 0,0 UV-I 0 W/m -5,5 C -3,8 C 1,6 km/h (1 Bft) 91,30 %
09.03.2021 05:35 -3,8 C -3,3 C -1,7 C 0,6 C 87 % 200 cb 4 cb 1019,7 hPa 0,0 l/m 1,6 km/h (1 Bft) O 90 0 min 0,000 mm 0,0 UV-I 0 W/m -5,6 C -3,8 C 3,2 km/h (1 Bft) 82,61 %
09.03.2021 05:34 -3,8 C -3,3 C -1,7 C 0,6 C 87 % 200 cb 4 cb 1019,7 hPa 0,0 l/m 1,6 km/h (1 Bft) O 90 0 min 0,000 mm 0,0 UV-I 0 W/m -5,6 C -3,8 C 1,6 km/h (1 Bft) 91,30 %
09.03.2021 05:33 -3,8 C -3,3 C -1,7 C 0,6 C 87 % 200 cb 4 cb 1019,6 hPa 0,0 l/m 1,6 km/h (1 Bft) O 90 0 min 0,000 mm 0,0 UV-I 0 W/m -5,6 C -3,8 C 1,6 km/h (1 Bft) 86,96 %
09.03.2021 05:32 -3,8 C -3,3 C -1,7 C 0,6 C 87 % 200 cb 4 cb 1019,7 hPa 0,0 l/m 0,0 km/h (0 Bft) NO 45 0 min 0,000 mm 0,0 UV-I 0 W/m -5,6 C -3,8 C 1,6 km/h (1 Bft) 86,96 %
09.03.2021 05:31 -3,8 C -3,3 C -1,7 C 0,6 C 87 % 200 cb 4 cb 1019,7 hPa 0,0 l/m 0,0 km/h (0 Bft) W-NW 292 0 min 0,000 mm 0,0 UV-I 0 W/m -5,6 C -3,8 C 1,6 km/h (1 Bft) 86,96 %
09.03.2021 05:30 -3,8 C -3,3 C -1,7 C 0,6 C 87 % 200 cb 4 cb 1019,8 hPa 0,0 l/m 1,6 km/h (1 Bft) W 270 0 min 0,000 mm 0,0 UV-I 0 W/m -5,6 C -3,8 C 1,6 km/h (1 Bft) 91,30 %
09.03.2021 05:29 -3,7 C -3,3 C -1,7 C 0,6 C 87 % 200 cb 4 cb 1019,8 hPa 0,0 l/m 0,0 km/h (0 Bft) W 270 0 min 0,000 mm 0,0 UV-I 0 W/m -5,5 C -3,7 C 1,6 km/h (1 Bft) 86,96 %
09.03.2021 05:28 -3,7 C -3,3 C -1,7 C 0,6 C 87 % 200 cb 4 cb 1019,7 hPa 0,0 l/m 1,6 km/h (1 Bft) NW 315 0 min 0,000 mm 0,0 UV-I 0 W/m -5,5 C -3,7 C 1,6 km/h (1 Bft) 91,30 %
09.03.2021 05:27 -3,7 C -3,3 C -1,7 C 0,6 C 87 % 200 cb 4 cb 1019,6 hPa 0,0 l/m 1,6 km/h (1 Bft) NW 315 0 min 0,000 mm 0,0 UV-I 0 W/m -5,5 C -3,7 C 1,6 km/h (1 Bft) 82,61 %
09.03.2021 05:26 -3,8 C -3,3 C -1,7 C 0,6 C 87 % 200 cb 4 cb 1019,6 hPa 0,0 l/m 1,6 km/h (1 Bft) W-NW 292 0 min 0,000 mm 0,0 UV-I 0 W/m -5,6 C -3,8 C 1,6 km/h (1 Bft) 91,30 %
09.03.2021 05:25 -3,8 C -3,3 C -1,7 C 0,6 C 87 % 200 cb 4 cb 1019,6 hPa 0,0 l/m 1,6 km/h (1 Bft) NW 315 0 min 0,000 mm 0,0 UV-I 0 W/m -5,6 C -3,8 C 3,2 km/h (1 Bft) 86,96 %
09.03.2021 05:24 -3,8 C -3,3 C -1,7 C 0,6 C 87 % 200 cb 4 cb 1019,6 hPa 0,0 l/m 1,6 km/h (1 Bft) W-NW 292 0 min 0,000 mm 0,0 UV-I 0 W/m -5,6 C -3,8 C 3,2 km/h (1 Bft) 91,30 %
09.03.2021 05:23 -3,8 C -3,3 C -1,7 C 0,6 C 87 % 200 cb 4 cb 1019,7 hPa 0,0 l/m 1,6 km/h (1 Bft) W-NW 292 0 min 0,000 mm 0,0 UV-I 0 W/m -5,6 C -3,8 C 3,2 km/h (1 Bft) 86,96 %
09.03.2021 05:22 -3,9 C -3,3 C -1,7 C 0,6 C 87 % 200 cb 4 cb 1019,6 hPa 0,0 l/m 3,2 km/h (1 Bft) W-NW 292 0 min 0,000 mm 0,0 UV-I 0 W/m -5,7 C -3,9 C 3,2 km/h (1 Bft) 91,30 %
09.03.2021 05:21 -3,9 C -3,3 C -1,7 C 0,6 C 87 % 200 cb 4 cb 1019,6 hPa 0,0 l/m 3,2 km/h (1 Bft) W 270 0 min 0,000 mm 0,0 UV-I 0 W/m -5,7 C -3,9 C 4,8 km/h (1 Bft) 78,26 %
09.03.2021 05:20 -3,8 C -3,3 C -1,7 C 0,6 C 87 % 200 cb 4 cb 1019,6 hPa 0,0 l/m 3,2 km/h (1 Bft) W-NW 292 0 min 0,000 mm 0,0 UV-I 0 W/m -5,6 C -3,8 C 3,2 km/h (1 Bft) 91,30 %
09.03.2021 05:19 -3,8 C -3,3 C -1,7 C 0,6 C 87 % 200 cb 4 cb 1019,7 hPa 0,0 l/m 1,6 km/h (1 Bft) W-NW 292 0 min 0,000 mm 0,0 UV-I 0 W/m -5,6 C -3,8 C 3,2 km/h (1 Bft) 86,96 %
09.03.2021 05:18 -3,8 C -3,3 C -1,7 C 0,6 C 87 % 200 cb 4 cb 1019,8 hPa 0,0 l/m 1,6 km/h (1 Bft) W 270 0 min 0,000 mm 0,0 UV-I 0 W/m -5,6 C -3,8 C 1,6 km/h (1 Bft) 86,96 %
09.03.2021 05:17 -3,8 C -3,3 C -1,7 C 0,6 C 87 % 200 cb 4 cb 1019,7 hPa 0,0 l/m 0,0 km/h (0 Bft) W 270 0 min 0,000 mm 0,0 UV-I 0 W/m -5,6 C -3,8 C 1,6 km/h (1 Bft) 86,96 %
09.03.2021 05:16 -3,7 C -3,3 C -1,7 C 0,6 C 87 % 200 cb 4 cb 1019,7 hPa 0,0 l/m 0,0 km/h (0 Bft) S 180 0 min 0,000 mm 0,0 UV-I 0 W/m -5,5 C -3,7 C 1,6 km/h (1 Bft) 78,26 %
09.03.2021 05:15 -3,7 C -3,3 C -1,7 C 0,6 C 87 % 200 cb 4 cb 1019,8 hPa 0,0 l/m 1,6 km/h (1 Bft) O-SO 112 0 min 0,000 mm 0,0 UV-I 0 W/m -5,5 C -3,7 C 1,6 km/h (1 Bft) 86,96 %
09.03.2021 05:14 -3,7 C -3,3 C -1,7 C 0,6 C 87 % 200 cb 4 cb 1019,7 hPa 0,0 l/m 1,6 km/h (1 Bft) O-SO 112 0 min 0,000 mm 0,0 UV-I 0 W/m -5,5 C -3,7 C 1,6 km/h (1 Bft) 86,96 %
09.03.2021 05:13 -3,7 C -3,3 C -1,7 C 0,6 C 87 % 200 cb 4 cb 1019,7 hPa 0,0 l/m 1,6 km/h (1 Bft) O-SO 112 0 min 0,000 mm 0,0 UV-I 0 W/m -5,5 C -3,7 C 3,2 km/h (1 Bft) 82,61 %
09.03.2021 05:12 -3,7 C -3,3 C -1,7 C 0,6 C 87 % 200 cb 4 cb 1019,8 hPa 0,0 l/m 1,6 km/h (1 Bft) SO 135 0 min 0,000 mm 0,0 UV-I 0 W/m -5,5 C -3,7 C 1,6 km/h (1 Bft) 86,96 %
09.03.2021 05:11 -3,7 C -3,3 C -1,7 C 0,6 C 87 % 200 cb 4 cb 1019,6 hPa 0,0 l/m 1,6 km/h (1 Bft) SO 135 0 min 0,000 mm 0,0 UV-I 0 W/m -5,5 C -3,7 C 1,6 km/h (1 Bft) 86,96 %
09.03.2021 05:10 -3,7 C -3,3 C -1,7 C 0,6 C 87 % 200 cb 4 cb 1019,6 hPa 0,0 l/m 0,0 km/h (0 Bft) N 360 0 min 0,000 mm 0,0 UV-I 0 W/m -5,5 C -3,7 C 1,6 km/h (1 Bft) 82,61 %
09.03.2021 05:09 -3,7 C -3,3 C -1,7 C 0,6 C 87 % 200 cb 4 cb 1019,6 hPa 0,0 l/m 1,6 km/h (1 Bft) NW 315 0 min 0,000 mm 0,0 UV-I 0 W/m -5,5 C -3,7 C 3,2 km/h (1 Bft) 82,61 %
09.03.2021 05:08 -3,6 C -3,3 C -1,1 C 0,6 C 87 % 200 cb 4 cb 1019,8 hPa 0,0 l/m 1,6 km/h (1 Bft) NW 315 0 min 0,000 mm 0,0 UV-I 0 W/m -5,4 C -3,6 C 3,2 km/h (1 Bft) 86,96 %
09.03.2021 05:07 -3,6 C -3,3 C -1,1 C 0,6 C 87 % 200 cb 4 cb 1019,7 hPa 0,0 l/m 0,0 km/h (0 Bft) SO 135 0 min 0,000 mm 0,0 UV-I 0 W/m -5,4 C -3,6 C 1,6 km/h (1 Bft) 82,61 %
09.03.2021 05:06 -3,5 C -3,3 C -1,1 C 0,6 C 87 % 200 cb 4 cb 1019,7 hPa 0,0 l/m 1,6 km/h (1 Bft) SO 135 0 min 0,000 mm 0,0 UV-I 0 W/m -5,3 C -3,5 C 1,6 km/h (1 Bft) 86,96 %
09.03.2021 05:05 -3,5 C -3,3 C -1,1 C 0,6 C 87 % 200 cb 4 cb 1019,7 hPa 0,0 l/m 0,0 km/h (0 Bft) NO 45 0 min 0,000 mm 0,0 UV-I 0 W/m -5,3 C -3,5 C 1,6 km/h (1 Bft) 78,26 %
09.03.2021 05:04 -3,5 C -3,3 C -1,1 C 0,6 C 87 % 200 cb 4 cb 1019,7 hPa 0,0 l/m 1,6 km/h (1 Bft) O 90 0 min 0,000 mm 0,0 UV-I 0 W/m -5,3 C -3,5 C 1,6 km/h (1 Bft) 91,30 %
09.03.2021 05:03 -3,4 C -3,3 C -1,7 C 0,6 C 87 % 200 cb 4 cb 1019,7 hPa 0,0 l/m 1,6 km/h (1 Bft) O-SO 112 0 min 0,000 mm 0,0 UV-I 0 W/m -5,2 C -3,4 C 1,6 km/h (1 Bft) 86,96 %
09.03.2021 05:02 -3,5 C -3,3 C -1,7 C 0,6 C 87 % 200 cb 4 cb 1019,7 hPa 0,0 l/m 1,6 km/h (1 Bft) O-SO 112 0 min 0,000 mm 0,0 UV-I 0 W/m -5,3 C -3,5 C 3,2 km/h (1 Bft) 86,96 %
09.03.2021 05:01 -3,4 C -2,8 C -1,1 C 0,6 C 87 % 200 cb 4 cb 1019,7 hPa 0,0 l/m 3,2 km/h (1 Bft) O-SO 112 0 min 0,000 mm 0,0 UV-I 0 W/m -5,2 C -3,4 C 3,2 km/h (1 Bft) 86,96 %
09.03.2021 05:00 -3,4 C -2,8 C -1,1 C 0,6 C 87 % 200 cb 4 cb 1019,8 hPa 0,0 l/m 1,6 km/h (1 Bft) O-SO 112 0 min 0,000 mm 0,0 UV-I 0 W/m -5,2 C -3,4 C 3,2 km/h (1 Bft) 86,96 %
09.03.2021 04:59 -3,4 C -2,8 C -1,1 C 0,6 C 87 % 200 cb 4 cb 1019,8 hPa 0,0 l/m 1,6 km/h (1 Bft) O 90 0 min 0,000 mm 0,0 UV-I 0 W/m -5,2 C -3,4 C 3,2 km/h (1 Bft) 82,61 %
09.03.2021 04:58 -3,4 C -2,8 C -1,1 C 0,6 C 86 % 200 cb 4 cb 1019,7 hPa 0,0 l/m 1,6 km/h (1 Bft) N-NW 337 0 min 0,000 mm 0,0 UV-I 0 W/m -5,4 C -3,4 C 3,2 km/h (1 Bft) 86,96 %
09.03.2021 04:57 -3,5 C -2,8 C -1,1 C 0,6 C 87 % 200 cb 4 cb 1019,8 hPa 0,0 l/m 1,6 km/h (1 Bft) N 360 0 min 0,000 mm 0,0 UV-I 0 W/m -5,3 C -3,5 C 3,2 km/h (1 Bft) 82,61 %
09.03.2021 04:56 -3,5 C -2,8 C -1,1 C 0,6 C 87 % 200 cb 4 cb 1019,8 hPa 0,0 l/m 1,6 km/h (1 Bft) NW 315 0 min 0,000 mm 0,0 UV-I 0 W/m -5,3 C -3,5 C 4,8 km/h (1 Bft) 86,96 %
09.03.2021 04:55 -3,5 C -2,8 C -1,1 C 0,6 C 87 % 200 cb 4 cb 1019,8 hPa 0,0 l/m 3,2 km/h (1 Bft) NW 315 0 min 0,000 mm 0,0 UV-I 0 W/m -5,3 C -3,5 C 4,8 km/h (1 Bft) 82,61 %
09.03.2021 04:54 -3,5 C -2,8 C -1,1 C 0,6 C 87 % 200 cb 4 cb 1019,8 hPa 0,0 l/m 1,6 km/h (1 Bft) NW 315 0 min 0,000 mm 0,0 UV-I 0 W/m -5,3 C -3,5 C 3,2 km/h (1 Bft) 86,96 %
09.03.2021 04:53 -3,4 C -2,8 C -1,1 C 0,6 C 87 % 200 cb 4 cb 1019,9 hPa 0,0 l/m 1,6 km/h (1 Bft) O-SO 112 0 min 0,000 mm 0,0 UV-I 0 W/m -5,2 C -3,4 C 3,2 km/h (1 Bft) 82,61 %
09.03.2021 04:52 -3,4 C -2,8 C -1,1 C 0,6 C 87 % 200 cb 4 cb 1019,8 hPa 0,0 l/m 3,2 km/h (1 Bft) O-SO 112 0 min 0,000 mm 0,0 UV-I 0 W/m -5,2 C -3,4 C 4,8 km/h (1 Bft) 91,30 %
09.03.2021 04:51 -3,5 C -2,2 C -1,1 C 0,6 C 87 % 200 cb 4 cb 1019,9 hPa 0,0 l/m 1,6 km/h (1 Bft) O-SO 112 0 min 0,000 mm 0,0 UV-I 0 W/m -5,3 C -3,5 C 3,2 km/h (1 Bft) 82,61 %
09.03.2021 04:50 -3,5 C -2,2 C -1,1 C 0,6 C 87 % 200 cb 4 cb 1019,9 hPa 0,0 l/m 1,6 km/h (1 Bft) NW 315 0 min 0,000 mm 0,0 UV-I 0 W/m -5,3 C -3,5 C 1,6 km/h (1 Bft) 91,30 %
09.03.2021 04:49 -3,5 C -2,2 C -1,1 C 0,6 C 87 % 200 cb 4 cb 1019,9 hPa 0,0 l/m 1,6 km/h (1 Bft) NW 315 0 min 0,000 mm 0,0 UV-I 0 W/m -5,3 C -3,5 C 1,6 km/h (1 Bft) 91,30 %
09.03.2021 04:48 -3,5 C -2,2 C -1,1 C 0,6 C 87 % 200 cb 4 cb 1019,9 hPa 0,0 l/m 1,6 km/h (1 Bft) O-SO 112 0 min 0,000 mm 0,0 UV-I 0 W/m -5,3 C -3,5 C 1,6 km/h (1 Bft) 86,96 %
09.03.2021 04:47 -3,5 C -2,2 C -1,1 C 0,6 C 87 % 200 cb 4 cb 1019,9 hPa 0,0 l/m 1,6 km/h (1 Bft) SO 135 0 min 0,000 mm 0,0 UV-I 0 W/m -5,3 C -3,5 C 3,2 km/h (1 Bft) 86,96 %
09.03.2021 04:46 -3,5 C -2,2 C -1,1 C 0,6 C 87 % 200 cb 4 cb 1019,9 hPa 0,0 l/m 1,6 km/h (1 Bft) O 90 0 min 0,000 mm 0,0 UV-I 0 W/m -5,3 C -3,5 C 1,6 km/h (1 Bft) 86,96 %
09.03.2021 04:45 -3,5 C -2,2 C -1,1 C 0,6 C 87 % 200 cb 4 cb 1020,0 hPa 0,0 l/m 0,0 km/h (0 Bft) S-SO 157 0 min 0,000 mm 0,0 UV-I 0 W/m -5,3 C -3,5 C 1,6 km/h (1 Bft) 86,96 %
09.03.2021 04:44 -3,5 C -2,8 C -1,1 C 0,6 C 87 % 200 cb 4 cb 1019,9 hPa 0,0 l/m 0,0 km/h (0 Bft) O-SO 112 0 min 0,000 mm 0,0 UV-I 0 W/m -5,3 C -3,5 C 1,6 km/h (1 Bft) 86,96 %
09.03.2021 04:43 -3,5 C -2,8 C -1,1 C 0,6 C 87 % 200 cb 4 cb 1020,0 hPa 0,0 l/m 0,0 km/h (0 Bft) N 0 0 min 0,000 mm 0,0 UV-I 0 W/m -5,3 C -3,5 C 0,0 km/h (0 Bft) 86,96 %
09.03.2021 04:42 -3,5 C -2,8 C -1,1 C 0,6 C 87 % 200 cb 4 cb 1020,0 hPa 0,0 l/m 0,0 km/h (0 Bft) NW 315 0 min 0,000 mm 0,0 UV-I 0 W/m -5,3 C -3,5 C 1,6 km/h (1 Bft) 91,30 %
09.03.2021 04:41 -3,5 C -2,8 C -1,1 C 0,6 C 87 % 200 cb 4 cb 1020,0 hPa 0,0 l/m 0,0 km/h (0 Bft) NW 315 0 min 0,000 mm 0,0 UV-I 0 W/m -5,3 C -3,5 C 1,6 km/h (1 Bft) 91,30 %
09.03.2021 04:40 -3,6 C -2,8 C -1,1 C 0,6 C 87 % 200 cb 4 cb 1019,9 hPa 0,0 l/m 1,6 km/h (1 Bft) SO 135 0 min 0,000 mm 0,0 UV-I 0 W/m -5,4 C -3,6 C 3,2 km/h (1 Bft) 95,65 %
09.03.2021 04:39 -3,6 C -2,8 C -1,1 C 0,6 C 87 % 200 cb 4 cb 1020,0 hPa 0,0 l/m 3,2 km/h (1 Bft) SO 135 0 min 0,000 mm 0,0 UV-I 0 W/m -5,4 C -3,6 C 3,2 km/h (1 Bft) 82,61 %
09.03.2021 04:38 -3,6 C -2,8 C -1,1 C 0,6 C 87 % 200 cb 4 cb 1020,0 hPa 0,0 l/m 1,6 km/h (1 Bft) SO 135 0 min 0,000 mm 0,0 UV-I 0 W/m -5,4 C -3,6 C 3,2 km/h (1 Bft) 91,30 %
09.03.2021 04:37 -3,5 C -2,8 C -1,1 C 0,6 C 87 % 200 cb 4 cb 1020,0 hPa 0,0 l/m 1,6 km/h (1 Bft) SW 225 0 min 0,000 mm 0,0 UV-I 0 W/m -5,3 C -3,5 C 1,6 km/h (1 Bft) 82,61 %
09.03.2021 04:36 -3,6 C -2,8 C -1,1 C 0,6 C 87 % 200 cb 4 cb 1020,0 hPa 0,0 l/m 3,2 km/h (1 Bft) W 270 0 min 0,000 mm 0,0 UV-I 0 W/m -5,4 C -3,6 C 3,2 km/h (1 Bft) 95,65 %
09.03.2021 04:35 -3,5 C -2,8 C -1,1 C 0,6 C 87 % 200 cb 4 cb 1020,0 hPa 0,0 l/m 1,6 km/h (1 Bft) W-NW 292 0 min 0,000 mm 0,0 UV-I 0 W/m -5,3 C -3,5 C 3,2 km/h (1 Bft) 91,30 %
09.03.2021 04:34 -3,5 C -2,8 C -1,1 C 0,6 C 87 % 200 cb 4 cb 1019,9 hPa 0,0 l/m 0,0 km/h (0 Bft) W 270 0 min 0,000 mm 0,0 UV-I 0 W/m -5,3 C -3,5 C 1,6 km/h (1 Bft) 91,30 %
09.03.2021 04:33 -3,5 C -2,8 C -1,1 C 0,6 C 87 % 200 cb 4 cb 1020,0 hPa 0,0 l/m 1,6 km/h (1 Bft) O-SO 112 0 min 0,000 mm 0,0 UV-I 0 W/m -5,3 C -3,5 C 3,2 km/h (1 Bft) 95,65 %
09.03.2021 04:32 -3,5 C -2,8 C -1,1 C 0,6 C 86 % 200 cb 4 cb 1020,0 hPa 0,0 l/m 3,2 km/h (1 Bft) O-SO 112 0 min 0,000 mm 0,0 UV-I 0 W/m -5,5 C -3,5 C 4,8 km/h (1 Bft) 86,96 %
09.03.2021 04:31 -3,5 C -2,2 C -1,1 C 0,6 C 86 % 200 cb 4 cb 1020,0 hPa 0,0 l/m 3,2 km/h (1 Bft) O-SO 112 0 min 0,000 mm 0,0 UV-I 0 W/m -5,5 C -3,5 C 4,8 km/h (1 Bft) 95,65 %
09.03.2021 04:30 -3,5 C -2,2 C -1,1 C 0,6 C 87 % 200 cb 4 cb 1020,0 hPa 0,0 l/m 1,6 km/h (1 Bft) SO 135 0 min 0,000 mm 0,0 UV-I 0 W/m -5,3 C -3,5 C 3,2 km/h (1 Bft) 91,30 %
09.03.2021 04:29 -3,5 C -2,8 C -1,1 C 0,6 C 87 % 200 cb 4 cb 1020,0 hPa 0,0 l/m 0,0 km/h (0 Bft) O-SO 112 0 min 0,000 mm 0,0 UV-I 0 W/m -5,3 C -3,5 C 1,6 km/h (1 Bft) 95,65 %
09.03.2021 04:28 -3,5 C -2,8 C -1,1 C 0,6 C 87 % 200 cb 4 cb 1020,0 hPa 0,0 l/m 1,6 km/h (1 Bft) N-NW 337 0 min 0,000 mm 0,0 UV-I 0 W/m -5,3 C -3,5 C 1,6 km/h (1 Bft) 91,30 %
09.03.2021 04:27 -3,6 C -2,8 C -1,1 C 0,6 C 87 % 200 cb 4 cb 1019,9 hPa 0,0 l/m 0,0 km/h (0 Bft) NO 45 0 min 0,000 mm 0,0 UV-I 0 W/m -5,4 C -3,6 C 1,6 km/h (1 Bft) 95,65 %
09.03.2021 04:26 -3,6 C -2,8 C -1,1 C 0,6 C 87 % 200 cb 4 cb 1020,0 hPa 0,0 l/m 1,6 km/h (1 Bft) NO 45 0 min 0,000 mm 0,0 UV-I 0 W/m -5,4 C -3,6 C 1,6 km/h (1 Bft) 86,96 %
09.03.2021 04:25 -3,6 C -2,8 C -1,1 C 0,6 C 87 % 200 cb 4 cb 1020,0 hPa 0,0 l/m 1,6 km/h (1 Bft) O 90 0 min 0,000 mm 0,0 UV-I 0 W/m -5,4 C -3,6 C 3,2 km/h (1 Bft) 95,65 %
09.03.2021 04:24 -3,6 C -2,8 C -1,1 C 0,6 C 87 % 200 cb 4 cb 1020,0 hPa 0,0 l/m 1,6 km/h (1 Bft) O 90 0 min 0,000 mm 0,0 UV-I 0 W/m -5,4 C -3,6 C 3,2 km/h (1 Bft) 91,30 %
09.03.2021 04:23 -3,6 C -2,8 C -1,1 C 0,6 C 86 % 200 cb 4 cb 1019,9 hPa 0,0 l/m 3,2 km/h (1 Bft) O-SO 112 0 min 0,000 mm 0,0 UV-I 0 W/m -5,6 C -3,6 C 3,2 km/h (1 Bft) 95,65 %
09.03.2021 04:22 -3,6 C -2,2 C -1,1 C 0,6 C 86 % 200 cb 4 cb 1019,9 hPa 0,0 l/m 3,2 km/h (1 Bft) SO 135 0 min 0,000 mm 0,0 UV-I 0 W/m -5,6 C -3,6 C 3,2 km/h (1 Bft) 91,30 %
09.03.2021 04:21 -3,6 C -2,2 C -1,1 C 0,6 C 87 % 200 cb 4 cb 1020,0 hPa 0,0 l/m 3,2 km/h (1 Bft) SO 135 0 min 0,000 mm 0,0 UV-I 0 W/m -5,4 C -3,6 C 3,2 km/h (1 Bft) 91,30 %
09.03.2021 04:20 -3,6 C -2,2 C -1,1 C 0,6 C 87 % 200 cb 4 cb 1019,9 hPa 0,0 l/m 1,6 km/h (1 Bft) SO 135 0 min 0,000 mm 0,0 UV-I 0 W/m -5,4 C -3,6 C 3,2 km/h (1 Bft) 91,30 %
09.03.2021 04:19 -3,7 C -2,2 C -1,1 C 0,6 C 87 % 200 cb 4 cb 1019,9 hPa 0,0 l/m 1,6 km/h (1 Bft) SO 135 0 min 0,000 mm 0,0 UV-I 0 W/m -5,5 C -3,7 C 3,2 km/h (1 Bft) 95,65 %
09.03.2021 04:18 -3,7 C -2,2 C -1,1 C 0,6 C 87 % 200 cb 4 cb 1019,9 hPa 0,0 l/m 0,0 km/h (0 Bft) SO 135 0 min 0,000 mm 0,0 UV-I 0 W/m -5,5 C -3,7 C 1,6 km/h (1 Bft) 91,30 %
09.03.2021 04:17 -3,7 C -2,8 C -1,1 C 0,6 C 87 % 200 cb 4 cb 1020,0 hPa 0,0 l/m 0,0 km/h (0 Bft) S 180 0 min 0,000 mm 0,0 UV-I 0 W/m -5,5 C -3,7 C 1,6 km/h (1 Bft) 95,65 %
09.03.2021 04:16 -3,7 C -2,8 C -1,1 C 0,6 C 87 % 200 cb 4 cb 1019,9 hPa 0,0 l/m 1,6 km/h (1 Bft) SO 135 0 min 0,000 mm 0,0 UV-I 0 W/m -5,5 C -3,7 C 3,2 km/h (1 Bft) 91,30 %
09.03.2021 04:15 -3,7 C -2,8 C -1,1 C 0,6 C 87 % 200 cb 4 cb 1020,0 hPa 0,0 l/m 1,6 km/h (1 Bft) SO 135 0 min 0,000 mm 0,0 UV-I 0 W/m -5,5 C -3,7 C 3,2 km/h (1 Bft) 91,30 %
09.03.2021 04:14 -3,7 C -2,8 C -1,1 C 0,6 C 87 % 200 cb 4 cb 1020,0 hPa 0,0 l/m 1,6 km/h (1 Bft) O-SO 112 0 min 0,000 mm 0,0 UV-I 0 W/m -5,5 C -3,7 C 3,2 km/h (1 Bft) 86,96 %
09.03.2021 04:13 -3,7 C -2,8 C -1,1 C 0,6 C 87 % 200 cb 4 cb 1020,0 hPa 0,0 l/m 3,2 km/h (1 Bft) SO 135 0 min 0,000 mm 0,0 UV-I 0 W/m -5,5 C -3,7 C 4,8 km/h (1 Bft) 95,65 %
09.03.2021 04:12 -3,7 C -2,8 C -1,1 C 0,6 C 87 % 200 cb 4 cb 1020,0 hPa 0,0 l/m 1,6 km/h (1 Bft) SO 135 0 min 0,000 mm 0,0 UV-I 0 W/m -5,5 C -3,7 C 3,2 km/h (1 Bft) 91,30 %
09.03.2021 04:11 -3,7 C -2,8 C -1,1 C 0,6 C 87 % 200 cb 4 cb 1019,9 hPa 0,0 l/m 1,6 km/h (1 Bft) SO 135 0 min 0,000 mm 0,0 UV-I 0 W/m -5,5 C -3,7 C 3,2 km/h (1 Bft) 91,30 %
09.03.2021 04:10 -3,7 C -2,8 C -1,1 C 0,6 C 87 % 200 cb 4 cb 1020,0 hPa 0,0 l/m 1,6 km/h (1 Bft) SO 135 0 min 0,000 mm 0,0 UV-I 0 W/m -5,5 C -3,7 C 3,2 km/h (1 Bft) 86,96 %
09.03.2021 04:09 -3,7 C -2,8 C -1,1 C 0,6 C 87 % 200 cb 4 cb 1020,0 hPa 0,0 l/m 1,6 km/h (1 Bft) SO 135 0 min 0,000 mm 0,0 UV-I 0 W/m -5,5 C -3,7 C 3,2 km/h (1 Bft) 95,65 %
09.03.2021 04:08 -3,7 C -2,8 C -1,1 C 0,6 C 87 % 200 cb 4 cb 1020,0 hPa 0,0 l/m 1,6 km/h (1 Bft) SO 135 0 min 0,000 mm 0,0 UV-I 0 W/m -5,5 C -3,7 C 3,2 km/h (1 Bft) 95,65 %
09.03.2021 04:07 -3,7 C -2,8 C -1,1 C 0,6 C 86 % 200 cb 4 cb 1019,9 hPa 0,0 l/m 1,6 km/h (1 Bft) O-SO 112 0 min 0,000 mm 0,0 UV-I 0 W/m -5,7 C -3,7 C 3,2 km/h (1 Bft) 95,65 %
09.03.2021 04:06 -3,7 C -2,8 C -1,1 C 0,6 C 86 % 200 cb 4 cb 1020,0 hPa 0,0 l/m 3,2 km/h (1 Bft) O-SO 112 0 min 0,000 mm 0,0 UV-I 0 W/m -5,7 C -3,7 C 3,2 km/h (1 Bft) 91,30 %
09.03.2021 04:05 -3,6 C -2,8 C -1,1 C 0,6 C 87 % 200 cb 4 cb 1020,0 hPa 0,0 l/m 1,6 km/h (1 Bft) O-SO 112 0 min 0,000 mm 0,0 UV-I 0 W/m -5,4 C -3,6 C 3,2 km/h (1 Bft) 91,30 %
09.03.2021 04:04 -3,6 C -2,8 C -1,1 C 0,6 C 87 % 200 cb 4 cb 1019,9 hPa 0,0 l/m 1,6 km/h (1 Bft) NO 45 0 min 0,000 mm 0,0 UV-I 0 W/m -5,4 C -3,6 C 3,2 km/h (1 Bft) 86,96 %
09.03.2021 04:03 -3,6 C -2,8 C -1,1 C 0,6 C 87 % 200 cb 4 cb 1020,0 hPa 0,0 l/m 1,6 km/h (1 Bft) NO 45 0 min 0,000 mm 0,0 UV-I 0 W/m -5,4 C -3,6 C 1,6 km/h (1 Bft) 95,65 %
09.03.2021 04:02 -3,6 C -2,8 C -1,1 C 0,6 C 87 % 200 cb 4 cb 1019,9 hPa 0,0 l/m 1,6 km/h (1 Bft) O 90 0 min 0,000 mm 0,0 UV-I 0 W/m -5,4 C -3,6 C 1,6 km/h (1 Bft) 91,30 %
09.03.2021 04:01 -3,6 C -2,8 C -1,1 C 0,6 C 87 % 200 cb 4 cb 1019,9 hPa 0,0 l/m 1,6 km/h (1 Bft) O 90 0 min 0,000 mm 0,0 UV-I 0 W/m -5,4 C -3,6 C 1,6 km/h (1 Bft) 95,65 %
09.03.2021 04:00 -3,6 C -2,8 C -1,1 C 0,6 C 87 % 200 cb 4 cb 1019,9 hPa 0,0 l/m 1,6 km/h (1 Bft) NO 45 0 min 0,000 mm 0,0 UV-I 0 W/m -5,4 C -3,6 C 1,6 km/h (1 Bft) 91,30 %
09.03.2021 03:59 -3,6 C -2,8 C -1,1 C 0,6 C 86 % 200 cb 4 cb 1020,0 hPa 0,0 l/m 1,6 km/h (1 Bft) O 90 0 min 0,000 mm 0,0 UV-I 0 W/m -5,6 C -3,6 C 1,6 km/h (1 Bft) 91,30 %
09.03.2021 03:58 -3,6 C -2,8 C -1,1 C 0,6 C 87 % 200 cb 4 cb 1019,9 hPa 0,0 l/m 1,6 km/h (1 Bft) O-NO 67 0 min 0,000 mm 0,0 UV-I 0 W/m -5,4 C -3,6 C 1,6 km/h (1 Bft) 91,30 %
09.03.2021 03:57 -3,6 C -2,8 C -1,1 C 0,6 C 87 % 200 cb 4 cb 1020,0 hPa 0,0 l/m 1,6 km/h (1 Bft) O-NO 67 0 min 0,000 mm 0,0 UV-I 0 W/m -5,4 C -3,6 C 1,6 km/h (1 Bft) 91,30 %
09.03.2021 03:56 -3,7 C -2,8 C -1,1 C 0,6 C 87 % 200 cb 4 cb 1020,0 hPa 0,0 l/m 1,6 km/h (1 Bft) O-NO 67 0 min 0,000 mm 0,0 UV-I 0 W/m -5,5 C -3,7 C 1,6 km/h (1 Bft) 91,30 %
09.03.2021 03:55 -3,7 C -2,8 C -1,1 C 0,6 C 87 % 200 cb 4 cb 1019,9 hPa 0,0 l/m 1,6 km/h (1 Bft) NO 45 0 min 0,000 mm 0,0 UV-I 0 W/m -5,5 C -3,7 C 1,6 km/h (1 Bft) 95,65 %
09.03.2021 03:54 -3,7 C -2,8 C -1,1 C 0,6 C 87 % 200 cb 4 cb 1020,0 hPa 0,0 l/m 0,0 km/h (0 Bft) NO 45 0 min 0,000 mm 0,0 UV-I 0 W/m -5,5 C -3,7 C 1,6 km/h (1 Bft) 91,30 %
09.03.2021 03:53 -3,7 C -2,8 C -1,1 C 0,6 C 87 % 200 cb 4 cb 1020,0 hPa 0,0 l/m 1,6 km/h (1 Bft) W 270 0 min 0,000 mm 0,0 UV-I 0 W/m -5,5 C -3,7 C 3,2 km/h (1 Bft) 91,30 %
09.03.2021 03:52 -3,7 C -2,8 C -1,1 C 0,6 C 87 % 200 cb 4 cb 1020,0 hPa 0,0 l/m 1,6 km/h (1 Bft) N 360 0 min 0,000 mm 0,0 UV-I 0 W/m -5,5 C -3,7 C 3,2 km/h (1 Bft) 82,61 %
09.03.2021 03:51 -3,8 C -2,8 C -1,1 C 0,6 C 87 % 200 cb 4 cb 1020,0 hPa 0,0 l/m 0,0 km/h (0 Bft) SO 135 0 min 0,000 mm 0,0 UV-I 0 W/m -5,6 C -3,8 C 1,6 km/h (1 Bft) 95,65 %
09.03.2021 03:50 -3,8 C -2,8 C -1,1 C 0,6 C 87 % 200 cb 4 cb 1019,9 hPa 0,0 l/m 0,0 km/h (0 Bft) SW 225 0 min 0,000 mm 0,0 UV-I 0 W/m -5,6 C -3,8 C 1,6 km/h (1 Bft) 91,30 %
09.03.2021 03:49 -3,8 C -2,8 C -1,1 C 0,6 C 87 % 200 cb 4 cb 1020,0 hPa 0,0 l/m 0,0 km/h (0 Bft) N 360 0 min 0,000 mm 0,0 UV-I 0 W/m -5,6 C -3,8 C 1,6 km/h (1 Bft) 95,65 %
09.03.2021 03:48 -3,8 C -2,8 C -1,1 C 0,6 C 87 % 200 cb 4 cb 1020,1 hPa 0,0 l/m 1,6 km/h (1 Bft) N-NW 337 0 min 0,000 mm 0,0 UV-I 0 W/m -5,6 C -3,8 C 3,2 km/h (1 Bft) 86,96 %
09.03.2021 03:47 -3,8 C -2,8 C -1,1 C 0,6 C 87 % 200 cb 4 cb 1020,1 hPa 0,0 l/m 3,2 km/h (1 Bft) N-NW 337 0 min 0,000 mm 0,0 UV-I 0 W/m -5,6 C -3,8 C 3,2 km/h (1 Bft) 95,65 %
09.03.2021 03:46 -3,9 C -2,8 C -1,1 C 0,6 C 87 % 200 cb 4 cb 1020,0 hPa 0,0 l/m 1,6 km/h (1 Bft) NW 315 0 min 0,000 mm 0,0 UV-I 0 W/m -5,7 C -3,9 C 3,2 km/h (1 Bft) 91,30 %
09.03.2021 03:45 -3,8 C -2,8 C -1,1 C 0,6 C 87 % 200 cb 4 cb 1020,1 hPa 0,0 l/m 3,2 km/h (1 Bft) NW 315 0 min 0,000 mm 0,0 UV-I 0 W/m -5,6 C -3,8 C 4,8 km/h (1 Bft) 95,65 %
09.03.2021 03:44 -3,8 C -2,8 C -1,1 C 0,6 C 87 % 200 cb 4 cb 1020,1 hPa 0,0 l/m 1,6 km/h (1 Bft) NW 315 0 min 0,000 mm 0,0 UV-I 0 W/m -5,6 C -3,8 C 3,2 km/h (1 Bft) 91,30 %
09.03.2021 03:43 -3,9 C -2,8 C -1,1 C 0,6 C 87 % 200 cb 4 cb 1020,2 hPa 0,0 l/m 1,6 km/h (1 Bft) NW 315 0 min 0,000 mm 0,0 UV-I 0 W/m -5,7 C -3,9 C 3,2 km/h (1 Bft) 95,65 %
09.03.2021 03:42 -3,9 C -2,8 C -1,1 C 0,6 C 87 % 200 cb 4 cb 1020,1 hPa 0,0 l/m 1,6 km/h (1 Bft) NW 315 0 min 0,000 mm 0,0 UV-I 0 W/m -5,7 C -3,9 C 3,2 km/h (1 Bft) 86,96 %
09.03.2021 03:41 -3,9 C -2,8 C -1,1 C 0,6 C 87 % 200 cb 4 cb 1020,1 hPa 0,0 l/m 1,6 km/h (1 Bft) NW 315 0 min 0,000 mm 0,0 UV-I 0 W/m -5,7 C -3,9 C 3,2 km/h (1 Bft) 95,65 %
09.03.2021 03:40 -3,9 C -2,8 C -1,1 C 0,6 C 87 % 200 cb 4 cb 1020,0 hPa 0,0 l/m 0,0 km/h (0 Bft) NW 315 0 min 0,000 mm 0,0 UV-I 0 W/m -5,7 C -3,9 C 1,6 km/h (1 Bft) 91,30 %
09.03.2021 03:39 -3,9 C -2,8 C -1,1 C 0,6 C 87 % 200 cb 4 cb 1020,0 hPa 0,0 l/m 1,6 km/h (1 Bft) N-NW 337 0 min 0,000 mm 0,0 UV-I 0 W/m -5,7 C -3,9 C 1,6 km/h (1 Bft) 95,65 %
09.03.2021 03:38 -3,9 C -2,8 C -1,1 C 0,6 C 87 % 200 cb 4 cb 1020,2 hPa 0,0 l/m 0,0 km/h (0 Bft) NW 315 0 min 0,000 mm 0,0 UV-I 0 W/m -5,7 C -3,9 C 1,6 km/h (1 Bft) 91,30 %
09.03.2021 03:37 -4,0 C -2,8 C -1,1 C 0,6 C 87 % 200 cb 4 cb 1020,1 hPa 0,0 l/m 1,6 km/h (1 Bft) W-NW 292 0 min 0,000 mm 0,0 UV-I 0 W/m -5,8 C -4,0 C 1,6 km/h (1 Bft) 86,96 %
09.03.2021 03:36 -4,0 C -2,8 C -1,1 C 0,6 C 87 % 200 cb 4 cb 1020,1 hPa 0,0 l/m 0,0 km/h (0 Bft) W-NW 292 0 min 0,000 mm 0,0 UV-I 0 W/m -5,8 C -4,0 C 1,6 km/h (1 Bft) 91,30 %
09.03.2021 03:35 -4,0 C -2,8 C -1,1 C 0,6 C 87 % 200 cb 4 cb 1020,2 hPa 0,0 l/m 0,0 km/h (0 Bft) NW 315 0 min 0,000 mm 0,0 UV-I 0 W/m -5,8 C -4,0 C 1,6 km/h (1 Bft) 95,65 %
09.03.2021 03:34 -4,1 C -2,8 C -1,1 C 0,6 C 87 % 200 cb 4 cb 1020,1 hPa 0,0 l/m 0,0 km/h (0 Bft) W 270 0 min 0,000 mm 0,0 UV-I 0 W/m -5,9 C -4,1 C 1,6 km/h (1 Bft) 91,30 %
09.03.2021 03:33 -4,1 C -2,8 C -1,1 C 0,6 C 87 % 200 cb 4 cb 1020,1 hPa 0,0 l/m 1,6 km/h (1 Bft) W-NW 292 0 min 0,000 mm 0,0 UV-I 0 W/m -5,9 C -4,1 C 3,2 km/h (1 Bft) 86,96 %
09.03.2021 03:32 -4,1 C -3,3 C -1,1 C 0,6 C 87 % 200 cb 4 cb 1020,2 hPa 0,0 l/m 1,6 km/h (1 Bft) W-NW 292 0 min 0,000 mm 0,0 UV-I 0 W/m -5,9 C -4,1 C 3,2 km/h (1 Bft) 91,30 %
09.03.2021 03:31 -4,1 C -3,3 C -1,1 C 0,6 C 87 % 200 cb 4 cb 1020,1 hPa 0,0 l/m 0,0 km/h (0 Bft) S 180 0 min 0,000 mm 0,0 UV-I 0 W/m -5,9 C -4,1 C 1,6 km/h (1 Bft) 86,96 %
09.03.2021 03:30 -4,1 C -3,3 C -1,1 C 0,6 C 87 % 200 cb 4 cb 1020,1 hPa 0,0 l/m 0,0 km/h (0 Bft) SO 135 0 min 0,000 mm 0,0 UV-I 0 W/m -5,9 C -4,1 C 1,6 km/h (1 Bft) 91,30 %
09.03.2021 03:29 -4,1 C -3,3 C -1,1 C 0,6 C 87 % 200 cb 4 cb 1020,1 hPa 0,0 l/m 1,6 km/h (1 Bft) NW 315 0 min 0,000 mm 0,0 UV-I 0 W/m -5,9 C -4,1 C 1,6 km/h (1 Bft) 86,96 %
09.03.2021 03:28 -4,1 C -3,3 C -1,1 C 0,6 C 87 % 200 cb 4 cb 1020,1 hPa 0,0 l/m 1,6 km/h (1 Bft) W-NW 292 0 min 0,000 mm 0,0 UV-I 0 W/m -5,9 C -4,1 C 3,2 km/h (1 Bft) 86,96 %
09.03.2021 03:27 -4,1 C -3,3 C -1,1 C 0,6 C 87 % 200 cb 4 cb 1020,2 hPa 0,0 l/m 1,6 km/h (1 Bft) W-NW 292 0 min 0,000 mm 0,0 UV-I 0 W/m -5,9 C -4,1 C 3,2 km/h (1 Bft) 86,96 %
09.03.2021 03:26 -4,1 C -3,3 C -1,1 C 0,6 C 87 % 200 cb 4 cb 1020,1 hPa 0,0 l/m 1,6 km/h (1 Bft) NW 315 0 min 0,000 mm 0,0 UV-I 0 W/m -5,9 C -4,1 C 1,6 km/h (1 Bft) 91,30 %
09.03.2021 03:25 -4,1 C -3,3 C -1,1 C 0,6 C 87 % 200 cb 4 cb 1020,1 hPa 0,0 l/m 1,6 km/h (1 Bft) O-SO 112 0 min 0,000 mm 0,0 UV-I 0 W/m -5,9 C -4,1 C 1,6 km/h (1 Bft) 86,96 %
09.03.2021 03:24 -4,1 C -3,3 C -1,7 C 0,6 C 87 % 200 cb 4 cb 1020,1 hPa 0,0 l/m 1,6 km/h (1 Bft) O-SO 112 0 min 0,000 mm 0,0 UV-I 0 W/m -5,9 C -4,1 C 6,4 km/h (2 Bft) 95,65 %
09.03.2021 03:23 -4,2 C -3,3 C -1,1 C 0,6 C 87 % 200 cb 4 cb 1020,1 hPa 0,0 l/m 3,2 km/h (1 Bft) O-SO 112 0 min 0,000 mm 0,0 UV-I 0 W/m -6,0 C -4,2 C 4,8 km/h (1 Bft) 86,96 %
09.03.2021 03:22 -4,2 C -3,3 C -1,1 C 0,6 C 87 % 200 cb 4 cb 1020,2 hPa 0,0 l/m 4,8 km/h (1 Bft) O 90 0 min 0,000 mm 0,0 UV-I 0 W/m -6,0 C -6,2 C 6,4 km/h (2 Bft) 95,65 %
09.03.2021 03:21 -4,2 C -3,3 C -1,1 C 0,6 C 87 % 200 cb 4 cb 1020,1 hPa 0,0 l/m 3,2 km/h (1 Bft) SO 135 0 min 0,000 mm 0,0 UV-I 0 W/m -6,0 C -4,2 C 4,8 km/h (1 Bft) 86,96 %
09.03.2021 03:20 -4,2 C -3,3 C -1,1 C 0,6 C 87 % 200 cb 4 cb 1020,0 hPa 0,0 l/m 1,6 km/h (1 Bft) SO 135 0 min 0,000 mm 0,0 UV-I 0 W/m -6,0 C -4,2 C 3,2 km/h (1 Bft) 91,30 %
09.03.2021 03:19 -4,2 C -3,3 C -1,7 C 0,6 C 87 % 200 cb 4 cb 1020,1 hPa 0,0 l/m 1,6 km/h (1 Bft) SW 225 0 min 0,000 mm 0,0 UV-I 0 W/m -6,0 C -4,2 C 3,2 km/h (1 Bft) 91,30 %
09.03.2021 03:18 -4,2 C -3,3 C -1,7 C 0,6 C 87 % 200 cb 4 cb 1020,2 hPa 0,0 l/m 0,0 km/h (0 Bft) W-NW 292 0 min 0,000 mm 0,0 UV-I 0 W/m -6,0 C -4,2 C 1,6 km/h (1 Bft) 86,96 %
09.03.2021 03:17 -4,2 C -3,3 C -1,7 C 0,6 C 87 % 200 cb 4 cb 1020,1 hPa 0,0 l/m 1,6 km/h (1 Bft) SO 135 0 min 0,000 mm 0,0 UV-I 0 W/m -6,0 C -4,2 C 3,2 km/h (1 Bft) 91,30 %
09.03.2021 03:16 -4,2 C -3,3 C -1,7 C 0,6 C 87 % 200 cb 4 cb 1020,1 hPa 0,0 l/m 3,2 km/h (1 Bft) O 90 0 min 0,000 mm 0,0 UV-I 0 W/m -6,0 C -4,2 C 4,8 km/h (1 Bft) 86,96 %
09.03.2021 03:15 -4,1 C -3,3 C -1,7 C 0,6 C 87 % 200 cb 4 cb 1020,1 hPa 0,0 l/m 3,2 km/h (1 Bft) O 90 0 min 0,000 mm 0,0 UV-I 0 W/m -5,9 C -4,1 C 3,2 km/h (1 Bft) 86,96 %
09.03.2021 03:14 -4,1 C -3,3 C -1,7 C 0,6 C 87 % 200 cb 4 cb 1020,1 hPa 0,0 l/m 3,2 km/h (1 Bft) O 90 0 min 0,000 mm 0,0 UV-I 0 W/m -5,9 C -4,1 C 4,8 km/h (1 Bft) 91,30 %
09.03.2021 03:13 -4,1 C -3,3 C -1,7 C 0,6 C 87 % 200 cb 4 cb 1020,1 hPa 0,0 l/m 3,2 km/h (1 Bft) O-SO 112 0 min 0,000 mm 0,0 UV-I 0 W/m -5,9 C -4,1 C 4,8 km/h (1 Bft) 86,96 %
09.03.2021 03:12 -4,1 C -3,3 C -1,7 C 0,6 C 87 % 200 cb 4 cb 1020,1 hPa 0,0 l/m 3,2 km/h (1 Bft) O-SO 112 0 min 0,000 mm 0,0 UV-I 0 W/m -5,9 C -4,1 C 3,2 km/h (1 Bft) 91,30 %
09.03.2021 03:11 -4,1 C -3,3 C -1,7 C 0,6 C 87 % 200 cb 4 cb 1020,2 hPa 0,0 l/m 1,6 km/h (1 Bft) SO 135 0 min 0,000 mm 0,0 UV-I 0 W/m -5,9 C -4,1 C 3,2 km/h (1 Bft) 91,30 %
09.03.2021 03:10 -4,1 C -3,9 C -1,7 C 0,6 C 87 % 200 cb 4 cb 1020,2 hPa 0,0 l/m 1,6 km/h (1 Bft) S-SO 157 0 min 0,000 mm 0,0 UV-I 0 W/m -5,9 C -4,1 C 1,6 km/h (1 Bft) 91,30 %
09.03.2021 03:09 -4,2 C -3,9 C -1,7 C 0,6 C 88 % 200 cb 4 cb 1020,1 hPa 0,0 l/m 1,6 km/h (1 Bft) SO 135 0 min 0,000 mm 0,0 UV-I 0 W/m -5,9 C -4,2 C 3,2 km/h (1 Bft) 86,96 %
09.03.2021 03:08 -4,2 C -3,9 C -1,7 C 0,6 C 88 % 200 cb 4 cb 1020,3 hPa 0,0 l/m 1,6 km/h (1 Bft) SO 135 0 min 0,000 mm 0,0 UV-I 0 W/m -5,9 C -4,2 C 1,6 km/h (1 Bft) 91,30 %
09.03.2021 03:07 -4,2 C -3,9 C -1,7 C 0,6 C 88 % 200 cb 4 cb 1020,3 hPa 0,0 l/m 1,6 km/h (1 Bft) SO 135 0 min 0,000 mm 0,0 UV-I 0 W/m -5,9 C -4,2 C 1,6 km/h (1 Bft) 91,30 %
09.03.2021 03:06 -4,1 C -3,3 C -1,7 C 0,6 C 87 % 200 cb 4 cb 1020,2 hPa 0,0 l/m 1,6 km/h (1 Bft) NW 315 0 min 0,000 mm 0,0 UV-I 0 W/m -5,9 C -4,1 C 1,6 km/h (1 Bft) 91,30 %
09.03.2021 03:05 -4,1 C -3,3 C -1,7 C 0,6 C 87 % 200 cb 4 cb 1020,2 hPa 0,0 l/m 1,6 km/h (1 Bft) O 90 0 min 0,000 mm 0,0 UV-I 0 W/m -5,9 C -4,1 C 3,2 km/h (1 Bft) 91,30 %
09.03.2021 03:04 -3,9 C -3,3 C -1,7 C 0,6 C 87 % 200 cb 4 cb 1020,3 hPa 0,0 l/m 1,6 km/h (1 Bft) O 90 0 min 0,000 mm 0,0 UV-I 0 W/m -5,7 C -3,9 C 3,2 km/h (1 Bft) 91,30 %
09.03.2021 03:03 -3,9 C -3,3 C -1,1 C 0,6 C 88 % 200 cb 4 cb 1020,3 hPa 0,0 l/m 3,2 km/h (1 Bft) O 90 0 min 0,000 mm 0,0 UV-I 0 W/m -5,6 C -3,9 C 3,2 km/h (1 Bft) 86,96 %
09.03.2021 03:02 -3,9 C -3,3 C -1,1 C 0,6 C 88 % 200 cb 4 cb 1020,4 hPa 0,0 l/m 1,6 km/h (1 Bft) NO 45 0 min 0,000 mm 0,0 UV-I 0 W/m -5,6 C -3,9 C 3,2 km/h (1 Bft) 95,65 %
09.03.2021 03:01 -3,9 C -3,3 C -1,1 C 0,6 C 88 % 200 cb 4 cb 1020,3 hPa 0,0 l/m 1,6 km/h (1 Bft) N-NO 22 0 min 0,000 mm 0,0 UV-I 0 W/m -5,6 C -3,9 C 1,6 km/h (1 Bft) 91,30 %
09.03.2021 03:00 -3,9 C -3,3 C -1,1 C 0,6 C 87 % 200 cb 4 cb 1020,4 hPa 0,0 l/m 1,6 km/h (1 Bft) N-NO 22 0 min 0,000 mm 0,0 UV-I 0 W/m -5,7 C -3,9 C 3,2 km/h (1 Bft) 95,65 %
09.03.2021 02:59 -3,9 C -2,8 C -1,1 C 0,6 C 87 % 200 cb 4 cb 1020,3 hPa 0,0 l/m 1,6 km/h (1 Bft) NO 45 0 min 0,000 mm 0,0 UV-I 0 W/m -5,7 C -3,9 C 1,6 km/h (1 Bft) 91,30 %
09.03.2021 02:58 -3,9 C -3,3 C -1,1 C 0,6 C 88 % 200 cb 4 cb 1020,3 hPa 0,0 l/m 1,6 km/h (1 Bft) NO 45 0 min 0,000 mm 0,0 UV-I 0 W/m -5,6 C -3,9 C 3,2 km/h (1 Bft) 91,30 %
09.03.2021 02:57 -4,0 C -3,3 C -1,1 C 0,6 C 88 % 200 cb 4 cb 1020,4 hPa 0,0 l/m 1,6 km/h (1 Bft) NO 45 0 min 0,000 mm 0,0 UV-I 0 W/m -5,7 C -4,0 C 3,2 km/h (1 Bft) 91,30 %
09.03.2021 02:56 -4,0 C -3,3 C -1,1 C 0,6 C 88 % 200 cb 4 cb 1020,4 hPa 0,0 l/m 1,6 km/h (1 Bft) N-NW 337 0 min 0,000 mm 0,0 UV-I 0 W/m -5,7 C -4,0 C 3,2 km/h (1 Bft) 91,30 %
09.03.2021 02:55 -4,1 C -3,3 C -1,1 C 0,6 C 88 % 200 cb 4 cb 1020,4 hPa 0,0 l/m 1,6 km/h (1 Bft) N-NW 337 0 min 0,000 mm 0,0 UV-I 0 W/m -5,8 C -4,1 C 3,2 km/h (1 Bft) 91,30 %
09.03.2021 02:54 -4,1 C -3,3 C -1,1 C 0,6 C 88 % 200 cb 4 cb 1020,4 hPa 0,0 l/m 1,6 km/h (1 Bft) N-NW 337 0 min 0,000 mm 0,0 UV-I 0 W/m -5,8 C -4,1 C 3,2 km/h (1 Bft) 95,65 %
09.03.2021 02:53 -4,1 C -2,8 C -1,1 C 0,6 C 88 % 200 cb 4 cb 1020,4 hPa 0,0 l/m 1,6 km/h (1 Bft) N-NW 337 0 min 0,000 mm 0,0 UV-I 0 W/m -5,8 C -4,1 C 1,6 km/h (1 Bft) 86,96 %
09.03.2021 02:52 -4,1 C -2,8 C -1,1 C 0,6 C 88 % 200 cb 4 cb 1020,4 hPa 0,0 l/m 1,6 km/h (1 Bft) N-NW 337 0 min 0,000 mm 0,0 UV-I 0 W/m -5,8 C -4,1 C 1,6 km/h (1 Bft) 95,65 %
09.03.2021 02:51 -4,1 C -2,8 C -1,1 C 0,6 C 88 % 200 cb 4 cb 1020,4 hPa 0,0 l/m 0,0 km/h (0 Bft) S 180 0 min 0,000 mm 0,0 UV-I 0 W/m -5,8 C -4,1 C 1,6 km/h (1 Bft) 91,30 %
09.03.2021 02:50 -4,2 C -3,3 C -1,1 C 0,6 C 88 % 200 cb 4 cb 1020,4 hPa 0,0 l/m 0,0 km/h (0 Bft) N 0 0 min 0,000 mm 0,0 UV-I 0 W/m -5,9 C -4,2 C 0,0 km/h (0 Bft) 91,30 %
09.03.2021 02:49 -4,2 C -3,3 C -1,1 C 0,6 C 88 % 200 cb 4 cb 1020,4 hPa 0,0 l/m 0,0 km/h (0 Bft) N-NW 337 0 min 0,000 mm 0,0 UV-I 0 W/m -5,9 C -4,2 C 1,6 km/h (1 Bft) 91,30 %
09.03.2021 02:48 -4,3 C -3,3 C -1,1 C 0,6 C 88 % 200 cb 4 cb 1020,5 hPa 0,0 l/m 0,0 km/h (0 Bft) NW 315 0 min 0,000 mm 0,0 UV-I 0 W/m -6,0 C -4,3 C 1,6 km/h (1 Bft) 95,65 %
09.03.2021 02:47 -4,3 C -3,3 C -1,1 C 0,6 C 88 % 200 cb 4 cb 1020,4 hPa 0,0 l/m 0,0 km/h (0 Bft) NO 45 0 min 0,000 mm 0,0 UV-I 0 W/m -6,0 C -4,3 C 1,6 km/h (1 Bft) 86,96 %
09.03.2021 02:46 -4,4 C -3,3 C -1,1 C 0,6 C 88 % 200 cb 4 cb 1020,5 hPa 0,0 l/m 1,6 km/h (1 Bft) O-NO 67 0 min 0,000 mm 0,0 UV-I 0 W/m -6,1 C -4,4 C 1,6 km/h (1 Bft) 91,30 %
09.03.2021 02:45 -4,4 C -3,3 C -1,1 C 0,6 C 88 % 200 cb 4 cb 1020,4 hPa 0,0 l/m 0,0 km/h (0 Bft) SO 135 0 min 0,000 mm 0,0 UV-I 0 W/m -6,1 C -4,4 C 1,6 km/h (1 Bft) 91,30 %
09.03.2021 02:44 -4,4 C -3,3 C -1,1 C 0,6 C 88 % 200 cb 4 cb 1020,4 hPa 0,0 l/m 1,6 km/h (1 Bft) W-NW 292 0 min 0,000 mm 0,0 UV-I 0 W/m -6,1 C -4,4 C 3,2 km/h (1 Bft) 95,65 %
09.03.2021 02:43 -4,5 C -3,3 C -1,1 C 0,6 C 89 % 200 cb 4 cb 1020,4 hPa 0,0 l/m 1,6 km/h (1 Bft) NW 315 0 min 0,000 mm 0,0 UV-I 0 W/m -6,0 C -4,5 C 3,2 km/h (1 Bft) 86,96 %
09.03.2021 02:42 -4,5 C -3,3 C -1,1 C 1,1 C 88 % 200 cb 4 cb 1020,3 hPa 0,0 l/m 1,6 km/h (1 Bft) NW 315 0 min 0,000 mm 0,0 UV-I 0 W/m -6,2 C -4,5 C 3,2 km/h (1 Bft) 91,30 %
09.03.2021 02:41 -4,6 C -3,3 C -1,1 C 0,6 C 88 % 200 cb 4 cb 1020,5 hPa 0,0 l/m 1,6 km/h (1 Bft) W-NW 292 0 min 0,000 mm 0,0 UV-I 0 W/m -6,3 C -4,6 C 1,6 km/h (1 Bft) 91,30 %
09.03.2021 02:40 -4,6 C -3,3 C -1,1 C 0,6 C 88 % 200 cb 4 cb 1020,5 hPa 0,0 l/m 1,6 km/h (1 Bft) NW 315 0 min 0,000 mm 0,0 UV-I 0 W/m -6,3 C -4,6 C 1,6 km/h (1 Bft) 95,65 %
09.03.2021 02:39 -4,6 C -3,3 C -1,1 C 1,1 C 89 % 200 cb 4 cb 1020,5 hPa 0,0 l/m 1,6 km/h (1 Bft) NW 315 0 min 0,000 mm 0,0 UV-I 0 W/m -6,1 C -4,6 C 1,6 km/h (1 Bft) 91,30 %
09.03.2021 02:38 -4,6 C -3,3 C -1,1 C 1,1 C 88 % 200 cb 4 cb 1020,5 hPa 0,0 l/m 1,6 km/h (1 Bft) NW 315 0 min 0,000 mm 0,0 UV-I 0 W/m -6,3 C -4,6 C 1,6 km/h (1 Bft) 95,65 %
09.03.2021 02:37 -4,7 C -3,3 C -1,1 C 0,6 C 88 % 200 cb 4 cb 1020,5 hPa 0,0 l/m 0,0 km/h (0 Bft) NW 315 0 min 0,000 mm 0,0 UV-I 0 W/m -6,4 C -4,7 C 1,6 km/h (1 Bft) 91,30 %
09.03.2021 02:36 -4,7 C -3,3 C -1,1 C 0,6 C 88 % 200 cb 4 cb 1020,6 hPa 0,0 l/m 0,0 km/h (0 Bft) SO 135 0 min 0,000 mm 0,0 UV-I 0 W/m -6,4 C -4,7 C 1,6 km/h (1 Bft) 91,30 %
09.03.2021 02:35 -4,7 C -3,3 C -1,7 C 0,6 C 88 % 200 cb 4 cb 1020,5 hPa 0,0 l/m 0,0 km/h (0 Bft) SO 135 0 min 0,000 mm 0,0 UV-I 0 W/m -6,4 C -4,7 C 1,6 km/h (1 Bft) 91,30 %
09.03.2021 02:34 -4,7 C -3,3 C -1,7 C 0,6 C 88 % 200 cb 4 cb 1020,6 hPa 0,0 l/m 1,6 km/h (1 Bft) O-SO 112 0 min 0,000 mm 0,0 UV-I 0 W/m -6,4 C -4,7 C 1,6 km/h (1 Bft) 95,65 %
09.03.2021 02:33 -4,7 C -3,9 C -1,7 C 1,1 C 88 % 200 cb 4 cb 1020,7 hPa 0,0 l/m 1,6 km/h (1 Bft) O-SO 112 0 min 0,000 mm 0,0 UV-I 0 W/m -6,4 C -4,7 C 1,6 km/h (1 Bft) 91,30 %
09.03.2021 02:32 -4,7 C -3,9 C -1,7 C 1,1 C 88 % 200 cb 4 cb 1020,6 hPa 0,0 l/m 1,6 km/h (1 Bft) S-SO 157 0 min 0,000 mm 0,0 UV-I 0 W/m -6,4 C -4,7 C 1,6 km/h (1 Bft) 95,65 %
09.03.2021 02:31 -4,6 C -3,9 C -1,7 C 0,6 C 88 % 200 cb 3 cb 1020,7 hPa 0,0 l/m 0,0 km/h (0 Bft) NO 45 0 min 0,000 mm 0,0 UV-I 0 W/m -6,3 C -4,6 C 1,6 km/h (1 Bft) 86,96 %
09.03.2021 02:30 -4,6 C -3,9 C -1,7 C 0,6 C 88 % 200 cb 3 cb 1020,6 hPa 0,0 l/m 0,0 km/h (0 Bft) SO 135 0 min 0,000 mm 0,0 UV-I 0 W/m -6,3 C -4,6 C 1,6 km/h (1 Bft) 95,65 %
09.03.2021 02:29 -4,6 C -3,9 C -1,7 C 1,1 C 88 % 200 cb 3 cb 1020,5 hPa 0,0 l/m 0,0 km/h (0 Bft) O-SO 112 0 min 0,000 mm 0,0 UV-I 0 W/m -6,3 C -4,6 C 3,2 km/h (1 Bft) 86,96 %
09.03.2021 02:28 -4,5 C -3,9 C -1,7 C 0,6 C 88 % 200 cb 3 cb 1020,6 hPa 0,0 l/m 1,6 km/h (1 Bft) SO 135 0 min 0,000 mm 0,0 UV-I 0 W/m -6,2 C -4,5 C 1,6 km/h (1 Bft) 95,65 %
09.03.2021 02:27 -4,6 C -3,9 C -1,7 C 1,1 C 88 % 200 cb 3 cb 1020,6 hPa 0,0 l/m 1,6 km/h (1 Bft) O-SO 112 0 min 0,000 mm 0,0 UV-I 0 W/m -6,3 C -4,6 C 3,2 km/h (1 Bft) 91,30 %
09.03.2021 02:26 -4,5 C -4,4 C -1,7 C 1,1 C 88 % 200 cb 4 cb 1020,6 hPa 0,0 l/m 1,6 km/h (1 Bft) O-SO 112 0 min 0,000 mm 0,0 UV-I 0 W/m -6,2 C -4,5 C 3,2 km/h (1 Bft) 95,65 %
09.03.2021 02:25 -4,5 C -3,9 C -1,7 C 1,1 C 88 % 200 cb 4 cb 1020,7 hPa 0,0 l/m 3,2 km/h (1 Bft) O-SO 112 0 min 0,000 mm 0,0 UV-I 0 W/m -6,2 C -4,5 C 3,2 km/h (1 Bft) 86,96 %
09.03.2021 02:24 -4,5 C -3,9 C -1,7 C 1,1 C 87 % 200 cb 4 cb 1020,7 hPa 0,0 l/m 3,2 km/h (1 Bft) O-SO 112 0 min 0,000 mm 0,0 UV-I 0 W/m -6,3 C -4,5 C 3,2 km/h (1 Bft) 95,65 %
09.03.2021 02:23 -4,4 C -3,9 C -1,7 C 1,1 C 87 % 200 cb 4 cb 1020,7 hPa 0,0 l/m 3,2 km/h (1 Bft) O-SO 112 0 min 0,000 mm 0,0 UV-I 0 W/m -6,2 C -4,4 C 3,2 km/h (1 Bft) 91,30 %
09.03.2021 02:22 -4,3 C -3,9 C -1,7 C 1,1 C 87 % 200 cb 4 cb 1020,7 hPa 0,0 l/m 1,6 km/h (1 Bft) SO 135 0 min 0,000 mm 0,0 UV-I 0 W/m -6,1 C -4,3 C 3,2 km/h (1 Bft) 91,30 %
09.03.2021 02:21 -4,3 C -3,9 C -1,7 C 1,1 C 87 % 200 cb 4 cb 1020,8 hPa 0,0 l/m 1,6 km/h (1 Bft) O-SO 112 0 min 0,000 mm 0,0 UV-I 0 W/m -6,1 C -4,3 C 1,6 km/h (1 Bft) 91,30 %
09.03.2021 02:20 -4,2 C -3,9 C -1,7 C 0,6 C 88 % 200 cb 4 cb 1020,8 hPa 0,0 l/m 0,0 km/h (0 Bft) O-SO 112 0 min 0,000 mm 0,0 UV-I 0 W/m -5,9 C -4,2 C 1,6 km/h (1 Bft) 86,96 %
09.03.2021 02:19 -4,2 C -3,9 C -1,7 C 1,1 C 88 % 200 cb 4 cb 1020,7 hPa 0,0 l/m 0,0 km/h (0 Bft) O 90 0 min 0,000 mm 0,0 UV-I 0 W/m -5,9 C -4,2 C 1,6 km/h (1 Bft) 86,96 %
09.03.2021 02:18 -4,2 C -3,9 C -1,7 C 1,1 C 88 % 200 cb 4 cb 1020,8 hPa 0,0 l/m 0,0 km/h (0 Bft) N 360 0 min 0,000 mm 0,0 UV-I 0 W/m -5,9 C -4,2 C 1,6 km/h (1 Bft) 91,30 %
09.03.2021 02:17 -4,2 C -3,9 C -1,7 C 1,1 C 88 % 200 cb 4 cb 1020,9 hPa 0,0 l/m 1,6 km/h (1 Bft) NO 45 0 min 0,000 mm 0,0 UV-I 0 W/m -5,9 C -4,2 C 1,6 km/h (1 Bft) 91,30 %
09.03.2021 02:16 -4,3 C -3,9 C -1,7 C 1,1 C 88 % 200 cb 4 cb 1020,7 hPa 0,0 l/m 0,0 km/h (0 Bft) N-NW 337 0 min 0,000 mm 0,0 UV-I 0 W/m -6,0 C -4,3 C 1,6 km/h (1 Bft) 91,30 %
09.03.2021 02:15 -4,3 C -3,9 C -1,7 C 1,1 C 88 % 200 cb 4 cb 1020,8 hPa 0,0 l/m 0,0 km/h (0 Bft) NW 315 0 min 0,000 mm 0,0 UV-I 0 W/m -6,0 C -4,3 C 1,6 km/h (1 Bft) 95,65 %
09.03.2021 02:14 -4,3 C -3,9 C -1,7 C 1,1 C 89 % 200 cb 4 cb 1020,9 hPa 0,0 l/m 1,6 km/h (1 Bft) NW 315 0 min 0,000 mm 0,0 UV-I 0 W/m -5,8 C -4,3 C 1,6 km/h (1 Bft) 86,96 %
09.03.2021 02:13 -4,4 C -3,9 C -1,7 C 1,1 C 89 % 200 cb 4 cb 1020,9 hPa 0,0 l/m 0,0 km/h (0 Bft) O 90 0 min 0,000 mm 0,0 UV-I 0 W/m -5,9 C -4,4 C 1,6 km/h (1 Bft) 95,65 %
09.03.2021 02:12 -4,4 C -3,9 C -1,7 C 1,1 C 88 % 200 cb 4 cb 1020,9 hPa 0,0 l/m 0,0 km/h (0 Bft) W 270 0 min 0,000 mm 0,0 UV-I 0 W/m -6,1 C -4,4 C 1,6 km/h (1 Bft) 91,30 %
09.03.2021 02:11 -4,4 C -3,9 C -1,7 C 1,1 C 88 % 200 cb 4 cb 1020,8 hPa 0,0 l/m 0,0 km/h (0 Bft) N 360 0 min 0,000 mm 0,0 UV-I 0 W/m -6,1 C -4,4 C 1,6 km/h (1 Bft) 95,65 %
09.03.2021 02:10 -4,4 C -3,9 C -1,7 C 1,1 C 88 % 200 cb 4 cb 1020,9 hPa 0,0 l/m 0,0 km/h (0 Bft) W 270 0 min 0,000 mm 0,0 UV-I 0 W/m -6,1 C -4,4 C 1,6 km/h (1 Bft) 86,96 %
09.03.2021 02:09 -4,4 C -4,4 C -1,7 C 1,1 C 88 % 200 cb 4 cb 1020,8 hPa 0,0 l/m 1,6 km/h (1 Bft) W 270 0 min 0,000 mm 0,0 UV-I 0 W/m -6,1 C -4,4 C 1,6 km/h (1 Bft) 91,30 %
09.03.2021 02:08 -4,4 C -4,4 C -1,7 C 1,1 C 88 % 200 cb 4 cb 1020,9 hPa 0,0 l/m 1,6 km/h (1 Bft) W-SW 247 0 min 0,000 mm 0,0 UV-I 0 W/m -6,1 C -4,4 C 3,2 km/h (1 Bft) 65,22 %
09.03.2021 02:07 -4,4 C -4,4 C -1,7 C 1,1 C 88 % 200 cb 4 cb 1020,8 hPa 0,0 l/m 0,0 km/h (0 Bft) S 180 0 min 0,000 mm 0,0 UV-I 0 W/m -6,1 C -4,4 C 1,6 km/h (1 Bft) 17,39 %
09.03.2021 02:06 -4,4 C -4,4 C -1,7 C 1,1 C 87 % 200 cb 3 cb 1020,9 hPa 0,0 l/m 0,0 km/h (0 Bft) S 180 0 min 0,000 mm 0,0 UV-I 0 W/m -6,2 C -4,4 C 1,6 km/h (1 Bft) 86,96 %
09.03.2021 02:05 -4,3 C -4,4 C -1,7 C 1,1 C 87 % 200 cb 3 cb 1020,9 hPa 0,0 l/m 1,6 km/h (1 Bft) O-SO 112 0 min 0,000 mm 0,0 UV-I 0 W/m -6,1 C -4,3 C 1,6 km/h (1 Bft) 91,30 %
09.03.2021 02:04 -4,3 C -3,9 C -1,7 C 1,1 C 87 % 200 cb 3 cb 1020,9 hPa 0,0 l/m 0,0 km/h (0 Bft) SO 135 0 min 0,000 mm 0,0 UV-I 0 W/m -6,1 C -4,3 C 1,6 km/h (1 Bft) 82,61 %
09.03.2021 02:03 -4,2 C -3,9 C -1,7 C 1,1 C 88 % 200 cb 3 cb 1021,0 hPa 0,0 l/m 0,0 km/h (0 Bft) SO 135 0 min 0,000 mm 0,0 UV-I 0 W/m -5,9 C -4,2 C 1,6 km/h (1 Bft) 91,30 %
09.03.2021 02:02 -4,2 C -3,9 C -1,7 C 1,1 C 88 % 200 cb 3 cb 1020,9 hPa 0,0 l/m 0,0 km/h (0 Bft) O-SO 112 0 min 0,000 mm 0,0 UV-I 0 W/m -5,9 C -4,2 C 1,6 km/h (1 Bft) 82,61 %
09.03.2021 02:01 -4,1 C -3,9 C -1,7 C 1,1 C 88 % 200 cb 3 cb 1020,9 hPa 0,0 l/m 0,0 km/h (0 Bft) NO 45 0 min 0,000 mm 0,0 UV-I 0 W/m -5,8 C -4,1 C 1,6 km/h (1 Bft) 95,65 %
09.03.2021 02:00 -4,1 C -3,9 C -1,7 C 1,1 C 88 % 200 cb 4 cb 1020,9 hPa 0,0 l/m 0,0 km/h (0 Bft) N 0 0 min 0,000 mm 0,0 UV-I 0 W/m -5,8 C -4,1 C 0,0 km/h (0 Bft) 86,96 %
09.03.2021 01:59 -4,1 C -3,9 C -1,7 C 1,1 C 88 % 200 cb 4 cb 1020,9 hPa 0,0 l/m 0,0 km/h (0 Bft) SO 135 0 min 0,000 mm 0,0 UV-I 0 W/m -5,8 C -4,1 C 1,6 km/h (1 Bft) 95,65 %
09.03.2021 01:58 -4,1 C -3,9 C -1,7 C 1,1 C 88 % 200 cb 4 cb 1020,8 hPa 0,0 l/m 0,0 km/h (0 Bft) N 360 0 min 0,000 mm 0,0 UV-I 0 W/m -5,8 C -4,1 C 1,6 km/h (1 Bft) 82,61 %
09.03.2021 01:57 -4,1 C -3,9 C -1,7 C 1,1 C 88 % 200 cb 4 cb 1020,9 hPa 0,0 l/m 0,0 km/h (0 Bft) O-SO 112 0 min 0,000 mm 0,0 UV-I 0 W/m -5,8 C -4,1 C 1,6 km/h (1 Bft) 95,65 %
09.03.2021 01:56 -4,1 C -3,9 C -1,7 C 1,1 C 87 % 200 cb 4 cb 1020,9 hPa 0,0 l/m 0,0 km/h (0 Bft) N 0 0 min 0,000 mm 0,0 UV-I 0 W/m -5,9 C -4,1 C 0,0 km/h (0 Bft) 86,96 %
09.03.2021 01:55 -4,1 C -3,9 C -1,7 C 1,1 C 87 % 200 cb 4 cb 1020,9 hPa 0,0 l/m 0,0 km/h (0 Bft) NO 45 0 min 0,000 mm 0,0 UV-I 0 W/m -5,9 C -4,1 C 1,6 km/h (1 Bft) 95,65 %
09.03.2021 01:54 -4,1 C -3,9 C -1,7 C 1,1 C 87 % 200 cb 4 cb 1021,0 hPa 0,0 l/m 1,6 km/h (1 Bft) W 270 0 min 0,000 mm 0,0 UV-I 0 W/m -5,9 C -4,1 C 1,6 km/h (1 Bft) 82,61 %
09.03.2021 01:53 -4,1 C -3,9 C -1,7 C 1,1 C 87 % 200 cb 4 cb 1021,0 hPa 0,0 l/m 1,6 km/h (1 Bft) NO 45 0 min 0,000 mm 0,0 UV-I 0 W/m -5,9 C -4,1 C 3,2 km/h (1 Bft) 95,65 %
09.03.2021 01:52 -4,0 C -3,9 C -1,7 C 1,1 C 87 % 200 cb 4 cb 1020,9 hPa 0,0 l/m 1,6 km/h (1 Bft) NO 45 0 min 0,000 mm 0,0 UV-I 0 W/m -5,8 C -4,0 C 1,6 km/h (1 Bft) 78,26 %
09.03.2021 01:51 -4,0 C -3,9 C -1,7 C 1,1 C 87 % 200 cb 4 cb 1020,9 hPa 0,0 l/m 0,0 km/h (0 Bft) NO 45 0 min 0,000 mm 0,0 UV-I 0 W/m -5,8 C -4,0 C 1,6 km/h (1 Bft) 91,30 %
09.03.2021 01:50 -4,0 C -3,9 C -1,7 C 1,1 C 87 % 200 cb 4 cb 1021,0 hPa 0,0 l/m 1,6 km/h (1 Bft) O 90 0 min 0,000 mm 0,0 UV-I 0 W/m -5,8 C -4,0 C 3,2 km/h (1 Bft) 86,96 %
09.03.2021 01:49 -4,0 C -3,9 C -1,7 C 1,1 C 87 % 200 cb 4 cb 1021,0 hPa 0,0 l/m 1,6 km/h (1 Bft) O-SO 112 0 min 0,000 mm 0,0 UV-I 0 W/m -5,8 C -4,0 C 3,2 km/h (1 Bft) 91,30 %
09.03.2021 01:48 -4,0 C -3,9 C -1,7 C 1,1 C 87 % 200 cb 4 cb 1021,0 hPa 0,0 l/m 1,6 km/h (1 Bft) O 90 0 min 0,000 mm 0,0 UV-I 0 W/m -5,8 C -4,0 C 3,2 km/h (1 Bft) 86,96 %
09.03.2021 01:47 -3,9 C -3,9 C -1,7 C 1,1 C 87 % 200 cb 4 cb 1021,0 hPa 0,0 l/m 1,6 km/h (1 Bft) O 90 0 min 0,000 mm 0,0 UV-I 0 W/m -5,7 C -3,9 C 3,2 km/h (1 Bft) 91,30 %
09.03.2021 01:46 -3,9 C -3,9 C -1,7 C 1,1 C 87 % 200 cb 4 cb 1021,1 hPa 0,0 l/m 1,6 km/h (1 Bft) O 90 0 min 0,000 mm 0,0 UV-I 0 W/m -5,7 C -3,9 C 3,2 km/h (1 Bft) 91,30 %
09.03.2021 01:45 -3,9 C -3,9 C -1,7 C 1,1 C 87 % 200 cb 4 cb 1021,1 hPa 0,0 l/m 1,6 km/h (1 Bft) N-NO 22 0 min 0,000 mm 0,0 UV-I 0 W/m -5,7 C -3,9 C 3,2 km/h (1 Bft) 95,65 %
09.03.2021 01:44 -3,9 C -3,9 C -1,7 C 1,1 C 87 % 200 cb 4 cb 1021,3 hPa 0,0 l/m 1,6 km/h (1 Bft) N 360 0 min 0,000 mm 0,0 UV-I 0 W/m -5,7 C -3,9 C 1,6 km/h (1 Bft) 91,30 %
09.03.2021 01:43 -3,9 C -3,9 C -1,7 C 1,1 C 87 % 200 cb 4 cb 1021,0 hPa 0,0 l/m 1,6 km/h (1 Bft) N 360 0 min 0,000 mm 0,0 UV-I 0 W/m -5,7 C -3,9 C 3,2 km/h (1 Bft) 95,65 %
09.03.2021 01:42 -3,9 C -4,4 C -1,7 C 1,1 C 87 % 200 cb 4 cb 1021,1 hPa 0,0 l/m 1,6 km/h (1 Bft) O-SO 112 0 min 0,000 mm 0,0 UV-I 0 W/m -5,7 C -3,9 C 3,2 km/h (1 Bft) 91,30 %
09.03.2021 01:41 -3,9 C -4,4 C -1,7 C 1,1 C 88 % 200 cb 4 cb 1021,1 hPa 0,0 l/m 1,6 km/h (1 Bft) O-NO 67 0 min 0,000 mm 0,0 UV-I 0 W/m -5,6 C -3,9 C 1,6 km/h (1 Bft) 91,30 %
09.03.2021 01:40 -4,0 C -4,4 C -1,7 C 1,1 C 88 % 200 cb 4 cb 1021,0 hPa 0,0 l/m 1,6 km/h (1 Bft) NO 45 0 min 0,000 mm 0,0 UV-I 0 W/m -5,7 C -4,0 C 3,2 km/h (1 Bft) 86,96 %
09.03.2021 01:39 -4,1 C -4,4 C -1,7 C 1,1 C 87 % 200 cb 4 cb 1021,1 hPa 0,0 l/m 3,2 km/h (1 Bft) N-NW 337 0 min 0,000 mm 0,0 UV-I 0 W/m -5,9 C -4,1 C 4,8 km/h (1 Bft) 95,65 %
09.03.2021 01:38 -4,2 C -4,4 C -1,7 C 1,1 C 87 % 200 cb 3 cb 1021,1 hPa 0,0 l/m 3,2 km/h (1 Bft) N-NW 337 0 min 0,000 mm 0,0 UV-I 0 W/m -6,0 C -4,2 C 4,8 km/h (1 Bft) 91,30 %
09.03.2021 01:37 -4,2 C -4,4 C -1,7 C 1,1 C 87 % 200 cb 3 cb 1021,2 hPa 0,0 l/m 3,2 km/h (1 Bft) W-NW 292 0 min 0,000 mm 0,0 UV-I 0 W/m -6,0 C -4,2 C 4,8 km/h (1 Bft) 91,30 %
09.03.2021 01:36 -4,2 C -4,4 C -1,7 C 1,1 C 87 % 200 cb 4 cb 1021,1 hPa 0,0 l/m 3,2 km/h (1 Bft) W-NW 292 0 min 0,000 mm 0,0 UV-I 0 W/m -6,0 C -4,2 C 4,8 km/h (1 Bft) 86,96 %
09.03.2021 01:35 -4,2 C -4,4 C -1,7 C 1,1 C 87 % 200 cb 4 cb 1021,1 hPa 0,0 l/m 3,2 km/h (1 Bft) W-NW 292 0 min 0,000 mm 0,0 UV-I 0 W/m -6,0 C -4,2 C 3,2 km/h (1 Bft) 91,30 %
09.03.2021 01:34 -4,2 C -4,4 C -1,7 C 1,1 C 87 % 200 cb 4 cb 1021,2 hPa 0,0 l/m 3,2 km/h (1 Bft) W-NW 292 0 min 0,000 mm 0,0 UV-I 0 W/m -6,0 C -4,2 C 4,8 km/h (1 Bft) 91,30 %
09.03.2021 01:33 -4,1 C -4,4 C -1,7 C 1,1 C 87 % 200 cb 4 cb 1021,2 hPa 0,0 l/m 3,2 km/h (1 Bft) W-NW 292 0 min 0,000 mm 0,0 UV-I 0 W/m -5,9 C -4,1 C 3,2 km/h (1 Bft) 95,65 %
09.03.2021 01:32 -4,1 C -4,4 C -1,7 C 1,1 C 87 % 200 cb 4 cb 1021,2 hPa 0,0 l/m 1,6 km/h (1 Bft) W-NW 292 0 min 0,000 mm 0,0 UV-I 0 W/m -5,9 C -4,1 C 3,2 km/h (1 Bft) 91,30 %
09.03.2021 01:31 -4,1 C -4,4 C -1,7 C 1,1 C 87 % 200 cb 4 cb 1021,2 hPa 0,0 l/m 1,6 km/h (1 Bft) NW 315 0 min 0,000 mm 0,0 UV-I 0 W/m -5,9 C -4,1 C 3,2 km/h (1 Bft) 91,30 %
09.03.2021 01:30 -4,1 C -4,4 C -1,7 C 1,1 C 87 % 200 cb 3 cb 1021,2 hPa 0,0 l/m 0,0 km/h (0 Bft) SO 135 0 min 0,000 mm 0,0 UV-I 0 W/m -5,9 C -4,1 C 1,6 km/h (1 Bft) 91,30 %
09.03.2021 01:29 -4,0 C -4,4 C -1,7 C 1,1 C 87 % 200 cb 4 cb 1021,3 hPa 0,0 l/m 1,6 km/h (1 Bft) O-SO 112 0 min 0,000 mm 0,0 UV-I 0 W/m -5,8 C -4,0 C 1,6 km/h (1 Bft) 91,30 %
09.03.2021 01:28 -4,0 C -4,4 C -1,7 C 1,1 C 87 % 200 cb 4 cb 1021,2 hPa 0,0 l/m 1,6 km/h (1 Bft) SW 225 0 min 0,000 mm 0,0 UV-I 0 W/m -5,8 C -4,0 C 1,6 km/h (1 Bft) 91,30 %
09.03.2021 01:27 -3,9 C -4,4 C -1,7 C 1,1 C 86 % 200 cb 4 cb 1021,2 hPa 0,0 l/m 1,6 km/h (1 Bft) W-SW 247 0 min 0,000 mm 0,0 UV-I 0 W/m -5,9 C -3,9 C 3,2 km/h (1 Bft) 95,65 %
09.03.2021 01:26 -3,9 C -4,4 C -1,7 C 1,1 C 86 % 200 cb 4 cb 1021,2 hPa 0,0 l/m 1,6 km/h (1 Bft) W-SW 247 0 min 0,000 mm 0,0 UV-I 0 W/m -5,9 C -3,9 C 3,2 km/h (1 Bft) 91,30 %
09.03.2021 01:25 -3,8 C -4,4 C -1,7 C 1,1 C 87 % 200 cb 4 cb 1021,3 hPa 0,0 l/m 1,6 km/h (1 Bft) W-SW 247 0 min 0,000 mm 0,0 UV-I 0 W/m -5,6 C -3,8 C 1,6 km/h (1 Bft) 86,96 %
09.03.2021 01:24 -3,8 C -4,4 C -1,7 C 1,1 C 87 % 200 cb 4 cb 1021,3 hPa 0,0 l/m 0,0 km/h (0 Bft) W-SW 247 0 min 0,000 mm 0,0 UV-I 0 W/m -5,6 C -3,8 C 1,6 km/h (1 Bft) 91,30 %
09.03.2021 01:23 -3,8 C -4,4 C -1,7 C 1,1 C 87 % 200 cb 4 cb 1021,3 hPa 0,0 l/m 0,0 km/h (0 Bft) NW 315 0 min 0,000 mm 0,0 UV-I 0 W/m -5,6 C -3,8 C 1,6 km/h (1 Bft) 95,65 %
09.03.2021 01:22 -3,8 C -4,4 C -1,7 C 1,1 C 86 % 200 cb 4 cb 1021,3 hPa 0,0 l/m 0,0 km/h (0 Bft) NW 315 0 min 0,000 mm 0,0 UV-I 0 W/m -5,8 C -3,8 C 1,6 km/h (1 Bft) 86,96 %
09.03.2021 01:21 -3,7 C -4,4 C -1,7 C 1,1 C 87 % 200 cb 4 cb 1021,3 hPa 0,0 l/m 0,0 km/h (0 Bft) SO 135 0 min 0,000 mm 0,0 UV-I 0 W/m -5,5 C -3,7 C 1,6 km/h (1 Bft) 91,30 %
09.03.2021 01:20 -3,7 C -4,4 C -1,7 C 1,1 C 87 % 200 cb 4 cb 1021,3 hPa 0,0 l/m 1,6 km/h (1 Bft) O 90 0 min 0,000 mm 0,0 UV-I 0 W/m -5,5 C -3,7 C 1,6 km/h (1 Bft) 86,96 %
09.03.2021 01:19 -3,7 C -4,4 C -1,7 C 1,1 C 87 % 200 cb 4 cb 1021,2 hPa 0,0 l/m 1,6 km/h (1 Bft) O-SO 112 0 min 0,000 mm 0,0 UV-I 0 W/m -5,5 C -3,7 C 3,2 km/h (1 Bft) 91,30 %
09.03.2021 01:18 -3,7 C -4,4 C -1,7 C 1,1 C 86 % 200 cb 3 cb 1021,3 hPa 0,0 l/m 1,6 km/h (1 Bft) O-SO 112 0 min 0,000 mm 0,0 UV-I 0 W/m -5,7 C -3,7 C 3,2 km/h (1 Bft) 91,30 %
09.03.2021 01:17 -3,7 C -4,4 C -1,7 C 1,1 C 86 % 200 cb 3 cb 1021,3 hPa 0,0 l/m 1,6 km/h (1 Bft) O-SO 112 0 min 0,000 mm 0,0 UV-I 0 W/m -5,7 C -3,7 C 3,2 km/h (1 Bft) 95,65 %
09.03.2021 01:16 -3,7 C -4,4 C -1,7 C 1,1 C 86 % 200 cb 3 cb 1021,3 hPa 0,0 l/m 1,6 km/h (1 Bft) O-SO 112 0 min 0,000 mm 0,0 UV-I 0 W/m -5,7 C -3,7 C 1,6 km/h (1 Bft) 86,96 %
09.03.2021 01:15 -3,7 C -4,4 C -1,7 C 1,1 C 86 % 200 cb 3 cb 1021,3 hPa 0,0 l/m 0,0 km/h (0 Bft) O-SO 112 0 min 0,000 mm 0,0 UV-I 0 W/m -5,7 C -3,7 C 1,6 km/h (1 Bft) 95,65 %
09.03.2021 01:14 -3,7 C -4,4 C -1,7 C 1,1 C 86 % 200 cb 3 cb 1021,3 hPa 0,0 l/m 0,0 km/h (0 Bft) NO 45 0 min 0,000 mm 0,0 UV-I 0 W/m -5,7 C -3,7 C 1,6 km/h (1 Bft) 86,96 %
09.03.2021 01:13 -3,7 C -4,4 C -1,7 C 1,1 C 86 % 200 cb 3 cb 1021,2 hPa 0,0 l/m 1,6 km/h (1 Bft) N 360 0 min 0,000 mm 0,0 UV-I 0 W/m -5,7 C -3,7 C 1,6 km/h (1 Bft) 95,65 %
09.03.2021 01:12 -3,7 C -4,4 C -1,7 C 1,1 C 86 % 200 cb 3 cb 1021,2 hPa 0,0 l/m 1,6 km/h (1 Bft) O 90 0 min 0,000 mm 0,0 UV-I 0 W/m -5,7 C -3,7 C 3,2 km/h (1 Bft) 91,30 %
09.03.2021 01:11 -3,7 C -4,4 C -1,7 C 1,1 C 86 % 200 cb 3 cb 1021,2 hPa 0,0 l/m 1,6 km/h (1 Bft) O-SO 112 0 min 0,000 mm 0,0 UV-I 0 W/m -5,7 C -3,7 C 3,2 km/h (1 Bft) 91,30 %
09.03.2021 01:10 -3,6 C -4,4 C -1,1 C 1,1 C 85 % 200 cb 3 cb 1021,1 hPa 0,0 l/m 1,6 km/h (1 Bft) O-SO 112 0 min 0,000 mm 0,0 UV-I 0 W/m -5,7 C -3,6 C 3,2 km/h (1 Bft) 95,65 %
09.03.2021 01:09 -3,6 C -4,4 C -1,1 C 1,1 C 85 % 200 cb 3 cb 1021,2 hPa 0,0 l/m 0,0 km/h (0 Bft) SO 135 0 min 0,000 mm 0,0 UV-I 0 W/m -5,7 C -3,6 C 1,6 km/h (1 Bft) 86,96 %
09.03.2021 01:08 -3,5 C -4,4 C -1,1 C 1,1 C 85 % 200 cb 3 cb 1021,2 hPa 0,0 l/m 0,0 km/h (0 Bft) S 180 0 min 0,000 mm 0,0 UV-I 0 W/m -5,6 C -3,5 C 1,6 km/h (1 Bft) 95,65 %
09.03.2021 01:07 -3,5 C -3,9 C -1,1 C 1,1 C 86 % 200 cb 4 cb 1021,2 hPa 0,0 l/m 0,0 km/h (0 Bft) O 90 0 min 0,000 mm 0,0 UV-I 0 W/m -5,5 C -3,5 C 1,6 km/h (1 Bft) 91,30 %
09.03.2021 01:06 -3,4 C -3,9 C -1,1 C 1,1 C 86 % 200 cb 4 cb 1021,2 hPa 0,0 l/m 0,0 km/h (0 Bft) N 360 0 min 0,000 mm 0,0 UV-I 0 W/m -5,4 C -3,4 C 1,6 km/h (1 Bft) 95,65 %
09.03.2021 01:05 -3,4 C -4,4 C -1,1 C 1,1 C 86 % 200 cb 3 cb 1021,2 hPa 0,0 l/m 0,0 km/h (0 Bft) SO 135 0 min 0,000 mm 0,0 UV-I 0 W/m -5,4 C -3,4 C 1,6 km/h (1 Bft) 91,30 %
09.03.2021 01:04 -3,4 C -4,4 C -1,1 C 1,1 C 85 % 200 cb 3 cb 1021,3 hPa 0,0 l/m 0,0 km/h (0 Bft) N 360 0 min 0,000 mm 0,0 UV-I 0 W/m -5,5 C -3,4 C 1,6 km/h (1 Bft) 95,65 %
09.03.2021 01:03 -3,4 C -4,4 C -1,1 C 1,1 C 85 % 200 cb 4 cb 1021,2 hPa 0,0 l/m 1,6 km/h (1 Bft) SO 135 0 min 0,000 mm 0,0 UV-I 0 W/m -5,5 C -3,4 C 1,6 km/h (1 Bft) 86,96 %
09.03.2021 01:02 -3,4 C -3,9 C -1,1 C 1,1 C 85 % 200 cb 4 cb 1021,2 hPa 0,0 l/m 1,6 km/h (1 Bft) S-SO 157 0 min 0,000 mm 0,0 UV-I 0 W/m -5,5 C -3,4 C 3,2 km/h (1 Bft) 91,30 %
09.03.2021 01:01 -3,4 C -3,9 C -1,1 C 1,1 C 85 % 200 cb 4 cb 1021,2 hPa 0,0 l/m 1,6 km/h (1 Bft) S-SO 157 0 min 0,000 mm 0,0 UV-I 0 W/m -5,5 C -3,4 C 3,2 km/h (1 Bft) 91,30 %
09.03.2021 01:00 -3,4 C -3,9 C -1,1 C 1,1 C 85 % 200 cb 3 cb 1021,2 hPa 0,0 l/m 1,6 km/h (1 Bft) O-SO 112 0 min 0,000 mm 0,0 UV-I 0 W/m -5,5 C -3,4 C 3,2 km/h (1 Bft) 95,65 %
09.03.2021 00:59 -3,4 C -3,9 C -1,1 C 1,1 C 86 % 200 cb 3 cb 1021,2 hPa 0,0 l/m 1,6 km/h (1 Bft) SO 135 0 min 0,000 mm 0,0 UV-I 0 W/m -5,4 C -3,4 C 1,6 km/h (1 Bft) 91,30 %
09.03.2021 00:58 -3,4 C -3,9 C -1,1 C 1,1 C 85 % 200 cb 4 cb 1021,2 hPa 0,0 l/m 1,6 km/h (1 Bft) NO 45 0 min 0,000 mm 0,0 UV-I 0 W/m -5,5 C -3,4 C 1,6 km/h (1 Bft) 91,30 %
09.03.2021 00:57 -3,4 C -3,9 C -1,1 C 1,1 C 85 % 200 cb 4 cb 1021,2 hPa 0,0 l/m 1,6 km/h (1 Bft) O-SO 112 0 min 0,000 mm 0,0 UV-I 0 W/m -5,5 C -3,4 C 1,6 km/h (1 Bft) 91,30 %
09.03.2021 00:56 -3,4 C -3,9 C -1,1 C 1,1 C 85 % 200 cb 4 cb 1021,1 hPa 0,0 l/m 1,6 km/h (1 Bft) SO 135 0 min 0,000 mm 0,0 UV-I 0 W/m -5,5 C -3,4 C 1,6 km/h (1 Bft) 91,30 %
09.03.2021 00:55 -3,4 C -3,9 C -1,1 C 1,1 C 85 % 200 cb 4 cb 1021,2 hPa 0,0 l/m 1,6 km/h (1 Bft) O-SO 112 0 min 0,000 mm 0,0 UV-I 0 W/m -5,5 C -3,4 C 1,6 km/h (1 Bft) 91,30 %
09.03.2021 00:54 -3,3 C -3,9 C -1,1 C 1,1 C 85 % 200 cb 4 cb 1021,2 hPa 0,0 l/m 0,0 km/h (0 Bft) S 180 0 min 0,000 mm 0,0 UV-I 0 W/m -5,5 C -3,3 C 1,6 km/h (1 Bft) 95,65 %
09.03.2021 00:53 -3,3 C -3,9 C -1,1 C 1,1 C 85 % 200 cb 4 cb 1021,2 hPa 0,0 l/m 1,6 km/h (1 Bft) S-SW 202 0 min 0,000 mm 0,0 UV-I 0 W/m -5,5 C -3,3 C 1,6 km/h (1 Bft) 91,30 %
09.03.2021 00:52 -3,3 C -3,9 C -1,1 C 1,1 C 85 % 200 cb 4 cb 1021,2 hPa 0,0 l/m 1,6 km/h (1 Bft) S-SW 202 0 min 0,000 mm 0,0 UV-I 0 W/m -5,5 C -3,3 C 1,6 km/h (1 Bft) 91,30 %
09.03.2021 00:51 -3,3 C -3,9 C -1,1 C 1,1 C 85 % 200 cb 4 cb 1021,2 hPa 0,0 l/m 0,0 km/h (0 Bft) S 180 0 min 0,000 mm 0,0 UV-I 0 W/m -5,5 C -3,3 C 1,6 km/h (1 Bft) 91,30 %
09.03.2021 00:50 -3,3 C -3,9 C -1,1 C 1,1 C 85 % 200 cb 4 cb 1021,2 hPa 0,0 l/m 0,0 km/h (0 Bft) S 180 0 min 0,000 mm 0,0 UV-I 0 W/m -5,5 C -3,3 C 1,6 km/h (1 Bft) 95,65 %
09.03.2021 00:49 -3,2 C -3,9 C -1,1 C 1,1 C 85 % 200 cb 4 cb 1021,2 hPa 0,0 l/m 0,0 km/h (0 Bft) S 180 0 min 0,000 mm 0,0 UV-I 0 W/m -5,4 C -3,2 C 1,6 km/h (1 Bft) 91,30 %
09.03.2021 00:48 -3,2 C -3,9 C -1,1 C 1,1 C 84 % 200 cb 4 cb 1021,2 hPa 0,0 l/m 0,0 km/h (0 Bft) W 270 0 min 0,000 mm 0,0 UV-I 0 W/m -5,5 C -3,2 C 1,6 km/h (1 Bft) 95,65 %
09.03.2021 00:47 -3,2 C -3,9 C -1,1 C 1,1 C 85 % 200 cb 4 cb 1021,2 hPa 0,0 l/m 0,0 km/h (0 Bft) NW 315 0 min 0,000 mm 0,0 UV-I 0 W/m -5,4 C -3,2 C 1,6 km/h (1 Bft) 86,96 %
09.03.2021 00:46 -3,2 C -3,9 C -1,1 C 1,1 C 85 % 200 cb 4 cb 1021,2 hPa 0,0 l/m 1,6 km/h (1 Bft) SO 135 0 min 0,000 mm 0,0 UV-I 0 W/m -5,4 C -3,2 C 1,6 km/h (1 Bft) 95,65 %
09.03.2021 00:45 -3,2 C -3,9 C -1,1 C 1,1 C 84 % 200 cb 4 cb 1021,3 hPa 0,0 l/m 1,6 km/h (1 Bft) O-SO 112 0 min 0,000 mm 0,0 UV-I 0 W/m -5,5 C -3,2 C 1,6 km/h (1 Bft) 91,30 %
09.03.2021 00:44 -3,1 C -3,9 C -1,1 C 1,1 C 84 % 200 cb 4 cb 1021,2 hPa 0,0 l/m 1,6 km/h (1 Bft) O-SO 112 0 min 0,000 mm 0,0 UV-I 0 W/m -5,4 C -3,1 C 3,2 km/h (1 Bft) 95,65 %
09.03.2021 00:43 -3,1 C -3,3 C -1,1 C 1,1 C 84 % 200 cb 4 cb 1021,3 hPa 0,0 l/m 1,6 km/h (1 Bft) O-SO 112 0 min 0,000 mm 0,0 UV-I 0 W/m -5,4 C -3,1 C 1,6 km/h (1 Bft) 91,30 %
09.03.2021 00:42 -3,1 C -3,3 C -1,1 C 1,1 C 84 % 200 cb 3 cb 1021,2 hPa 0,0 l/m 1,6 km/h (1 Bft) O 90 0 min 0,000 mm 0,0 UV-I 0 W/m -5,4 C -3,1 C 1,6 km/h (1 Bft) 91,30 %
09.03.2021 00:41 -3,0 C -3,3 C -1,1 C 1,1 C 84 % 200 cb 3 cb 1021,2 hPa 0,0 l/m 1,6 km/h (1 Bft) NO 45 0 min 0,000 mm 0,0 UV-I 0 W/m -5,3 C -3,0 C 1,6 km/h (1 Bft) 86,96 %
09.03.2021 00:40 -2,9 C -3,3 C -1,1 C 1,1 C 84 % 200 cb 3 cb 1021,2 hPa 0,0 l/m 0,0 km/h (0 Bft) NO 45 0 min 0,000 mm 0,0 UV-I 0 W/m -5,2 C -2,9 C 1,6 km/h (1 Bft) 86,96 %
09.03.2021 00:39 -2,9 C -3,3 C -1,1 C 1,1 C 84 % 200 cb 3 cb 1021,2 hPa 0,0 l/m 0,0 km/h (0 Bft) NO 45 0 min 0,000 mm 0,0 UV-I 0 W/m -5,2 C -2,9 C 1,6 km/h (1 Bft) 91,30 %
09.03.2021 00:38 -2,9 C -3,3 C -1,1 C 1,1 C 84 % 200 cb 3 cb 1021,2 hPa 0,0 l/m 0,0 km/h (0 Bft) S 180 0 min 0,000 mm 0,0 UV-I 0 W/m -5,2 C -2,9 C 1,6 km/h (1 Bft) 91,30 %
09.03.2021 00:37 -2,8 C -3,3 C -1,1 C 1,1 C 84 % 200 cb 3 cb 1021,2 hPa 0,0 l/m 0,0 km/h (0 Bft) NO 45 0 min 0,000 mm 0,0 UV-I 0 W/m -5,1 C -2,8 C 1,6 km/h (1 Bft) 91,30 %
09.03.2021 00:36 -2,8 C -3,3 C -1,1 C 1,1 C 84 % 200 cb 3 cb 1021,1 hPa 0,0 l/m 0,0 km/h (0 Bft) N-NO 22 0 min 0,000 mm 0,0 UV-I 0 W/m -5,1 C -2,8 C 1,6 km/h (1 Bft) 91,30 %
09.03.2021 00:35 -2,7 C -3,3 C -1,1 C 1,1 C 83 % 200 cb 3 cb 1021,1 hPa 0,0 l/m 0,0 km/h (0 Bft) NO 45 0 min 0,000 mm 0,0 UV-I 0 W/m -5,2 C -2,7 C 1,6 km/h (1 Bft) 86,96 %
09.03.2021 00:34 -2,7 C -3,3 C -1,1 C 1,1 C 83 % 200 cb 3 cb 1021,2 hPa 0,0 l/m 0,0 km/h (0 Bft) N-NO 22 0 min 0,000 mm 0,0 UV-I 0 W/m -5,2 C -2,7 C 1,6 km/h (1 Bft) 95,65 %
09.03.2021 00:33 -2,7 C -3,3 C -1,1 C 1,1 C 83 % 200 cb 4 cb 1021,2 hPa 0,0 l/m 1,6 km/h (1 Bft) NO 45 0 min 0,000 mm 0,0 UV-I 0 W/m -5,2 C -2,7 C 1,6 km/h (1 Bft) 82,61 %
09.03.2021 00:32 -2,7 C -3,3 C -1,1 C 1,1 C 84 % 200 cb 4 cb 1021,1 hPa 0,0 l/m 1,6 km/h (1 Bft) NO 45 0 min 0,000 mm 0,0 UV-I 0 W/m -5,0 C -2,7 C 1,6 km/h (1 Bft) 95,65 %
09.03.2021 00:31 -2,7 C -3,3 C -1,1 C 1,1 C 84 % 200 cb 3 cb 1021,1 hPa 0,0 l/m 1,6 km/h (1 Bft) N-NO 22 0 min 0,000 mm 0,0 UV-I 0 W/m -5,0 C -2,7 C 1,6 km/h (1 Bft) 86,96 %
09.03.2021 00:30 -2,7 C -3,3 C -1,1 C 1,1 C 84 % 200 cb 3 cb 1021,2 hPa 0,0 l/m 1,6 km/h (1 Bft) N-NO 22 0 min 0,000 mm 0,0 UV-I 0 W/m -5,0 C -2,7 C 3,2 km/h (1 Bft) 91,30 %
09.03.2021 00:29 -2,7 C -3,3 C -1,1 C 1,1 C 84 % 200 cb 3 cb 1021,2 hPa 0,0 l/m 1,6 km/h (1 Bft) N 360 0 min 0,000 mm 0,0 UV-I 0 W/m -5,0 C -2,7 C 3,2 km/h (1 Bft) 86,96 %
09.03.2021 00:28 -2,7 C -2,8 C -1,1 C 1,1 C 83 % 200 cb 3 cb 1021,2 hPa 0,0 l/m 1,6 km/h (1 Bft) N 360 0 min 0,000 mm 0,0 UV-I 0 W/m -5,2 C -2,7 C 3,2 km/h (1 Bft) 95,65 %
09.03.2021 00:27 -2,6 C -2,8 C -1,1 C 1,1 C 83 % 200 cb 3 cb 1021,2 hPa 0,0 l/m 1,6 km/h (1 Bft) NW 315 0 min 0,000 mm 0,0 UV-I 0 W/m -5,1 C -2,6 C 3,2 km/h (1 Bft) 86,96 %
09.03.2021 00:26 -2,6 C -2,8 C -1,1 C 1,1 C 83 % 200 cb 3 cb 1021,2 hPa 0,0 l/m 3,2 km/h (1 Bft) W-NW 292 0 min 0,000 mm 0,0 UV-I 0 W/m -5,1 C -2,6 C 3,2 km/h (1 Bft) 95,65 %
09.03.2021 00:25 -2,6 C -2,8 C -1,1 C 1,1 C 83 % 200 cb 3 cb 1021,2 hPa 0,0 l/m 1,6 km/h (1 Bft) W-NW 292 0 min 0,000 mm 0,0 UV-I 0 W/m -5,1 C -2,6 C 3,2 km/h (1 Bft) 82,61 %
09.03.2021 00:24 -2,6 C -2,8 C -1,1 C 1,1 C 83 % 200 cb 3 cb 1021,2 hPa 0,0 l/m 3,2 km/h (1 Bft) W-NW 292 0 min 0,000 mm 0,0 UV-I 0 W/m -5,1 C -2,6 C 3,2 km/h (1 Bft) 95,65 %
09.03.2021 00:23 -2,6 C -2,8 C -1,1 C 1,1 C 83 % 200 cb 3 cb 1021,2 hPa 0,0 l/m 3,2 km/h (1 Bft) W-NW 292 0 min 0,000 mm 0,0 UV-I 0 W/m -5,1 C -2,6 C 3,2 km/h (1 Bft) 86,96 %
09.03.2021 00:22 -2,7 C -2,8 C -1,1 C 1,1 C 83 % 200 cb 3 cb 1021,2 hPa 0,0 l/m 3,2 km/h (1 Bft) W-NW 292 0 min 0,000 mm 0,0 UV-I 0 W/m -5,2 C -2,7 C 3,2 km/h (1 Bft) 95,65 %
09.03.2021 00:21 -2,6 C -2,8 C -1,1 C 1,1 C 83 % 200 cb 3 cb 1021,2 hPa 0,0 l/m 1,6 km/h (1 Bft) W-NW 292 0 min 0,000 mm 0,0 UV-I 0 W/m -5,1 C -2,6 C 3,2 km/h (1 Bft) 86,96 %
09.03.2021 00:20 -2,7 C -2,8 C -1,1 C 1,1 C 83 % 200 cb 3 cb 1021,1 hPa 0,0 l/m 1,6 km/h (1 Bft) W-NW 292 0 min 0,000 mm 0,0 UV-I 0 W/m -5,2 C -2,7 C 3,2 km/h (1 Bft) 95,65 %
09.03.2021 00:19 -2,6 C -2,8 C -1,1 C 1,1 C 83 % 200 cb 3 cb 1021,2 hPa 0,0 l/m 3,2 km/h (1 Bft) W-NW 292 0 min 0,000 mm 0,0 UV-I 0 W/m -5,1 C -2,6 C 3,2 km/h (1 Bft) 82,61 %
09.03.2021 00:18 -2,6 C -2,8 C -1,1 C 1,1 C 83 % 200 cb 3 cb 1021,1 hPa 0,0 l/m 1,6 km/h (1 Bft) W-NW 292 0 min 0,000 mm 0,0 UV-I 0 W/m -5,1 C -2,6 C 3,2 km/h (1 Bft) 95,65 %
09.03.2021 00:17 -2,6 C -2,8 C -1,1 C 1,1 C 83 % 200 cb 3 cb 1021,2 hPa 0,0 l/m 1,6 km/h (1 Bft) W-NW 292 0 min 0,000 mm 0,0 UV-I 0 W/m -5,1 C -2,6 C 3,2 km/h (1 Bft) 86,96 %
09.03.2021 00:16 -2,6 C -2,8 C -1,1 C 1,1 C 83 % 200 cb 3 cb 1021,2 hPa 0,0 l/m 1,6 km/h (1 Bft) W-NW 292 0 min 0,000 mm 0,0 UV-I 0 W/m -5,1 C -2,6 C 3,2 km/h (1 Bft) 95,65 %
09.03.2021 00:15 -2,6 C -2,8 C -1,1 C 1,1 C 83 % 200 cb 3 cb 1021,2 hPa 0,0 l/m 1,6 km/h (1 Bft) NW 315 0 min 0,000 mm 0,0 UV-I 0 W/m -5,1 C -2,6 C 1,6 km/h (1 Bft) 86,96 %
09.03.2021 00:14 -2,6 C -2,8 C -0,6 C 1,1 C 83 % 200 cb 3 cb 1021,2 hPa 0,0 l/m 0,0 km/h (0 Bft) NW 315 0 min 0,000 mm 0,0 UV-I 0 W/m -5,1 C -2,6 C 1,6 km/h (1 Bft) 86,96 %
09.03.2021 00:13 -2,6 C -2,8 C -1,1 C 1,1 C 83 % 200 cb 3 cb 1021,2 hPa 0,0 l/m 0,0 km/h (0 Bft) N-NW 337 0 min 0,000 mm 0,0 UV-I 0 W/m -5,1 C -2,6 C 1,6 km/h (1 Bft) 91,30 %
09.03.2021 00:12 -2,6 C -2,8 C -1,1 C 1,1 C 82 % 200 cb 4 cb 1021,2 hPa 0,0 l/m 0,0 km/h (0 Bft) NO 45 0 min 0,000 mm 0,0 UV-I 0 W/m -5,2 C -2,6 C 1,6 km/h (1 Bft) 95,65 %
09.03.2021 00:11 -2,6 C -2,8 C -1,1 C 1,1 C 82 % 200 cb 4 cb 1021,2 hPa 0,0 l/m 0,0 km/h (0 Bft) W 270 0 min 0,000 mm 0,0 UV-I 0 W/m -5,2 C -2,6 C 1,6 km/h (1 Bft) 91,30 %
09.03.2021 00:10 -2,6 C -2,8 C -1,1 C 1,1 C 82 % 200 cb 4 cb 1021,2 hPa 0,0 l/m 0,0 km/h (0 Bft) W 270 0 min 0,000 mm 0,0 UV-I 0 W/m -5,2 C -2,6 C 1,6 km/h (1 Bft) 91,30 %
09.03.2021 00:09 -2,6 C -2,8 C -1,1 C 1,1 C 82 % 200 cb 3 cb 1021,3 hPa 0,0 l/m 0,0 km/h (0 Bft) O-SO 112 0 min 0,000 mm 0,0 UV-I 0 W/m -5,2 C -2,6 C 1,6 km/h (1 Bft) 91,30 %
09.03.2021 00:08 -2,6 C -2,8 C -1,1 C 1,1 C 82 % 200 cb 3 cb 1021,2 hPa 0,0 l/m 0,0 km/h (0 Bft) NW 315 0 min 0,000 mm 0,0 UV-I 0 W/m -5,2 C -2,6 C 1,6 km/h (1 Bft) 91,30 %
09.03.2021 00:07 -2,5 C -2,8 C -1,1 C 1,1 C 82 % 200 cb 3 cb 1021,2 hPa 0,0 l/m 0,0 km/h (0 Bft) W 270 0 min 0,000 mm 0,0 UV-I 0 W/m -5,1 C -2,5 C 1,6 km/h (1 Bft) 91,30 %
09.03.2021 00:06 -2,6 C -2,8 C -1,1 C 1,1 C 83 % 200 cb 4 cb 1021,3 hPa 0,0 l/m 0,0 km/h (0 Bft) N 0 0 min 0,000 mm 0,0 UV-I 0 W/m -5,1 C -2,6 C 0,0 km/h (0 Bft) 95,65 %
09.03.2021 00:05 -2,5 C -2,8 C -1,1 C 1,1 C 83 % 200 cb 4 cb 1021,3 hPa 0,0 l/m 1,6 km/h (1 Bft) W-SW 247 0 min 0,000 mm 0,0 UV-I 0 W/m -5,0 C -2,5 C 1,6 km/h (1 Bft) 91,30 %
09.03.2021 00:04 -2,5 C -2,8 C -1,1 C 1,1 C 82 % 200 cb 4 cb 1021,2 hPa 0,0 l/m 1,6 km/h (1 Bft) SW 225 0 min 0,000 mm 0,0 UV-I 0 W/m -5,1 C -2,5 C 1,6 km/h (1 Bft) 91,30 %
09.03.2021 00:03 -2,5 C -2,8 C -1,1 C 1,1 C 82 % 200 cb 3 cb 1021,3 hPa 0,0 l/m 0,0 km/h (0 Bft) SW 225 0 min 0,000 mm 0,0 UV-I 0 W/m -5,1 C -2,5 C 1,6 km/h (1 Bft) 91,30 %
09.03.2021 00:02 -2,5 C -2,8 C -1,1 C 1,1 C 82 % 200 cb 3 cb 1021,3 hPa 0,0 l/m 1,6 km/h (1 Bft) NW 315 0 min 0,000 mm 0,0 UV-I 0 W/m -5,1 C -2,5 C 1,6 km/h (1 Bft) 91,30 %
09.03.2021 00:01 -2,5 C -2,8 C -0,6 C 1,1 C 82 % 200 cb 3 cb 1021,4 hPa 0,0 l/m 1,6 km/h (1 Bft) NW 315 0 min 0,000 mm 0,0 UV-I 0 W/m -5,1 C -2,5 C 3,2 km/h (1 Bft) 91,30 %
09.03.2021 00:00 -2,5 C -2,8 C -0,6 C 1,1 C 82 % 200 cb 3 cb 1021,3 hPa 0,0 l/m 3,2 km/h (1 Bft) NW 315 0 min 0,000 mm 0,0 UV-I 0 W/m -5,1 C -2,5 C 3,2 km/h (1 Bft) 91,30 %
_ Min-Zeit 02:32 01:03 01:11 02:20 10:23 10:12 00:00 10:07 - 00:03 - - - - - - 02:32 03:22 00:06 02:07
Minimum _ -4,7 C -4,4 C -1,7 C 0,6 C 69 % 133 cb 3 cb 1018,9 hPa - 0,0 km/h (0 Bft) - - - - - - -6,4 C -6,2 C 0,0 km/h (0 Bft) 17,39 %
_ Max-Zeit 10:19 10:11 10:14 00:00 02:13 00:00 00:04 00:01 00:00 10:21 - - 08:42 10:00 10:14 09:39 10:18 10:10 10:14 00:06
Maximum _ 0,9 C 3,3 C 2,2 C 1,1 C 89 % 200 cb 4 cb 1021,4 hPa 0,0 l/m 12,9 km/h
S-SW (3 Bft)
- - 1 min 0,076 mm 1,7 UV-I 322 W/m -3,5 C 0,6 C 17,7 km/h
SW (3 Bft)
95,65 %
Durchschnitt _ -3,0 C -2,0 C -0,8 C 0,7 C 84 % 189 cb 4 cb 1020,0 hPa #0,0 l/m 1,8 km/h (1 Bft) SO - #1:37 h #0,152 mm 1,1 UV-I 131 W/m -5,3 C -3,2 C 3,1 km/h (1 Bft) 91,18 %